[[{"header":{"parameterUnit":"m.s-1","parameterCategory":1,"la1":31.0,"la2":29.5877,"lo1":-88.7671,"lo2":-86.6584,"dy":0.0162,"dx":0.0185,"nx":115,"ny":88,"refTime":"2023-06-13T12:00:00:Z","depth":0,"parameterNumber":2,"parameterNumberName":"U-component_of_WINDS"},"data":[0.0,0.0,0.0,0.0,0.0,0.0,0.0,0.0,0.0,0.0,0.0,0.0,0.0,0.0,0.0,0.0,0.0,0.0,0.0,0.0,0.0,0.0,0.0,0.0,0.0,0.0,0.0,0.0,0.0,0.0,0.0,0.0,0.0,0.0,0.0,0.0,0.0,0.0,0.0,0.0,0.0,0.0,0.0,0.0,0.0,0.0,0.0,0.0,0.0,0.0,0.0,0.0,0.0,0.0,0.0,0.0,0.0,0.0,0.0,0.0,0.0,0.0,0.0,0.0,0.0,0.0,0.0,0.0,0.0,0.0,0.0,0.0,0.0,0.0,0.0,0.0,0.0,0.0,0.0,0.0,0.0,0.0,0.0,0.0,0.0,0.0,0.0,0.0,0.0,0.0,0.0,0.0,0.0,0.0,0.0,0.0,0.0,0.0,0.0,0.0,0.0,0.0,0.0,0.0,0.0,0.0,0.0,0.0,0.0,0.0,0.0,0.0,0.0,0.0,0.0,0.0,0.0,0.0,0.0,0.0,0.0,0.0,0.0,0.0,0.0,0.0,0.0,0.0,0.0,0.0,0.0,0.0,0.0,0.0,0.0,0.0,0.0,0.0,0.0,0.0,0.0,0.0,0.0,0.0,0.0,0.0,0.0,0.0,0.0,0.0,0.0,0.0,0.0,0.0,0.0,0.0,0.0,0.0,0.0,0.0,0.0,0.0,0.0,0.0,0.0,0.0,0.0,0.0,0.0,0.0,0.0,0.0,0.0,0.0,0.0,0.0,0.0,0.0,0.0,0.0,0.0,0.0,0.0,0.0,0.0,0.0,0.0,0.0,0.0,0.0,0.0,0.0,0.0,0.0,0.0,0.0,0.0,0.0,0.0,0.0,0.0,0.0,0.0,0.0,0.0,0.0,0.0,0.0,0.0,0.0,0.0,0.0,0.0,0.0,0.0,0.0,0.0,0.0,0.0,0.0,0.0,0.0,0.0,0.0,0.0,0.0,0.0,0.0,0.0,0.0,0.0,0.0,0.0,0.0,0.0,0.0,0.0,0.0,0.0,0.0,0.0,0.0,0.0,0.0,0.0,0.0,0.0,0.0,0.0,0.0,0.0,0.0,0.0,0.0,0.0,0.0,0.0,0.0,0.0,0.0,0.0,0.0,0.0,0.0,0.0,0.0,0.0,0.0,0.0,0.0,0.0,0.0,0.0,0.0,0.0,0.0,0.0,0.0,0.0,0.0,0.0,0.0,0.0,0.0,0.0,0.0,0.0,0.0,0.0,0.0,0.0,0.0,0.0,0.0,0.0,0.0,0.0,0.0,0.0,0.0,0.0,0.0,0.0,0.0,0.0,0.0,0.0,0.0,0.0,0.0,0.0,0.0,0.0,0.0,0.0,0.0,0.0,0.0,0.0,0.0,0.0,0.0,0.0,0.0,0.0,0.0,0.0,0.0,0.0,0.0,0.0,0.0,0.0,0.0,0.0,0.0,0.0,0.0,0.0,0.0,0.0,0.0,0.0,0.0,0.0,0.0,0.0,0.0,0.0,0.0,0.0,0.0,0.0,0.0,0.0,0.0,0.0,0.0,0.0,0.0,0.0,0.0,0.0,0.0,0.0,0.0,0.0,0.0,0.0,0.0,0.0,0.0,0.0,0.0,0.0,0.0,0.0,0.0,0.0,0.0,0.0,0.0,0.0,0.0,0.0,0.0,0.0,0.0,0.0,0.0,0.0,0.0,0.0,0.0,0.0,0.0,0.0,0.0,0.0,0.0,0.0,0.0,0.0,0.0,0.0,0.0,0.0,0.0,0.0,0.0,0.0,0.0,0.0,0.0,0.0,0.0,0.0,0.0,0.0,0.0,0.0,0.0,0.0,0.0,0.0,0.0,0.0,0.0,0.0,0.0,0.0,0.0,0.0,0.0,0.0,0.0,0.0,0.0,0.0,0.0,0.0,0.0,0.0,0.0,0.0,0.0,0.0,0.0,0.0,0.0,0.0,0.0,0.0,0.0,0.0,0.0,0.0,0.0,0.0,0.0,0.0,0.0,0.0,0.0,0.0,0.0,0.0,0.0,0.0,0.0,0.0,0.0,0.0,0.0,0.0,0.0,0.0,0.0,0.0,0.0,0.0,0.0,0.0,0.0,0.0,0.0,0.0,0.0,0.0,0.0,0.0,0.0,0.0,0.0,0.0,0.0,0.0,0.0,0.0,0.0,0.0,0.0,0.0,0.0,0.0,0.0,0.0,0.0,0.0,0.0,0.0,0.0,0.0,0.0,0.0,0.0,0.0,0.0,0.0,0.0,0.0,0.0,0.0,0.0,0.0,0.0,0.0,0.0,0.0,0.0,0.0,0.0,0.0,0.0,0.0,0.0,0.0,0.0,0.0,0.0,0.0,0.0,0.0,0.0,0.0,0.0,0.0,0.0,0.0,0.0,0.0,0.0,0.0,0.0,0.0,0.0,0.0,0.0,0.0,0.0,0.0,0.0,0.0,0.0,0.0,0.0,0.0,0.0,0.0,0.0,0.0,0.0,0.0,0.0,0.0,0.0,0.0,0.0,0.0,0.0,0.0,0.0,0.0,0.0,0.0,0.0,0.0,0.0,0.0,0.0,0.0,0.0,0.0,0.0,0.0,0.0,0.0,0.0,0.0,0.0,0.0,0.0,0.0,0.0,0.0,0.0,0.0,0.0,0.0,0.0,0.0,0.0,0.0,0.0,0.0,0.0,0.0,0.0,0.0,0.0,0.0,0.0,0.0,0.0,0.0,0.0,0.0,0.0,0.0,0.0,0.0,0.0,0.0,0.0,0.0,0.0,0.0,0.0,0.0,0.0,0.0,0.0,0.0,0.0,0.0,0.0,0.0,0.0,0.0,0.0,0.0,0.0,0.0,0.0,0.0,0.0,0.0,0.0,0.0,0.0,0.0,0.0,0.0,0.0,0.0,0.0,0.0,0.0,0.0,0.0,0.0,0.0,0.0,0.0,0.0,0.0,0.0,0.0,0.0,0.0,0.0,0.0,0.0,0.0,0.0,0.0,0.0,0.0,0.0,0.0,0.0,0.0,0.0,0.0,0.0,0.0,0.0,0.0,0.0,0.0,0.0,0.0,0.0,0.0,0.0,0.0,0.0,0.0,0.0,0.0,0.0,0.0,0.0,0.0,0.0,0.0,0.0,0.0,0.0,0.0,0.0,0.0,0.0,0.0,0.0,0.0,0.0,0.0,0.0,0.0,0.0,0.0,0.0,0.0,0.0,0.0,0.0,0.0,0.0,0.0,0.0,0.0,0.0,0.0,0.0,0.0,0.0,0.0,0.0,0.0,0.0,0.0,0.0,0.0,0.0,0.0,0.0,0.0,0.0,0.0,0.0,0.0,0.0,0.0,0.0,0.0,0.0,0.0,0.0,0.0,0.0,0.0,0.0,0.0,0.0,0.0,0.0,0.0,0.0,0.0,0.0,0.0,0.0,0.0,0.0,0.0,0.0,0.0,0.0,0.0,0.0,0.0,0.0,0.0,0.0,0.0,0.0,0.0,0.0,0.0,0.0,0.0,0.0,0.0,0.0,0.0,0.0,0.0,0.0,0.0,0.0,0.0,0.0,0.0,0.0,0.0,0.0,0.0,0.0,0.0,0.0,0.0,0.0,0.0,0.0,0.0,0.0,0.0,0.0,0.0,0.0,0.0,0.0,0.0,0.0,0.0,0.0,0.0,0.0,0.0,0.0,0.0,0.0,0.0,0.0,0.0,0.0,0.0,0.0,0.0,0.0,0.0,0.0,0.0,0.0,0.0,0.0,0.0,0.0,0.0,0.0,0.0,0.0,0.0,0.0,0.0,0.0,0.0,0.0,0.0,0.0,0.0,0.0,0.0,0.0,0.0,0.0,0.0,0.0,0.0,0.0,0.0,0.0,0.0,0.0,0.0,0.0,0.0,0.0,0.0,0.0,0.0,0.0,0.0,0.0,0.0,0.0,0.0,0.0,0.0,0.0,0.0,0.0,0.0,0.0,0.0,0.0,0.0,0.0,0.0,0.0,0.0,0.0,0.0,0.0,0.0,0.0,0.0,0.0,0.0,0.0,0.0,0.0,0.0,0.0,0.0,0.0,0.0,0.0,0.0,0.0,0.0,0.0,0.0,0.0,0.0,0.0,0.0,0.0,0.0,0.0,0.0,0.0,0.0,0.0,0.0,0.0,0.0,0.0,0.0,0.0,0.0,0.0,0.0,0.0,0.0,0.0,0.0,0.0,0.0,0.0,0.0,0.0,0.0,0.0,0.0,-2.4177,0.0,0.0,0.0,0.0,0.0,0.0,0.0,0.0,0.0,0.0,0.0,0.0,0.0,0.0,0.0,0.0,0.0,0.0,0.0,0.0,0.0,0.0,0.0,0.0,0.0,0.0,0.0,0.0,0.0,0.0,0.0,0.0,0.0,0.0,0.0,0.0,0.0,0.0,0.0,0.0,0.0,0.0,0.0,0.0,0.0,0.0,0.0,0.0,0.0,0.0,0.0,0.0,0.0,0.0,0.0,0.0,0.0,0.0,0.0,0.0,0.0,0.0,0.0,0.0,0.0,0.0,0.0,0.0,0.0,0.0,0.0,0.0,0.0,0.0,0.0,0.0,0.0,0.0,0.0,0.0,0.0,0.0,0.0,0.0,0.0,0.0,0.0,0.0,0.0,0.0,0.0,0.0,0.0,0.0,0.0,0.0,0.0,0.0,0.0,0.0,0.0,0.0,0.0,0.0,0.0,0.0,0.0,0.0,0.0,0.0,-2.6776,-2.6246,-2.6413,-2.6133,-2.5354,0.0,0.0,0.0,0.0,0.0,0.0,0.0,0.0,0.0,0.0,0.0,0.0,0.0,0.0,0.0,0.0,0.0,0.0,0.0,0.0,0.0,0.0,0.0,0.0,0.0,0.0,0.0,0.0,0.0,0.0,0.0,0.0,0.0,0.0,0.0,0.0,0.0,0.0,0.0,0.0,0.0,0.0,0.0,0.0,0.0,0.0,0.0,0.0,0.0,0.0,0.0,0.0,0.0,0.0,0.0,0.0,0.0,0.0,0.0,0.0,0.0,0.0,0.0,0.0,0.0,0.0,0.0,0.0,0.0,0.0,0.0,0.0,0.0,0.0,0.0,0.0,0.0,0.0,0.0,0.0,0.0,0.0,0.0,0.0,0.0,0.0,0.0,0.0,0.0,0.0,0.0,0.0,0.0,0.0,0.0,0.0,0.0,0.0,0.0,0.0,0.0,0.0,0.0,0.0,0.0,0.0,0.0,0.0,0.0,0.0,0.0,0.0,-2.704,-2.6897,-2.6694,0.0,0.0,0.0,0.0,0.0,0.0,0.0,0.0,0.0,0.0,0.0,0.0,0.0,0.0,0.0,0.0,0.0,0.0,0.0,0.0,0.0,0.0,0.0,0.0,0.0,0.0,0.0,0.0,0.0,0.0,0.0,0.0,0.0,0.0,0.0,0.0,0.0,0.0,0.0,0.0,0.0,0.0,0.0,0.0,0.0,0.0,0.0,0.0,0.0,0.0,0.0,0.0,0.0,0.0,0.0,0.0,0.0,0.0,0.0,0.0,0.0,0.0,0.0,0.0,0.0,0.0,0.0,0.0,0.0,0.0,0.0,0.0,0.0,0.0,0.0,0.0,0.0,0.0,0.0,0.0,0.0,0.0,0.0,0.0,0.0,0.0,0.0,0.0,0.0,0.0,0.0,0.0,0.0,0.0,0.0,0.0,0.0,0.0,0.0,0.0,0.0,0.0,0.0,0.0,0.0,0.0,0.0,0.0,0.0,0.0,-2.7824,-2.7471,-2.8584,0.0,-2.7827,0.0,0.0,0.0,0.0,0.0,0.0,0.0,0.0,0.0,0.0,0.0,0.0,0.0,0.0,0.0,0.0,0.0,0.0,0.0,0.0,0.0,0.0,0.0,0.0,0.0,0.0,0.0,0.0,0.0,0.0,0.0,0.0,0.0,0.0,0.0,0.0,0.0,0.0,0.0,0.0,0.0,0.0,0.0,0.0,0.0,0.0,0.0,0.0,0.0,0.0,0.0,0.0,0.0,0.0,0.0,0.0,0.0,0.0,0.0,0.0,0.0,0.0,0.0,0.0,0.0,0.0,0.0,0.0,0.0,0.0,0.0,0.0,0.0,0.0,0.0,0.0,0.0,0.0,0.0,0.0,0.0,0.0,0.0,0.0,0.0,0.0,0.0,0.0,0.0,0.0,0.0,0.0,0.0,0.0,0.0,0.0,0.0,0.0,0.0,0.0,0.0,0.0,0.0,0.0,0.0,0.0,0.0,0.0,0.0,0.0,-2.7506,-2.7783,-2.8359,-2.8237,0.0,0.0,0.0,0.0,0.0,0.0,0.0,0.0,0.0,0.0,0.0,0.0,0.0,0.0,0.0,0.0,0.0,0.0,0.0,0.0,0.0,0.0,0.0,0.0,0.0,0.0,0.0,0.0,0.0,0.0,0.0,0.0,0.0,0.0,0.0,0.0,0.0,0.0,0.0,0.0,0.0,0.0,0.0,0.0,0.0,0.0,0.0,0.0,0.0,0.0,0.0,0.0,0.0,0.0,0.0,0.0,0.0,0.0,0.0,0.0,0.0,0.0,0.0,0.0,0.0,0.0,0.0,0.0,0.0,0.0,0.0,0.0,0.0,0.0,0.0,0.0,0.0,0.0,0.0,0.0,0.0,0.0,0.0,0.0,0.0,0.0,0.0,0.0,0.0,0.0,0.0,0.0,0.0,0.0,0.0,0.0,0.0,0.0,0.0,0.0,0.0,0.0,0.0,0.0,0.0,0.0,0.0,0.0,0.0,0.0,-2.6469,-2.7323,-2.83,-2.8267,-2.7885,-2.7352,0.0,0.0,0.0,0.0,0.0,0.0,0.0,0.0,0.0,0.0,0.0,0.0,0.0,0.0,0.0,0.0,0.0,0.0,0.0,0.0,0.0,0.0,0.0,0.0,0.0,0.0,0.0,0.0,0.0,0.0,0.0,0.0,0.0,0.0,0.0,0.0,0.0,0.0,0.0,0.0,0.0,0.0,0.0,0.0,0.0,0.0,0.0,0.0,0.0,0.0,0.0,0.0,0.0,0.0,0.0,0.0,0.0,0.0,0.0,0.0,0.0,0.0,0.0,0.0,0.0,0.0,0.0,0.0,0.0,0.0,0.0,0.0,0.0,0.0,0.0,0.0,0.0,0.0,0.0,0.0,0.0,0.0,0.0,0.0,0.0,0.0,0.0,0.0,0.0,0.0,0.0,0.0,0.0,0.0,0.0,0.0,0.0,0.0,0.0,0.0,0.0,0.0,0.0,0.0,0.0,0.0,0.0,0.0,-2.4801,-2.5978,-2.7472,-2.9181,-2.8724,-2.8543,0.0,0.0,0.0,0.0,0.0,0.0,0.0,0.0,0.0,0.0,0.0,0.0,0.0,0.0,0.0,0.0,0.0,0.0,0.0,0.0,0.0,0.0,0.0,0.0,0.0,0.0,0.0,0.0,0.0,0.0,0.0,0.0,0.0,0.0,0.0,0.0,0.0,0.0,0.0,0.0,0.0,0.0,0.0,0.0,0.0,0.0,0.0,0.0,0.0,0.0,0.0,0.0,0.0,0.0,0.0,0.0,0.0,0.0,0.0,0.0,0.0,0.0,0.0,0.0,0.0,0.0,0.0,0.0,0.0,0.0,0.0,0.0,0.0,0.0,0.0,0.0,0.0,0.0,0.0,0.0,0.0,0.0,0.0,0.0,0.0,0.0,0.0,0.0,0.0,0.0,0.0,0.0,0.0,0.0,0.0,0.0,0.0,0.0,0.0,0.0,0.0,0.0,0.0,0.0,0.0,0.0,0.0,0.0,0.0,-2.4511,-2.6107,-2.7263,-2.796,-2.8463,-2.8506,0.0,0.0,0.0,0.0,0.0,0.0,0.0,0.0,0.0,0.0,0.0,0.0,0.0,0.0,0.0,0.0,0.0,0.0,0.0,0.0,0.0,0.0,0.0,0.0,0.0,0.0,0.0,0.0,0.0,0.0,0.0,0.0,0.0,0.0,0.0,0.0,0.0,0.0,0.0,0.0,0.0,0.0,0.0,0.0,0.0,0.0,0.0,0.0,0.0,0.0,0.0,0.0,0.0,0.0,0.0,0.0,0.0,0.0,0.0,0.0,0.0,0.0,0.0,0.0,0.0,0.0,0.0,0.0,0.0,0.0,0.0,0.0,0.0,0.0,0.0,0.0,0.0,0.0,0.0,0.0,0.0,0.0,0.0,0.0,0.0,0.0,0.0,0.0,0.0,0.0,0.0,0.0,0.0,0.0,0.0,0.0,0.0,0.0,0.0,0.0,0.0,0.0,0.0,0.0,0.0,0.0,0.0,0.0,0.0,-2.4408,0.0,-2.6922,-2.7251,-2.8198,-2.8387,0.0,0.0,0.0,0.0,0.0,0.0,0.0,0.0,0.0,0.0,0.0,0.0,0.0,0.0,0.0,0.0,0.0,0.0,0.0,0.0,0.0,0.0,0.0,0.0,0.0,0.0,0.0,0.0,0.0,0.0,0.0,0.0,0.0,0.0,0.0,0.0,0.0,0.0,0.0,0.0,0.0,0.0,0.0,0.0,0.0,0.0,0.0,0.0,0.0,0.0,0.0,0.0,0.0,0.0,0.0,0.0,0.0,0.0,0.0,0.0,0.0,0.0,0.0,0.0,0.0,0.0,0.0,0.0,0.0,0.0,0.0,0.0,0.0,0.0,0.0,0.0,0.0,0.0,0.0,0.0,0.0,0.0,0.0,0.0,0.0,0.0,0.0,0.0,0.0,0.0,0.0,0.0,0.0,0.0,0.0,0.0,0.0,0.0,0.0,0.0,0.0,0.0,0.0,0.0,0.0,0.0,0.0,0.0,-2.3263,-2.4408,-2.5539,-2.6573,-2.737,-2.8037,-2.8225,0.0,0.0,0.0,0.0,0.0,0.0,0.0,0.0,0.0,0.0,0.0,0.0,0.0,0.0,0.0,0.0,0.0,0.0,0.0,0.0,0.0,0.0,0.0,0.0,0.0,0.0,0.0,0.0,0.0,0.0,0.0,0.0,0.0,0.0,0.0,0.0,0.0,0.0,0.0,0.0,0.0,0.0,0.0,0.0,0.0,0.0,0.0,0.0,0.0,0.0,0.0,0.0,0.0,0.0,0.0,0.0,0.0,0.0,0.0,0.0,0.0,0.0,0.0,0.0,0.0,0.0,0.0,0.0,0.0,0.0,0.0,0.0,0.0,0.0,0.0,0.0,0.0,0.0,0.0,0.0,0.0,0.0,0.0,0.0,0.0,0.0,0.0,0.0,0.0,0.0,0.0,0.0,0.0,0.0,0.0,0.0,0.0,0.0,0.0,0.0,0.0,0.0,0.0,0.0,0.0,0.0,0.0,0.0,0.0,-2.4203,-2.5629,-2.6683,-2.7394,-2.8339,-2.8543,0.0,0.0,0.0,0.0,0.0,0.0,0.0,0.0,0.0,0.0,0.0,0.0,0.0,0.0,0.0,0.0,0.0,0.0,0.0,0.0,0.0,0.0,0.0,0.0,0.0,0.0,0.0,0.0,0.0,0.0,0.0,0.0,0.0,0.0,0.0,0.0,0.0,0.0,0.0,0.0,0.0,0.0,0.0,0.0,0.0,0.0,0.0,0.0,0.0,0.0,0.0,0.0,0.0,0.0,0.0,0.0,0.0,0.0,0.0,0.0,0.0,0.0,0.0,0.0,0.0,0.0,0.0,0.0,0.0,0.0,0.0,0.0,0.0,0.0,0.0,0.0,0.0,0.0,0.0,0.0,0.0,0.0,0.0,0.0,0.0,0.0,0.0,0.0,0.0,0.0,0.0,0.0,0.0,0.0,0.0,0.0,0.0,0.0,0.0,0.0,0.0,0.0,0.0,0.0,0.0,0.0,0.0,0.0,0.0,-2.5054,-2.62,-2.7109,-2.768,-2.8776,-2.9071,-2.8323,0.0,0.0,0.0,0.0,0.0,0.0,0.0,0.0,0.0,0.0,0.0,0.0,0.0,0.0,0.0,0.0,0.0,0.0,0.0,0.0,0.0,0.0,0.0,0.0,0.0,0.0,0.0,0.0,0.0,0.0,0.0,0.0,0.0,0.0,0.0,0.0,0.0,0.0,0.0,0.0,0.0,0.0,0.0,0.0,0.0,0.0,0.0,0.0,0.0,0.0,0.0,0.0,0.0,0.0,0.0,0.0,0.0,0.0,0.0,0.0,0.0,0.0,0.0,0.0,0.0,0.0,0.0,0.0,0.0,0.0,0.0,0.0,0.0,0.0,0.0,0.0,0.0,0.0,0.0,0.0,0.0,0.0,0.0,0.0,0.0,0.0,0.0,0.0,0.0,0.0,0.0,0.0,0.0,0.0,0.0,0.0,0.0,0.0,0.0,0.0,0.0,0.0,0.0,0.0,0.0,0.0,0.0,0.0,-2.6735,-2.7247,-2.7848,-2.8433,-2.9432,-2.973,0.0,0.0,0.0,0.0,0.0,0.0,0.0,0.0,0.0,0.0,0.0,0.0,0.0,0.0,0.0,0.0,0.0,0.0,0.0,0.0,0.0,0.0,0.0,0.0,0.0,0.0,0.0,0.0,0.0,0.0,0.0,0.0,0.0,0.0,0.0,0.0,0.0,0.0,0.0,0.0,0.0,0.0,0.0,0.0,0.0,0.0,0.0,0.0,0.0,0.0,0.0,0.0,0.0,0.0,0.0,0.0,0.0,0.0,0.0,0.0,0.0,0.0,0.0,0.0,0.0,0.0,0.0,0.0,0.0,0.0,0.0,0.0,0.0,0.0,0.0,0.0,0.0,0.0,0.0,0.0,0.0,0.0,0.0,0.0,0.0,0.0,0.0,0.0,0.0,0.0,0.0,0.0,0.0,0.0,0.0,0.0,0.0,0.0,0.0,0.0,0.0,0.0,0.0,0.0,0.0,0.0,0.0,0.0,0.0,-2.7195,-2.9081,-3.0316,-3.0769,-3.087,-3.0776,0.0,0.0,0.0,0.0,0.0,0.0,0.0,0.0,0.0,0.0,0.0,0.0,0.0,0.0,0.0,0.0,0.0,0.0,0.0,0.0,0.0,0.0,0.0,0.0,0.0,0.0,0.0,0.0,0.0,0.0,0.0,0.0,0.0,0.0,0.0,0.0,0.0,0.0,0.0,0.0,0.0,0.0,0.0,0.0,0.0,0.0,0.0,0.0,0.0,0.0,0.0,0.0,0.0,0.0,0.0,0.0,0.0,0.0,0.0,0.0,0.0,0.0,0.0,0.0,0.0,0.0,0.0,0.0,0.0,0.0,0.0,0.0,0.0,0.0,0.0,0.0,0.0,0.0,0.0,0.0,0.0,0.0,0.0,0.0,0.0,0.0,0.0,0.0,0.0,0.0,0.0,0.0,0.0,0.0,0.0,0.0,0.0,0.0,0.0,0.0,0.0,0.0,0.0,0.0,0.0,0.0,0.0,0.0,-2.6232,-2.8576,-3.0825,-3.2485,-3.3457,-3.2651,-3.2054,0.0,0.0,0.0,0.0,0.0,0.0,0.0,0.0,0.0,0.0,0.0,0.0,0.0,0.0,0.0,0.0,0.0,0.0,0.0,0.0,0.0,0.0,0.0,0.0,0.0,0.0,0.0,0.0,0.0,0.0,0.0,0.0,0.0,0.0,0.0,0.0,0.0,0.0,0.0,0.0,0.0,0.0,0.0,0.0,0.0,0.0,0.0,0.0,0.0,0.0,0.0,0.0,0.0,0.0,0.0,0.0,0.0,0.0,0.0,0.0,0.0,0.0,0.0,0.0,0.0,0.0,0.0,0.0,0.0,0.0,0.0,0.0,0.0,0.0,0.0,0.0,0.0,0.0,0.0,0.0,0.0,0.0,0.0,0.0,0.0,0.0,0.0,0.0,0.0,0.0,0.0,0.0,0.0,0.0,0.0,0.0,0.0,0.0,0.0,0.0,0.0,0.0,0.0,0.0,0.0,0.0,0.0,0.0,-2.7037,-3.0241,-3.2388,-3.4276,-3.5884,-3.4511,-3.3405,0.0,0.0,0.0,0.0,0.0,0.0,0.0,0.0,0.0,0.0,0.0,0.0,0.0,0.0,0.0,0.0,0.0,0.0,0.0,0.0,0.0,0.0,0.0,0.0,0.0,0.0,0.0,0.0,0.0,0.0,0.0,0.0,0.0,0.0,0.0,0.0,0.0,0.0,0.0,0.0,0.0,0.0,0.0,0.0,0.0,0.0,0.0,0.0,0.0,0.0,0.0,0.0,0.0,0.0,0.0,0.0,0.0,0.0,0.0,0.0,0.0,0.0,0.0,0.0,0.0,0.0,0.0,0.0,0.0,0.0,0.0,0.0,0.0,0.0,0.0,0.0,0.0,0.0,0.0,0.0,0.0,0.0,0.0,0.0,0.0,0.0,0.0,0.0,0.0,0.0,0.0,0.0,0.0,0.0,0.0,0.0,0.0,0.0,0.0,0.0,0.0,0.0,0.0,0.0,0.0,0.0,0.0,0.0,-2.731,-3.0241,-3.3073,-3.5025,-3.5979,-3.5062,-3.4364,0.0,0.0,0.0,0.0,0.0,0.0,0.0,0.0,0.0,0.0,0.0,0.0,0.0,0.0,0.0,0.0,0.0,0.0,0.0,0.0,0.0,0.0,0.0,0.0,0.0,0.0,0.0,0.0,0.0,0.0,0.0,0.0,0.0,0.0,0.0,0.0,0.0,0.0,0.0,0.0,0.0,0.0,0.0,0.0,0.0,0.0,0.0,0.0,-2.6952,0.0,0.0,0.0,0.0,0.0,0.0,0.0,0.0,0.0,0.0,0.0,0.0,0.0,0.0,0.0,0.0,0.0,0.0,0.0,0.0,0.0,0.0,0.0,0.0,0.0,0.0,0.0,0.0,0.0,0.0,0.0,0.0,0.0,0.0,0.0,0.0,0.0,0.0,0.0,0.0,0.0,0.0,0.0,0.0,0.0,0.0,0.0,0.0,0.0,0.0,0.0,0.0,0.0,0.0,0.0,0.0,0.0,0.0,0.0,-2.8726,-3.1472,-3.4347,-3.6057,-3.6431,-3.6159,-3.5427,0.0,0.0,0.0,0.0,0.0,0.0,0.0,0.0,0.0,0.0,0.0,0.0,0.0,0.0,0.0,0.0,0.0,0.0,0.0,0.0,0.0,0.0,0.0,0.0,0.0,0.0,0.0,0.0,0.0,0.0,0.0,0.0,0.0,0.0,0.0,0.0,0.0,0.0,0.0,0.0,0.0,0.0,0.0,0.0,0.0,0.0,0.0,0.0,0.0,0.0,0.0,0.0,0.0,0.0,0.0,0.0,0.0,0.0,0.0,0.0,0.0,0.0,0.0,0.0,0.0,0.0,0.0,0.0,0.0,0.0,0.0,0.0,0.0,0.0,0.0,0.0,0.0,0.0,0.0,0.0,0.0,0.0,0.0,0.0,0.0,0.0,0.0,0.0,0.0,0.0,0.0,0.0,0.0,0.0,0.0,0.0,0.0,0.0,0.0,0.0,0.0,0.0,0.0,0.0,0.0,0.0,0.0,-2.8179,-3.0302,-3.2931,-3.5443,-3.6928,-3.7173,-3.7207,-3.6394,-3.4556,0.0,0.0,0.0,0.0,0.0,0.0,0.0,0.0,0.0,0.0,0.0,0.0,0.0,0.0,0.0,0.0,0.0,0.0,0.0,0.0,0.0,0.0,0.0,0.0,0.0,0.0,0.0,0.0,0.0,0.0,0.0,0.0,0.0,0.0,0.0,0.0,0.0,0.0,-2.428,-2.6138,0.0,0.0,0.0,0.0,0.0,0.0,0.0,0.0,-2.7921,0.0,0.0,0.0,0.0,0.0,0.0,0.0,0.0,0.0,0.0,0.0,0.0,0.0,0.0,0.0,0.0,0.0,0.0,0.0,0.0,0.0,0.0,0.0,0.0,0.0,0.0,0.0,0.0,0.0,0.0,0.0,0.0,0.0,0.0,0.0,0.0,0.0,0.0,0.0,0.0,0.0,0.0,0.0,0.0,0.0,0.0,0.0,0.0,0.0,0.0,0.0,0.0,0.0,0.0,0.0,0.0,-2.6625,-2.8497,-3.07,-3.3189,-3.555,-3.7059,-3.7518,-3.7545,-3.6765,-3.5114,0.0,0.0,0.0,0.0,0.0,0.0,0.0,0.0,0.0,0.0,0.0,0.0,0.0,0.0,0.0,0.0,0.0,0.0,0.0,0.0,0.0,0.0,0.0,0.0,0.0,0.0,0.0,0.0,0.0,0.0,0.0,0.0,0.0,0.0,0.0,0.0,0.0,0.0,0.0,-2.7168,-2.8122,0.0,0.0,0.0,0.0,0.0,0.0,0.0,0.0,-2.8888,0.0,0.0,0.0,0.0,0.0,0.0,0.0,0.0,0.0,0.0,0.0,0.0,0.0,0.0,0.0,0.0,0.0,0.0,0.0,0.0,0.0,0.0,0.0,0.0,0.0,0.0,0.0,0.0,0.0,0.0,0.0,0.0,0.0,0.0,0.0,0.0,0.0,0.0,0.0,0.0,0.0,0.0,0.0,0.0,0.0,0.0,0.0,0.0,0.0,0.0,0.0,0.0,0.0,0.0,0.0,-2.7373,-2.959,-3.1673,-3.3668,-3.6102,-3.7371,-3.7358,-3.7545,-3.6915,0.0,0.0,0.0,0.0,0.0,0.0,0.0,0.0,0.0,0.0,0.0,0.0,0.0,0.0,0.0,0.0,0.0,0.0,0.0,0.0,0.0,0.0,0.0,0.0,0.0,0.0,0.0,0.0,0.0,0.0,0.0,0.0,0.0,0.0,0.0,0.0,0.0,0.0,0.0,0.0,-2.8021,-2.8587,-2.8863,0.0,0.0,0.0,0.0,0.0,0.0,-2.9139,-2.9478,0.0,0.0,0.0,0.0,0.0,0.0,0.0,0.0,0.0,0.0,0.0,0.0,0.0,0.0,0.0,0.0,0.0,0.0,0.0,0.0,0.0,0.0,0.0,0.0,0.0,0.0,0.0,0.0,0.0,0.0,0.0,0.0,0.0,0.0,0.0,0.0,0.0,0.0,0.0,0.0,0.0,0.0,0.0,0.0,0.0,0.0,0.0,0.0,0.0,0.0,0.0,0.0,0.0,0.0,0.0,-2.8094,-3.055,-3.2605,-3.4162,-3.6402,-3.7481,-3.7338,-3.7368,-3.6793,0.0,0.0,0.0,0.0,0.0,0.0,0.0,0.0,0.0,0.0,0.0,0.0,0.0,0.0,0.0,0.0,0.0,0.0,0.0,0.0,0.0,0.0,0.0,0.0,0.0,0.0,0.0,0.0,0.0,0.0,0.0,0.0,0.0,0.0,0.0,0.0,0.0,0.0,0.0,0.0,0.0,-2.9239,-2.9239,-2.9654,0.0,0.0,0.0,0.0,-2.9402,-2.9804,0.0,0.0,0.0,0.0,0.0,0.0,0.0,0.0,0.0,0.0,0.0,0.0,0.0,0.0,0.0,0.0,0.0,0.0,0.0,0.0,0.0,0.0,0.0,0.0,0.0,0.0,0.0,0.0,0.0,0.0,0.0,0.0,0.0,0.0,0.0,0.0,0.0,0.0,0.0,0.0,0.0,0.0,0.0,0.0,0.0,0.0,0.0,0.0,0.0,0.0,0.0,0.0,0.0,0.0,0.0,0.0,-2.8049,-3.064,-3.2827,-3.4558,-3.5862,-3.7022,-3.8105,-3.7096,-3.6228,0.0,0.0,0.0,0.0,0.0,0.0,0.0,0.0,0.0,0.0,0.0,0.0,0.0,0.0,0.0,0.0,0.0,0.0,0.0,0.0,0.0,0.0,0.0,0.0,0.0,0.0,0.0,0.0,0.0,0.0,0.0,0.0,0.0,0.0,0.0,0.0,0.0,0.0,0.0,0.0,0.0,-3.0432,-3.0432,-3.0482,-3.0507,0.0,0.0,-3.0583,-3.1035,-3.116,0.0,0.0,0.0,0.0,0.0,0.0,0.0,0.0,0.0,0.0,0.0,0.0,0.0,0.0,0.0,0.0,0.0,0.0,0.0,0.0,0.0,0.0,0.0,0.0,0.0,0.0,0.0,0.0,0.0,0.0,0.0,0.0,0.0,0.0,0.0,0.0,0.0,0.0,0.0,0.0,0.0,0.0,0.0,0.0,0.0,0.0,0.0,0.0,0.0,0.0,0.0,0.0,0.0,0.0,0.0,-2.6681,-2.8035,-3.0294,-3.2362,-3.4129,-3.5405,-3.6507,-3.7566,-3.6811,-3.6006,0.0,0.0,0.0,0.0,0.0,0.0,0.0,0.0,0.0,0.0,0.0,0.0,0.0,0.0,0.0,0.0,0.0,0.0,0.0,0.0,0.0,0.0,0.0,0.0,0.0,0.0,0.0,0.0,0.0,0.0,0.0,0.0,0.0,0.0,0.0,0.0,0.0,0.0,0.0,0.0,0.0,0.0,-3.1009,-3.106,0.0,0.0,0.0,-3.1135,-3.1361,0.0,0.0,0.0,0.0,0.0,0.0,0.0,0.0,0.0,0.0,0.0,0.0,0.0,0.0,0.0,0.0,0.0,0.0,0.0,0.0,0.0,0.0,0.0,0.0,0.0,0.0,0.0,0.0,0.0,0.0,0.0,0.0,0.0,0.0,0.0,0.0,0.0,0.0,0.0,0.0,0.0,0.0,0.0,0.0,0.0,0.0,0.0,0.0,0.0,0.0,0.0,0.0,0.0,0.0,0.0,0.0,0.0,-2.7885,-3.0047,-3.19,-3.3496,-3.4802,-3.5934,-3.6822,-3.6285,0.0,0.0,0.0,0.0,0.0,0.0,0.0,0.0,0.0,0.0,0.0,0.0,0.0,0.0,0.0,0.0,0.0,0.0,0.0,0.0,0.0,0.0,0.0,0.0,0.0,0.0,0.0,-2.4205,0.0,0.0,0.0,0.0,0.0,0.0,0.0,0.0,0.0,0.0,0.0,0.0,0.0,0.0,-3.1009,-3.1537,-3.1587,-3.1587,0.0,0.0,-3.1637,-3.1788,-3.2164,-3.2416,0.0,0.0,0.0,0.0,0.0,0.0,0.0,0.0,0.0,0.0,0.0,0.0,0.0,0.0,0.0,0.0,0.0,0.0,0.0,0.0,0.0,0.0,0.0,0.0,0.0,0.0,0.0,0.0,0.0,0.0,0.0,0.0,0.0,0.0,0.0,0.0,0.0,0.0,0.0,0.0,0.0,0.0,0.0,0.0,0.0,0.0,0.0,0.0,0.0,0.0,0.0,0.0,0.0,0.0,-2.6973,-2.75,-3.0028,-3.1801,-3.2691,-3.3939,-3.5257,-3.6543,-3.5459,-3.469,0.0,0.0,0.0,0.0,0.0,0.0,0.0,0.0,0.0,0.0,0.0,0.0,0.0,0.0,0.0,0.0,0.0,0.0,0.0,0.0,0.0,0.0,0.0,0.0,0.0,0.0,0.0,0.0,0.0,0.0,0.0,0.0,0.0,0.0,0.0,0.0,0.0,0.0,0.0,0.0,0.0,-3.1537,-3.2089,-3.2164,-3.2164,0.0,-3.2164,-3.234,-3.2867,-3.2993,-3.3061,-3.3061,0.0,0.0,0.0,0.0,0.0,0.0,0.0,0.0,0.0,0.0,0.0,0.0,0.0,0.0,0.0,0.0,0.0,0.0,0.0,0.0,0.0,0.0,0.0,0.0,0.0,0.0,0.0,0.0,0.0,0.0,0.0,0.0,0.0,0.0,0.0,0.0,0.0,0.0,0.0,0.0,0.0,0.0,0.0,0.0,0.0,0.0,0.0,0.0,0.0,0.0,0.0,0.0,0.0,-2.7341,-2.7743,-2.9929,-3.1547,-3.2503,-3.366,-3.4753,-3.5722,-3.4922,-3.4125,0.0,0.0,0.0,0.0,0.0,0.0,0.0,0.0,0.0,0.0,0.0,0.0,0.0,0.0,0.0,0.0,0.0,0.0,0.0,0.0,0.0,0.0,0.0,0.0,0.0,0.0,0.0,0.0,-2.6816,-2.7333,-2.7751,0.0,0.0,0.0,0.0,0.0,0.0,0.0,0.0,0.0,0.0,-3.1712,-3.2616,-3.2742,0.0,0.0,-3.2742,-3.2817,-3.3043,-3.3136,-3.3136,-3.3136,-3.2935,0.0,0.0,0.0,0.0,0.0,0.0,0.0,0.0,0.0,0.0,0.0,0.0,0.0,0.0,0.0,0.0,0.0,0.0,0.0,0.0,0.0,0.0,0.0,0.0,0.0,0.0,0.0,0.0,0.0,0.0,0.0,0.0,0.0,0.0,0.0,0.0,0.0,0.0,0.0,0.0,0.0,0.0,0.0,0.0,0.0,0.0,0.0,0.0,0.0,0.0,0.0,0.0,-2.7631,-2.8096,-2.9957,-3.1326,-3.2225,-3.338,-3.4237,-3.4836,-3.4346,-3.3682,0.0,0.0,0.0,0.0,0.0,0.0,0.0,0.0,0.0,0.0,0.0,0.0,0.0,0.0,0.0,0.0,0.0,0.0,0.0,0.0,0.0,0.0,0.0,0.0,0.0,0.0,0.0,0.0,-2.7949,-2.8388,-2.8721,0.0,0.0,0.0,0.0,0.0,0.0,0.0,0.0,0.0,0.0,-3.1813,-3.296,-3.3136,-3.3136,-3.3136,-3.3136,-3.3136,-3.3136,-3.3136,-3.3136,-3.3136,0.0,0.0,0.0,0.0,0.0,0.0,0.0,0.0,0.0,0.0,0.0,0.0,0.0,0.0,0.0,0.0,0.0,0.0,0.0,0.0,0.0,0.0,0.0,0.0,0.0,0.0,0.0,-2.5062,0.0,0.0,-2.506,0.0,0.0,0.0,0.0,0.0,0.0,0.0,0.0,0.0,0.0,0.0,0.0,0.0,0.0,0.0,0.0,0.0,0.0,0.0,0.0,0.0,0.0,-2.7751,-2.8468,-3.0099,-3.1181,-3.1666,-3.2931,-3.3805,-3.4142,-3.3726,-3.3317,-3.2768,0.0,0.0,0.0,0.0,0.0,0.0,0.0,0.0,0.0,0.0,0.0,0.0,0.0,0.0,0.0,0.0,0.0,0.0,0.0,0.0,0.0,0.0,0.0,0.0,0.0,0.0,-2.7841,-2.83,-2.8708,0.0,0.0,0.0,0.0,0.0,0.0,0.0,0.0,0.0,-3.126,-3.1386,-3.1813,-3.296,-3.3136,-3.3136,-3.3136,-3.3136,-3.3136,-3.3136,-3.3136,-3.3136,0.0,0.0,0.0,0.0,0.0,0.0,0.0,0.0,0.0,0.0,0.0,0.0,0.0,0.0,0.0,0.0,0.0,0.0,0.0,0.0,0.0,0.0,0.0,0.0,0.0,0.0,0.0,-2.5995,-2.6356,0.0,0.0,0.0,0.0,0.0,0.0,0.0,0.0,0.0,0.0,0.0,-2.7051,-2.7598,0.0,0.0,0.0,0.0,0.0,0.0,0.0,0.0,0.0,0.0,0.0,0.0,-2.8208,-2.8818,-3.0389,-3.1512,-3.2211,-3.3099,-3.384,-3.4345,-3.3812,-3.2953,-3.1818,0.0,0.0,0.0,0.0,0.0,0.0,0.0,0.0,0.0,0.0,0.0,0.0,0.0,0.0,0.0,0.0,0.0,0.0,0.0,0.0,0.0,0.0,0.0,0.0,0.0,-2.8504,0.0,0.0,0.0,0.0,0.0,0.0,0.0,0.0,0.0,0.0,-3.0758,-3.0984,-3.1336,-3.1712,-3.2215,-3.2968,-3.3136,-3.3136,0.0,0.0,0.0,0.0,0.0,0.0,0.0,0.0,0.0,0.0,0.0,0.0,0.0,0.0,-3.3947,-3.3262,-3.2918,-3.2842,-3.3086,0.0,0.0,0.0,0.0,0.0,0.0,0.0,0.0,0.0,0.0,0.0,0.0,0.0,0.0,-2.7091,-2.7461,-2.689,0.0,0.0,0.0,0.0,0.0,0.0,0.0,0.0,-2.7422,-2.791,-2.8393,-2.8926,-2.8887,-2.8393,-2.8184,-2.7571,0.0,0.0,0.0,0.0,0.0,0.0,0.0,0.0,-2.8625,-2.9506,-3.0876,-3.2002,-3.2867,-3.3578,-3.4199,-3.4769,-3.428,-3.3441,-3.2305,-3.1664,-3.1205,0.0,0.0,0.0,0.0,0.0,0.0,0.0,0.0,0.0,0.0,0.0,0.0,0.0,0.0,0.0,0.0,0.0,0.0,0.0,0.0,0.0,0.0,0.0,-2.9302,0.0,0.0,0.0,0.0,0.0,0.0,0.0,0.0,0.0,-3.0782,-3.112,-3.1461,-3.1662,-3.1989,-3.2416,-3.3036,0.0,0.0,0.0,0.0,0.0,0.0,0.0,-3.3771,-3.4123,-3.4173,-3.4299,-3.4675,-3.468,-3.468,-3.468,0.0,0.0,-3.3545,-3.3219,-3.3187,-3.3319,-3.3219,-3.3194,-3.3571,-3.3646,-3.3545,0.0,0.0,0.0,0.0,-2.8061,0.0,0.0,0.0,-2.834,-2.8374,0.0,-2.7943,0.0,0.0,0.0,0.0,-2.6426,-2.6445,0.0,0.0,-2.8574,-2.9199,-2.9724,-3.0565,-3.0526,-2.9685,-2.9254,-2.8716,-2.8165,-2.7311,0.0,0.0,0.0,0.0,0.0,0.0,-2.9055,-3.0689,-3.1479,-3.2424,-3.3614,-3.4255,-3.4847,-3.5366,-3.5092,-3.4654,-3.4115,-3.3172,-3.2653,-3.2606,-3.1613,0.0,0.0,0.0,0.0,0.0,0.0,0.0,0.0,0.0,0.0,0.0,0.0,0.0,0.0,0.0,0.0,0.0,0.0,0.0,0.0,-2.8597,0.0,0.0,0.0,0.0,0.0,0.0,0.0,0.0,0.0,-3.0967,-3.1125,-3.1322,-3.1637,-3.2164,0.0,0.0,0.0,0.0,-3.3922,-3.3922,-3.4374,-3.4655,-3.4655,-3.47,-3.4655,-3.468,0.0,0.0,-3.4776,-3.4731,-3.4756,-3.4731,-3.4826,-3.46,-3.4073,-3.3571,-3.3345,-3.3822,-3.3545,-3.352,-3.4424,-3.46,-3.4625,-3.2256,0.0,0.0,0.0,0.0,-2.9133,-2.9368,-2.9648,-2.9648,-2.9648,-2.9629,-2.9199,0.0,0.0,0.0,0.0,0.0,0.0,-2.791,-2.9078,-2.959,-3.0329,-3.1327,-3.19,-3.1979,-3.1656,-3.1197,-3.0594,-2.9788,-2.9419,-2.8591,-2.7432,0.0,0.0,0.0,0.0,-3.0005,-3.0998,-3.2045,-3.3279,-3.4788,-3.5023,-3.5418,-3.6101,-3.6549,-3.6172,-3.4945,-3.4655,-3.4172,-3.3377,-3.2606,0.0,0.0,0.0,0.0,0.0,0.0,0.0,0.0,0.0,0.0,0.0,0.0,0.0,0.0,0.0,0.0,0.0,0.0,0.0,-2.8771,-3.0044,-3.087,0.0,0.0,0.0,0.0,0.0,0.0,0.0,0.0,0.0,-3.2044,-3.2184,-3.2471,0.0,0.0,-3.4073,-3.4223,-3.4399,-3.4474,-3.4455,-3.4625,0.0,-3.468,-3.468,-3.4851,-3.5207,-3.5629,-3.5906,-3.5881,-3.5927,-3.5906,-3.5927,-3.5881,-3.573,-3.5177,-3.4625,-3.4324,-3.4449,-3.4349,-3.4324,-3.465,-3.468,-3.4705,-3.5059,-3.2891,-3.1465,-3.084,-3.084,-3.084,-3.1094,-3.1465,-3.1484,-3.1484,-3.1426,-3.0859,-3.0215,-2.9531,-2.8769,0.0,0.0,0.0,-2.9375,-3.0605,-3.1152,-3.1978,-3.301,-3.3651,-3.3817,-3.3558,-3.2874,-3.2268,-3.1734,-3.1274,-3.0635,-2.9786,0.0,-2.8993,-2.9229,-2.9942,-3.0838,-3.1936,-3.2891,-3.4199,-3.5874,-3.6473,-3.6843,-3.7044,-3.7612,-3.7437,-3.6505,-3.6112,-3.562,-3.4981,-3.4076,-3.3648,0.0,0.0,0.0,0.0,0.0,0.0,0.0,0.0,0.0,0.0,0.0,-2.6692,-2.6502,0.0,0.0,0.0,-2.7304,-2.8336,-3.0053,-3.0898,0.0,0.0,0.0,0.0,0.0,0.0,0.0,-3.1752,-3.2596,-3.3179,-3.3173,-3.3454,-3.3707,-3.3727,-3.4324,-3.468,-3.468,0.0,-3.5006,-3.5006,-3.5228,-3.5378,-3.5378,-3.5378,-3.5479,-3.5805,-3.6132,-3.6405,-3.6405,-3.6405,-3.6405,-3.6405,-3.6405,-3.6257,-3.5931,-3.5604,-3.5278,-3.5102,-3.5006,-3.5102,-3.5328,-3.5353,-3.5378,-3.7871,-3.7207,-3.4453,-3.3223,-3.3047,-3.3047,-3.3281,-3.3633,-3.3633,-3.3574,-3.3476,-3.2715,-3.207,-3.1504,-3.0312,0.0,-2.9861,-3.0272,-3.1152,-3.2385,-3.3085,-3.3905,-3.4764,-3.5505,-3.5614,-3.5338,-3.4427,-3.3923,-3.3777,-3.2898,-3.2584,-3.2793,-3.1174,-3.0491,-3.0843,-3.0884,-3.167,-3.3218,-3.3904,-3.515,-3.6984,-3.8256,-3.8653,-3.8152,-3.8349,-3.8489,-3.8314,-3.7419,-3.6847,-3.6747,-3.5818,-3.5284,-3.5259,0.0,0.0,0.0,0.0,0.0,0.0,0.0,0.0,0.0,0.0,0.0,0.0,0.0,0.0,0.0,-2.8385,0.0,-3.098,-3.1592,0.0,0.0,0.0,-3.3097,-3.3329,-3.3143,-3.319,-3.3652,0.0,0.0,-3.4417,-3.4956,-3.5173,-3.4881,-3.4851,-3.4851,-3.4851,-3.5303,-3.5558,-3.5558,-3.6031,-3.6405,-3.6304,-3.6304,-3.6329,-3.6355,-3.6405,-3.6405,-3.6405,-3.6405,-3.6405,-3.6405,-3.6405,-3.6405,-3.6405,-3.6355,-3.6254,-3.5658,-3.5558,-3.5755,-3.6204,-3.6329,-3.6304,-3.9453,-3.8691,-3.7969,-3.6738,-3.5254,-3.5254,-3.5312,-3.5391,-3.5391,-3.5019,-3.4394,-3.418,-3.332,-3.1992,-3.1699,-3.1543,-3.1622,-3.2294,-3.3127,-3.4037,-3.4555,-3.5151,-3.5868,-3.6099,-3.6292,-3.6342,-3.5807,-3.5541,-3.5459,-3.4653,-3.4219,-3.4238,-3.3492,-3.2809,-3.2271,-3.2561,-3.3179,-3.401,-3.5006,-3.6382,-3.8199,-3.922,-3.9564,-3.9267,-3.9357,-3.8968,-3.8141,-3.7866,-3.7315,-3.6561,-3.6077,-3.5812,-3.5812,-3.5057,0.0,0.0,0.0,0.0,0.0,0.0,0.0,0.0,0.0,-2.9085,-2.8785,0.0,-2.9353,0.0,-3.1043,-3.2196,-3.2907,-3.328,0.0,0.0,-3.3854,-3.379,-3.3811,-3.3766,-3.3766,-3.3928,-3.4481,-3.4867,-3.503,-3.569,-3.606,-3.5981,-3.5956,-3.5981,-3.5981,-3.6128,-3.6157,-3.6157,-3.6304,-3.6405,-3.6405,-3.6405,-3.6405,-3.6405,-3.6405,-3.6405,-3.6405,-3.6405,-3.6405,-3.6405,-3.6405,-3.6405,-3.6405,-3.6405,-3.638,-3.6182,-3.6157,-3.6254,-3.638,-3.6405,-3.6405,-4.0924,-4.031,-4.029,-3.9499,-3.8173,-3.7269,-3.6758,-3.6582,-3.6582,-3.6309,-3.584,-3.565,-3.4758,-3.3565,-3.3723,-3.3704,-3.3565,-3.415,-3.4872,-3.5711,-3.6123,-3.6729,-3.7473,-3.7401,-3.7518,-3.7695,-3.7032,-3.6722,-3.668,-3.6018,-3.5666,-3.5666,-3.5211,-3.4899,-3.4708,-3.4205,-3.4253,-3.4933,-3.6443,-3.7801,-3.8967,-3.9515,-3.9758,-3.9599,-3.9556,-3.9168,-3.8417,-3.814,-3.7613,-3.6832,-3.6639,-3.6543,-3.6543,-3.6349,-3.6155,0.0,0.0,0.0,0.0,0.0,0.0,0.0,0.0,0.0,0.0,0.0,-3.0722,-3.1565,-3.2512,-3.3329,-3.3882,-3.4195,-3.4435,-3.4736,-3.4703,-3.4758,-3.4898,-3.4898,-3.4944,-3.5059,-3.5472,-3.5765,-3.5765,-3.611,-3.6405,-3.6405,-3.6405,-3.6405,-3.6405,-3.6405,-3.6405,-3.6405,-3.6405,-3.6405,-3.6405,-3.6405,-3.6405,-3.6405,-3.6405,-3.6405,-3.6405,-3.6405,-3.6405,-3.6405,-3.6405,-3.6405,-3.6405,-3.6405,-3.6405,-3.6405,-3.6405,-3.6405,-3.6405,-3.6405,-3.6405,-4.2189,-4.1786,-4.1786,-4.1545,-4.1042,-3.9109,-3.8073,-3.7681,-3.7622,-3.7563,-3.7465,-3.7074,-3.6356,-3.5473,-3.5957,-3.5896,-3.5473,-3.5957,-3.6582,-3.7375,-3.7732,-3.8364,-3.9012,-3.8856,-3.8786,-3.8745,-3.7984,-3.7636,-3.7636,-3.7244,-3.7016,-3.6995,-3.6559,-3.6644,-3.7297,-3.5884,-3.5431,-3.6071,-3.7918,-3.8997,-3.9507,-3.9554,-3.9636,-3.9668,-3.9498,-3.9239,-3.8843,-3.8391,-3.7864,-3.7337,-3.7287,-3.7287,-3.7312,-3.7739,-3.799,0.0,-3.7416,0.0,0.0,0.0,0.0,0.0,0.0,0.0,0.0,-3.1544,-3.2007,-3.322,-3.3523,-3.3918,-3.4541,-3.4823,-3.5095,-3.5307,-3.5563,-3.5812,-3.6003,-3.6051,-3.6146,-3.6358,-3.6405,-3.6405,-3.638,-3.6405,-3.6405,-3.6405,-3.6405,-3.6405,-3.6405,-3.6405,-3.6405,-3.6405,-3.6405,-3.6405,-3.6405,-3.6405,-3.6405,-3.6405,-3.6405,-3.6405,-3.6405,-3.6405,-3.6405,-3.6405,-3.6405,-3.6405,-3.6405,-3.6405,-3.6405,-3.6405,-3.6405,-3.6405,-3.6405,-3.6405,-3.6405,-4.2729,-4.2249,-4.2249,-4.1988,-4.1525,-4.0773,-4.0198,-3.9778,-3.9418,-3.9057,-3.8697,-3.8337,-3.7622,-3.6864,-3.763,-3.7549,-3.6823,-3.7902,-3.8486,-3.8649,-3.8993,-3.9234,-3.9357,-3.8993,-3.8786,-3.8812,-3.8562,-3.8489,-3.8468,-3.8289,-3.8186,-3.8165,-3.7784,-3.7594,-3.7806,0.0,0.0,0.0,-3.8552,-3.9239,-4.0024,-4.0135,-4.0081,-3.991,-3.9935,0.0,-3.8589,-3.8642,-3.8442,-3.7889,-3.7864,0.0,0.0,0.0,0.0,0.0,0.0,0.0,0.0,0.0,0.0,0.0,-3.6154,-3.5283,-3.4216,-3.4303,-3.4667,-3.5307,-3.5475,-3.5563,-3.5658,-3.5921,-3.6113,-3.616,-3.6213,-3.6263,-3.631,-3.6335,-3.6383,-3.6405,-3.6405,-3.6405,-3.6405,-3.6405,-3.6405,-3.6405,-3.6405,-3.6405,-3.6405,-3.6405,-3.6405,-3.6405,-3.6405,-3.6405,-3.6405,-3.6405,-3.6405,-3.6405,-3.6405,-3.6405,-3.6405,-3.6405,-3.6405,-3.6405,-3.6405,-3.6405,-3.6405,-3.6405,-3.6405,-3.6405,-3.6405,-3.6405,-3.6405,-3.6405,-3.6405,-4.3412,-4.3004,-4.3004,-4.2861,0.0,-4.2167,-4.1718,-4.1269,-4.0141,-3.9544,-3.9354,-3.9111,-3.8783,-3.831,-3.8779,-3.8738,-3.831,-3.8917,-3.9453,-3.9868,-4.0077,-4.0341,-4.0738,-3.9977,-3.9663,-3.9642,-3.9151,-3.8946,-3.8925,-3.891,-3.8848,-3.8848,-3.8595,-3.8658,-3.9088,-3.9677,-3.9752,-3.934,-3.9371,-3.9775,-4.0397,-4.0359,-4.0306,-4.019,-4.0137,0.0,0.0,0.0,0.0,0.0,0.0,0.0,0.0,-3.8693,0.0,-3.8843,-3.8843,-3.8843,-3.8843,-3.8565,-3.8362,-3.826,-3.7954,-3.7273,-3.5924,-3.6095,-3.6281,-3.6383,-3.6404,-3.6349,-3.6218,-3.6335,-3.6405,-3.6405,-3.6405,-3.6405,-3.6405,-3.6405,-3.6405,-3.6405,-3.6405,-3.6405,-3.6405,-3.6405,-3.6405,-3.6405,-3.6405,-3.6405,-3.6405,-3.6405,-3.6405,-3.6405,-3.6405,-3.6405,-3.6405,-3.6405,-3.6405,-3.6405,-3.6405,-3.6405,-3.6405,-3.6405,-3.6405,-3.6405,-3.6405,-3.6405,-3.6405,-3.6405,-3.6405,-3.638,-3.6132,-3.5981,-3.5981,-3.6157,-3.6405,-4.4112,-4.3615,-4.3615,-4.3615,-4.3573,-4.3118,-4.2621,-4.2083,-4.0584,0.0,0.0,-3.983,-3.9795,-3.9592,-3.9744,-3.9723,-3.973,-3.9813,-4.025,-4.1046,-4.1046,-4.1376,-4.1954,-4.1061,-4.0567,-4.0524,-3.9744,-3.9297,-3.9276,-3.9407,-3.9473,-3.9517,-3.9477,-3.9864,-4.0668,-4.1122,-4.1175,-4.0727,-4.0375,-4.0409,-4.0792,-4.0682,-4.0546,-4.0433,-4.029,-3.981,-3.9019,-3.9019,-3.8793,-3.8341,-3.8768,-3.907,-3.9044,-3.9446,-3.9697,-3.9697,-3.9697,-3.9697,-3.9697,-3.949,-3.9362,-3.9362,-3.9102,-3.8524,-3.741,-3.7415,-3.7369,-3.7021,-3.692,-3.6743,-3.6455,-3.6405,-3.6405,-3.6405,-3.6405,-3.6405,-3.6405,-3.6405,-3.6405,-3.6405,-3.6405,-3.6405,-3.6405,-3.6405,-3.6405,-3.6405,-3.6405,-3.6405,-3.6405,-3.6405,-3.6355,-3.6207,-3.6132,-3.6229,-3.6254,-3.6182,-3.6304,-3.638,-3.6405,-3.6405,-3.6405,-3.6405,-3.6405,-3.6405,-3.6405,-3.6405,-3.6405,-3.6304,-3.6254,-3.6254,-3.578,-3.5357,-3.5382,-3.5755,-3.6006,-4.4381,-4.3615,-4.3615,-4.3615,-4.3573,-4.3118,-4.2435,-4.1628,-4.1018,-4.0698,-4.0708,-4.0708,-4.046,-4.0158,-4.053,-4.0701,-4.0647,-4.1025,-4.1446,-4.1841,-4.1841,-4.1884,-4.1954,-4.0992,-4.0567,-4.0571,-3.9944,-3.9625,-3.9691,-4.0257,-4.0582,-4.0647,-4.0839,-4.1354,-4.1975,-4.2374,-4.274,-4.2986,-4.1625,-4.094,-4.1139,-4.1329,-4.1135,-4.0537,-4.0661,-4.033,-3.9312,-3.9469,-3.9546,-3.9471,-3.9546,-3.9572,-3.9572,-3.9647,-3.9697,-3.9697,-3.9697,-3.9697,-3.9697,-3.9645,-3.9645,-3.9645,-3.9594,-3.9415,-3.8983,-3.8536,-3.8116,-3.7841,-3.7439,-3.696,-3.6505,-3.643,-3.6405,-3.6405,-3.6405,-3.6405,-3.6405,-3.6405,-3.6405,-3.6405,-3.6405,-3.6405,-3.6405,-3.6405,-3.6405,-3.6405,-3.6405,-3.6405,-3.6405,-3.6405,-3.6157,-3.578,-3.5608,-3.5633,-3.578,-3.5633,-3.5906,-3.6355,-3.6405,-3.6405,-3.6405,-3.6405,-3.6405,-3.6405,-3.638,-3.6355,-3.6355,-3.5956,-3.573,-3.5583,-3.5182,-3.4806,-3.4851,-3.4926,-3.4977,-4.4443,-4.3656,-4.3615,-4.3615,-4.3553,-4.2849,-4.2331,-4.1949,-4.1408,-4.1096,-4.0882,-4.0882,-4.0758,-4.0613,-4.1013,-4.1226,-4.1158,-4.158,-4.1947,-4.23,-4.2511,-4.2721,-4.2866,-4.242,-4.2029,-4.1745,-4.1265,-4.0847,-4.0626,-4.0906,-4.1035,-4.11,-4.1614,-4.2166,-4.2862,-4.3365,-4.3602,-4.3444,-4.246,-4.1992,-4.215,-4.2119,-4.1657,-4.0785,-4.0952,-4.0589,-3.9567,-3.9645,-3.9697,-3.9697,-3.9697,-3.9697,-3.9697,-3.9697,-3.9697,-3.9697,-3.9697,-3.9697,-3.9697,-3.9697,-3.9697,-3.9697,-3.9697,-3.9645,-3.9517,-3.924,-3.8917,-3.8517,-3.7965,-3.7412,-3.6908,-3.6581,-3.6405,-3.6405,-3.6405,-3.6405,-3.6405,-3.6405,-3.6405,-3.6405,-3.6405,-3.6405,-3.6405,-3.6405,-3.6405,-3.6405,-3.6405,-3.6405,-3.6405,-3.6405,-3.6329,-3.6031,-3.5981,-3.5981,-3.5981,-3.5981,-3.6107,-3.6405,-3.6405,-3.6405,-3.6405,-3.6405,-3.6405,-3.638,-3.6132,-3.5956,-3.5931,-3.5479,-3.5132,-3.5006,-3.465,-3.4324,-3.4248,-3.4048,-3.4048,-4.4443,-4.3615,-4.3691,-4.3767,-4.3739,-4.2939,-4.2543,-4.246,-4.1871,-4.1452,-4.1147,-4.1167,-4.1167,-4.1167,-4.1473,-4.1686,-4.1756,-4.2089,-4.2511,-4.2861,-4.3211,-4.3558,-4.3791,-4.3599,-4.3287,-4.2929,-4.259,-4.2206,-4.1804,-4.1911,-4.1949,-4.1987,-4.2425,-4.2925,-4.3514,-4.4113,-4.4291,-4.4002,-4.3469,-4.3149,-4.2979,-4.2754,-4.2177,-4.128,-4.1243,-4.0824,-3.9948,-3.9772,-3.9697,-3.9697,-3.9697,-3.9697,-3.9697,-3.9697,-3.9697,-3.9697,-3.9697,-3.9697,-3.9697,-3.9697,-3.9697,-3.9697,-3.9697,-3.9697,-3.9697,-3.9697,-3.9471,-3.8919,-3.8442,-3.799,-3.7437,-3.701,-3.6732,-3.6631,-3.6581,-3.6556,-3.643,-3.6405,-3.6405,-3.6405,-3.6405,-3.6405,-3.6405,-3.6405,-3.6405,-3.6405,-3.6405,-3.6405,-3.6405,-3.6405,-3.6405,-3.638,-3.6304,-3.6132,-3.6182,-3.6157,-3.6182,-3.6355,-3.6405,-3.6405,-3.6405,-3.6405,-3.6405,-3.6355,-3.5906,-3.5608,-3.5458,-3.4977,-3.4625,-3.45,-3.4098,-3.3721,-3.3696,-3.3445,-3.3345,-4.4463,-4.3753,-4.3995,-4.4352,-4.4548,-4.3679,-4.3297,-4.317,-4.2351,-4.1947,-4.1877,-4.1877,-4.1877,-4.1855,-4.1947,-4.2159,-4.2489,-4.2861,-4.3232,-4.3558,-4.3974,-4.4204,-4.4228,-4.3735,-4.3466,-4.3489,-4.3329,-4.3278,-4.3231,-4.3779,-4.3961,-4.3816,-4.3726,-4.3826,-4.4237,-4.457,-4.5037,-4.5536,-4.5077,-4.4308,-4.3407,-4.3094,-4.2685,-4.2108,-4.158,-4.1,-4.0425,-3.9948,-3.9697,-3.9697,-3.9697,-3.9697,-3.9697,-3.9697,-3.9697,-3.9697,-3.9697,-3.9697,-3.9697,-3.9697,-3.9697,-3.9697,-3.9697,-3.9697,-3.9697,-3.9697,-3.9471,-3.9019,-3.8894,-3.8492,-3.8015,-3.7839,-3.7563,-3.7161,-3.7111,-3.6958,-3.6581,-3.6405,-3.6405,-3.6405,-3.643,-3.6405,-3.6405,-3.6405,-3.6405,-3.6405,-3.6405,-3.6405,-3.6405,-3.6405,-3.6405,-3.6329,-3.5981,-3.5683,-3.5683,-3.5583,-3.5931,-3.6329,-3.6405,-3.6405,-3.6405,-3.6405,-3.6405,-3.6355,-3.5855,-3.5458,-3.5207,-3.4705,-3.3997,-3.3922,-3.3596,-3.3237,-3.3212,-3.3162,-3.3219,-4.5139,-4.4374,-4.4504,-4.4654,-4.472,-4.4103,-4.3677,-4.3358,-4.2935,-4.2628,-4.2441,-4.2791,-4.2651,-4.2018,-4.2229,-4.2581,-4.2931,-4.328,-4.3628,-4.4066,-4.4594,-4.4869,-4.4892,-4.5117,-4.5066,-4.479,-4.4781,-4.4615,-4.4402,-4.4529,-4.466,-4.4722,-4.4562,-4.4635,-4.4902,-4.5208,-4.5514,-4.5732,-4.5475,-4.4919,-4.4169,-4.3683,-4.3037,-4.2263,-4.163,-4.1025,-4.0526,-3.9998,-3.9697,-3.9697,-3.9697,-3.9697,-3.9697,-3.9697,-3.9697,-3.9697,-3.9697,-3.9697,-3.9697,-3.9697,-3.9697,-3.9697,-3.9697,-3.9697,-3.9697,-3.9697,-3.9597,-3.9371,-3.9069,-3.8768,-3.8542,-3.8216,-3.7914,-3.7713,-3.7663,-3.7563,-3.7362,-3.7036,-3.686,-3.6883,-3.6606,-3.643,-3.6405,-3.6405,-3.6405,-3.6405,-3.6405,-3.6405,-3.6405,-3.6405,-3.6405,-3.638,-3.6157,-3.6056,-3.6006,-3.6031,-3.6132,-3.6329,-3.6405,-3.6405,-3.6405,-3.6405,-3.6405,-3.6405,-3.5655,-3.5107,-3.4981,-3.4198,-3.342,-3.337,-3.3345,-3.3136,-3.3136,-3.3136,-3.3136,-4.5677,-4.4869,-4.488,-4.5106,-4.5213,-4.4835,-4.4362,-4.4033,-4.3844,-4.3507,-4.3163,-4.3628,-4.3419,-4.2721,-4.2931,-4.3211,-4.3489,-4.3905,-4.4319,-4.4594,-4.5256,-4.5595,-4.5663,-4.6136,-4.6217,-4.5935,-4.6021,-4.5941,-4.5758,-4.5698,-4.567,-4.5595,-4.544,-4.5413,-4.5441,-4.5696,-4.5817,-4.5914,-4.5779,-4.5372,-4.4669,-4.4242,-4.3489,-4.2514,-4.1856,-4.1304,-4.0752,-4.0199,-3.9848,-3.9697,-3.9697,-3.9697,-3.9697,-3.9697,-3.9697,-3.9697,-3.9697,-3.9697,-3.9697,-3.9697,-3.9697,-3.9697,-3.9697,-3.9697,-3.9697,-3.9697,-3.9697,-3.9647,-3.9372,-3.917,-3.9095,-3.8718,-3.8442,-3.8291,-3.8241,-3.8191,-3.799,-3.7613,-3.7412,-3.7362,-3.696,-3.6556,-3.6455,-3.6405,-3.6405,-3.6405,-3.6405,-3.6405,-3.6405,-3.6405,-3.6405,-3.6405,-3.6405,-3.6405,-3.6405,-3.638,-3.6405,-3.6405,-3.6405,-3.6405,-3.6405,-3.6405,-3.6405,-3.6304,-3.5353,-3.4776,-3.468,-3.3947,-3.3136,-3.3136,-3.3136,-3.3136,-3.3136,-3.3136,-3.3136,-4.5677,-4.4923,-4.5256,-4.5779,-4.6477,-4.5984,-4.5695,-4.5471,-4.5073,-4.4651,-4.4226,-4.4273,-4.4273,-4.4204,-4.4273,-4.4273,-4.4342,-4.4914,-4.5187,-4.5324,-4.6001,-4.6338,-4.6338,-4.6405,-4.6405,-4.6512,-4.687,-4.7245,-4.7724,-4.7678,-4.7356,-4.6753,-4.6325,-4.597,-4.5831,-4.5817,-4.5939,-4.618,-4.619,-4.5723,-4.4769,-4.4593,-4.4016,-4.2961,-4.2439,-4.1831,-4.1329,-4.0777,-4.0249,-3.9722,-3.9722,-3.9722,-3.9697,-3.9697,-3.9697,-3.9697,-3.9697,-3.9697,-3.9697,-3.9697,-3.9697,-3.9697,-3.9697,-3.9697,-3.9697,-3.9697,-3.9697,-3.9697,-3.9622,-3.9597,-3.9597,-3.9471,-3.927,-3.8894,-3.8843,-3.8592,-3.814,-3.8065,-3.7965,-3.7889,-3.7437,-3.6935,-3.6505,-3.6405,-3.6405,-3.6405,-3.6405,-3.6405,-3.6405,-3.6405,-3.6405,-3.6405,-3.6405,-3.6405,-3.6405,-3.6405,-3.6405,-3.6405,-3.6405,-3.6405,-3.6405,-3.6405,-3.6405,-3.6204,-3.5328,-3.4776,-3.455,-3.4048,-3.3363,-3.3136,-3.3136,-3.3136,-3.3136,-3.3136,-3.3136,-4.6915,-4.6396,-4.6522,-4.6743,-4.6965,-4.6786,-4.6491,-4.6085,-4.5881,-4.5479,-4.5097,-4.521,-4.5347,-4.5347,-4.5551,-4.5392,-4.5006,-4.5483,-4.5799,-4.6069,-4.6563,-4.6898,-4.7098,-4.7298,-4.7563,-4.7786,-4.7918,-4.8116,-4.8313,-4.8354,-4.7942,-4.7304,-4.7008,-4.665,-4.6234,-4.612,-4.618,-4.6301,-4.6326,-4.5773,-4.4719,-4.4618,-4.4091,-4.3037,-4.2514,-4.2112,-4.1882,-4.1329,-4.0724,-4.0249,-4.0224,-4.0074,-3.9747,-3.9697,-3.9697,-3.9697,-3.9697,-3.9697,-3.9697,-3.9697,-3.9697,-3.9697,-3.9697,-3.9697,-3.9697,-3.9697,-3.9697,-3.9697,-3.9697,-3.9697,-3.9697,-3.9697,-3.9622,-3.9446,-3.9396,-3.9295,-3.9069,-3.8793,-3.8567,-3.8417,-3.7789,-3.7111,-3.6958,-3.6631,-3.643,-3.6405,-3.6405,-3.6405,-3.6405,-3.6405,-3.6405,-3.6405,-3.6405,-3.6405,-3.6405,-3.6405,-3.6405,-3.6405,-3.6405,-3.6405,-3.6405,-3.6405,-3.6405,-3.6279,-3.5454,-3.4801,-3.455,-3.3847,-3.3219,-3.3136,-3.3136,-3.3136,-3.3136,-3.3136,-3.3136,-4.7647,-4.7451,-4.7575,-4.7626,-4.7772,-4.7772,-4.7421,-4.6908,-4.6862,-4.6427,-4.5802,-4.5934,-4.6092,-4.6136,-4.6563,-4.6496,-4.6069,-4.6227,-4.6429,-4.6764,-4.7165,-4.7497,-4.7828,-4.8092,-4.8313,-4.8576,-4.8706,-4.8772,-4.8772,-4.8837,-4.8536,-4.7882,-4.7658,-4.7233,-4.6642,-4.6426,-4.6326,-4.6326,-4.6326,-4.5748,-4.4769,-4.4618,-4.4091,-4.3112,-4.2665,-4.2363,-4.2238,-4.1806,-4.1354,-4.0877,-4.0802,-4.0526,-4.0023,-3.9973,-3.9873,-3.9722,-3.9697,-3.9697,-3.9697,-3.9697,-3.9697,-3.9697,-3.9697,-3.9697,-3.9697,-3.9697,-3.9697,-3.9697,-3.9697,-3.9697,-3.9697,-3.9697,-3.9697,-3.9697,-3.9697,-3.9697,-3.9672,-3.9346,-3.9069,-3.8793,-3.8266,-3.7739,-3.7437,-3.7008,-3.6757,-3.6681,-3.6531,-3.643,-3.6405,-3.6405,-3.6405,-3.6405,-3.6405,-3.6405,-3.6405,-3.6405,-3.6405,-3.6405,-3.6405,-3.6405,-3.6405,-3.6405,-3.638,-3.6229,-3.573,-3.5027,-3.4349,-3.3646,-3.3294,-3.3162,-3.3136,-3.3136,-3.3136,-3.3136,-3.3136,-4.7868,-4.7941,-4.8232,-4.8572,-4.8766,-4.8766,-4.8566,-4.8075,-4.7935,-4.7416,-4.6705,-4.6496,-4.6607,-4.6607,-4.7232,-4.7497,-4.7364,-4.7165,-4.7232,-4.7497,-4.7828,-4.8182,-4.851,-4.8576,-4.8641,-4.8706,-4.8942,-4.9072,-4.9137,-4.9332,-4.9225,-4.8736,-4.8096,-4.757,-4.7043,-4.6577,-4.6326,-4.6326,-4.6326,-4.5748,-4.4769,-4.4618,-4.4091,-4.3112,-4.2936,-4.274,-4.2288,-4.2238,-4.1907,-4.143,-4.1354,-4.1025,-4.0601,-4.0526,-4.03,-3.9923,-3.9772,-3.9722,-3.9747,-3.9722,-3.9697,-3.9697,-3.9697,-3.9697,-3.9697,-3.9697,-3.9697,-3.9697,-3.9697,-3.9697,-3.9697,-3.9697,-3.9697,-3.9697,-3.9697,-3.9697,-3.9672,-3.9672,-3.9496,-3.9044,-3.8793,-3.8592,-3.809,-3.7538,-3.7211,-3.7111,-3.6832,-3.6531,-3.6531,-3.648,-3.6405,-3.6405,-3.6405,-3.6405,-3.6405,-3.6405,-3.6405,-3.6405,-3.6405,-3.6405,-3.6405,-3.6405,-3.6405,-3.6254,-3.5629,-3.4951,-3.4198,-3.3545,-3.3244,-3.3136,-3.3136,-3.3136,-3.3136,-3.3136,-3.3136,-4.9005,-4.9005,-4.9078,-4.9221,-4.927,-4.927,-4.9251,-4.9266,-4.8884,-4.8608,-4.8385,-4.8064,-4.7918,-4.7918,-4.8182,-4.8248,-4.8248,-4.8182,-4.8182,-4.8248,-4.8379,-4.8576,-4.8902,-4.8942,-4.9072,-4.9267,-4.9396,-4.9461,-4.9461,-4.9525,-4.9314,-4.8761,-4.8209,-4.7657,-4.7093,-4.6602,-4.6326,-4.6326,-4.6326,-4.5748,-4.4744,-4.4618,-4.4091,-4.3112,-4.2986,-4.2886,-4.2791,-4.2766,-4.2434,-4.1932,-4.1882,-4.1656,-4.1204,-4.1025,-4.0949,-4.0802,-4.045,-4.0249,-4.0224,-3.9923,-3.9747,-3.9697,-3.9697,-3.9697,-3.9697,-3.9697,-3.9697,-3.9697,-3.9697,-3.9697,-3.9697,-3.9697,-3.9697,-3.9697,-3.9697,-3.9697,-3.9697,-3.9697,-3.9622,-3.9446,-3.9094,-3.8793,-3.8567,-3.8115,-3.7764,-3.7713,-3.7262,-3.6935,-3.6885,-3.6659,-3.643,-3.6405,-3.6405,-3.6505,-3.6531,-3.6556,-3.6531,-3.6455,-3.6405,-3.6405,-3.6405,-3.6405,-3.6405,-3.6204,-3.5554,-3.4901,-3.4148,-3.3621,-3.3319,-3.3136,-3.3136,-3.3136,-3.3136,-3.3136,-3.3136,-5.0151,-5.0151,-5.0293,-5.0364,-5.0364,-5.0364,-5.0359,-5.0246,-4.9713,-4.945,-4.9313,-4.8821,-4.8576,-4.86,-4.8706,-4.8772,-4.8772,-4.8902,-4.8967,-4.8967,-4.8837,-4.8967,-4.9267,-4.9267,-4.9396,-4.9525,-4.959,-4.959,-4.959,-4.959,-4.9414,-4.9038,-4.8309,-4.7757,-4.7355,-4.6677,-4.6326,-4.6326,-4.6301,-4.5874,-4.5095,-4.4744,-4.4192,-4.3413,-4.3087,-4.2986,-4.2986,-4.2986,-4.2866,-4.259,-4.2514,-4.2183,-4.1706,-4.163,-4.1501,-4.125,-4.1,-4.0827,-4.0802,-4.0526,-4.0199,-4.0049,-3.9998,-3.9898,-3.9772,-3.9697,-3.9697,-3.9697,-3.9697,-3.9697,-3.9697,-3.9697,-3.9697,-3.9697,-3.9697,-3.9697,-3.9697,-3.9697,-3.9697,-3.9597,-3.9396,-3.922,-3.9069,-3.8693,-3.8366,-3.8266,-3.7839,-3.7487,-3.7437,-3.7211,-3.7036,-3.696,-3.7086,-3.7036,-3.6782,-3.6707,-3.6631,-3.6531,-3.6405,-3.6405,-3.6405,-3.6405,-3.6405,-3.6182,-3.573,-3.5177,-3.4449,-3.3872,-3.3495,-3.3319,-3.3136,-3.3136,-3.3136,-3.3136,-3.3136,-5.1211,-5.1282,-5.1586,-5.1681,-5.1681,-5.1656,-5.1456,-5.1078,-5.0419,-4.9995,-4.9544,-4.9043,-4.8706,-4.8772,-4.9007,-4.9137,-4.9202,-4.9396,-4.9461,-4.9396,-4.9267,-4.9267,-4.9525,-4.9525,-4.9525,-4.959,-4.959,-4.959,-4.959,-4.959,-4.959,-4.9439,-4.8535,-4.7933,-4.7682,-4.6853,-4.6376,-4.6326,-4.6326,-4.5999,-4.5447,-4.497,-4.4392,-4.379,-4.3338,-4.3062,-4.2986,-4.2986,-4.2986,-4.2961,-4.2911,-4.266,-4.2363,-4.2263,-4.1982,-4.158,-4.1376,-4.1379,-4.1326,-4.1175,-4.0974,-4.0626,-4.0526,-4.0325,-3.9923,-3.9848,-3.9798,-3.9722,-3.9697,-3.9697,-3.9697,-3.9697,-3.9697,-3.9697,-3.9697,-3.9697,-3.9697,-3.9697,-3.9697,-3.9697,-3.9697,-3.9672,-3.9597,-3.917,-3.9045,-3.8869,-3.8417,-3.8115,-3.8015,-3.7914,-3.7939,-3.7864,-3.7688,-3.7563,-3.7236,-3.6935,-3.686,-3.6757,-3.6556,-3.6405,-3.6405,-3.6405,-3.6405,-3.6182,-3.5906,-3.5353,-3.4751,-3.4148,-3.3571,-3.3262,-3.3136,-3.3136,-3.3136,-3.3136,-3.3136,-5.1656,-5.1656,-5.1751,-5.182,-5.182,-5.182,-5.1931,-5.1866,-5.0974,-5.0663,-5.0514,-4.9756,-4.9292,-4.9357,-4.9396,-4.9461,-4.9461,-4.9525,-4.959,-4.959,-4.9525,-4.9525,-4.959,-4.959,-4.959,-4.959,-4.959,-4.959,-4.959,-4.959,-4.959,-4.9565,-4.8887,-4.8309,-4.7857,-4.7255,-4.6702,-4.6376,-4.6326,-4.6075,-4.5573,-4.5347,-4.4769,-4.3865,-4.3664,-4.3363,-4.3037,-4.2986,-4.2986,-4.2986,-4.2986,-4.2936,-4.2735,-4.2735,-4.2635,-4.2459,-4.2133,-4.1932,-4.1882,-4.1605,-4.125,-4.11,-4.1128,-4.0877,-4.035,-4.03,-4.0099,-3.9848,-3.9697,-3.9697,-3.9697,-3.9697,-3.9697,-3.9697,-3.9697,-3.9697,-3.9697,-3.9697,-3.9697,-3.9697,-3.9697,-3.9697,-3.9647,-3.9572,-3.9421,-3.9346,-3.9019,-3.8642,-3.8592,-3.8366,-3.8291,-3.809,-3.7939,-3.7889,-3.7713,-3.7362,-3.7136,-3.6985,-3.6757,-3.6405,-3.6405,-3.6405,-3.6405,-3.6355,-3.6006,-3.5529,-3.4876,-3.4248,-3.3746,-3.3338,-3.3136,-3.3136,-3.3136,-3.3136,-3.3136,-5.2238,-5.2308,-5.2308,-5.2238,-5.2308,-5.2238,-5.2377,-5.241,-5.1729,-5.1272,-5.1122,-5.0343,-4.9816,-4.9615,-4.959,-4.959,-4.959,-4.959,-4.959,-4.959,-4.959,-4.959,-4.959,-4.959,-4.959,-4.959,-4.959,-4.959,-4.959,-4.959,-4.959,-4.949,-4.9038,-4.8611,-4.8284,-4.7732,-4.7179,-4.6753,-4.6652,-4.6401,-4.5874,-4.5598,-4.5196,-4.4518,-4.4292,-4.389,-4.3388,-4.3112,-4.2986,-4.2986,-4.2986,-4.2986,-4.2986,-4.2986,-4.2986,-4.2961,-4.2715,-4.2564,-4.2514,-4.2183,-4.1932,-4.1731,-4.1681,-4.1404,-4.0949,-4.0799,-4.0626,-4.0149,-4.0049,-3.9923,-3.9747,-3.9697,-3.9697,-3.9697,-3.9697,-3.9697,-3.9697,-3.9697,-3.9697,-3.9697,-3.9697,-3.9697,-3.9697,-3.9697,-3.9697,-3.9647,-3.9446,-3.927,-3.9195,-3.8868,-3.8642,-3.8567,-3.8542,-3.8567,-3.8316,-3.7914,-3.7362,-3.7186,-3.6782,-3.643,-3.6405,-3.6405,-3.6405,-3.6355,-3.6031,-3.5705,-3.5102,-3.455,-3.4123,-3.3721,-3.337,-3.3119,-3.3162,-3.3136,-3.3136,-5.2861,-5.2861,-5.2861,-5.2861,-5.2861,-5.2861,-5.2861,-5.276,-5.2234,-5.1774,-5.1222,-5.067,-5.0067,-4.9615,-4.959,-4.959,-4.959,-4.959,-4.959,-4.959,-4.959,-4.959,-4.959,-4.959,-4.959,-4.959,-4.959,-4.959,-4.959,-4.959,-4.959,-4.9515,-4.9088,-4.8837,-4.8611,-4.8209,-4.7732,-4.728,-4.7079,-4.6828,-4.6376,-4.5949,-4.5547,-4.5271,-4.4744,-4.4267,-4.3765,-4.3363,-4.3087,-4.2986,-4.2986,-4.2986,-4.2986,-4.2986,-4.2986,-4.2986,-4.2936,-4.2911,-4.2961,-4.2836,-4.2735,-4.2389,-4.2288,-4.2062,-4.158,-4.1404,-4.1178,-4.0651,-4.0601,-4.035,-3.9948,-3.9823,-3.9772,-3.9747,-3.9697,-3.9697,-3.9697,-3.9697,-3.9697,-3.9697,-3.9697,-3.9697,-3.9697,-3.9697,-3.9697,-3.9697,-3.9572,-3.9546,-3.9496,-3.9346,-3.9295,-3.9371,-3.9371,-3.9371,-3.8944,-3.8467,-3.7814,-3.7312,-3.6782,-3.6405,-3.6405,-3.6405,-3.6405,-3.6329,-3.6157,-3.5906,-3.5458,-3.4956,-3.453,-3.4123,-3.3746,-3.342,-3.3194,-3.3162,-3.3136,-5.2861,-5.2861,-5.2861,-5.2861,-5.2861,-5.2861,-5.2861,-5.281,-5.2352,-5.185,-5.1247,-5.0695,-5.0142,-4.9615,-4.9615,-4.959,-4.959,-4.959,-4.959,-4.959,-4.959,-4.959,-4.959,-4.959,-4.959,-4.959,-4.959,-4.959,-4.959,-4.959,-4.959,-4.9565,-4.9439,-4.9188,-4.8812,-4.8686,-4.8309,-4.7782,-4.738,-4.7129,-4.6878,-4.6401,-4.5924,-4.5547,-4.497,-4.4392,-4.3915,-4.3689,-4.3413,-4.3112,-4.3011,-4.3037,-4.2986,-4.2986,-4.2986,-4.2986,-4.2986,-4.2986,-4.2986,-4.2986,-4.2992,-4.2785,-4.271,-4.264,-4.2112,-4.1982,-4.1706,-4.1304,-4.11,-4.0902,-4.0425,-4.035,-4.0124,-3.9873,-3.9722,-3.9697,-3.9697,-3.9697,-3.9697,-3.9697,-3.9697,-3.9697,-3.9697,-3.9697,-3.9697,-3.9697,-3.9697,-3.9697,-3.9697,-3.9697,-3.9697,-3.9697,-3.9672,-3.9572,-3.9295,-3.8718,-3.7965,-3.7337,-3.6782,-3.6405,-3.6405,-3.6405,-3.6405,-3.6405,-3.6405,-3.6056,-3.5708,-3.5458,-3.5031,-3.46,-3.4148,-3.3897,-3.3646,-3.342,-3.3338,-5.2861,-5.2861,-5.2861,-5.2861,-5.2861,-5.2861,-5.2861,-5.2879,-5.2628,-5.2176,-5.1624,-5.1071,-5.0519,-4.9967,-4.9715,-4.959,-4.959,-4.959,-4.959,-4.959,-4.959,-4.959,-4.959,-4.959,-4.959,-4.959,-4.959,-4.959,-4.959,-4.959,-4.959,-4.959,-4.959,-4.9439,-4.9213,-4.9138,-4.8862,-4.841,-4.8058,-4.7707,-4.7154,-4.6853,-4.6426,-4.5874,-4.5347,-4.4869,-4.4644,-4.4317,-4.3915,-4.3514,-4.3363,-4.3237,-4.3037,-4.2986,-4.2986,-4.2986,-4.2986,-4.2986,-4.2986,-4.2986,-4.2986,-4.2986,-4.2986,-4.2836,-4.2665,-4.259,-4.2258,-4.1882,-4.1681,-4.1505,-4.0899,-4.0601,-4.035,-4.0149,-3.9848,-3.9722,-3.9697,-3.9697,-3.9697,-3.9697,-3.9697,-3.9697,-3.9697,-3.9697,-3.9697,-3.9697,-3.9697,-3.9697,-3.9697,-3.9697,-3.9697,-3.9697,-3.9697,-3.9622,-3.9471,-3.8894,-3.799,-3.7362,-3.6782,-3.6505,-3.6405,-3.6405,-3.6405,-3.6405,-3.6405,-3.6355,-3.6031,-3.5759,-3.5508,-3.5107,-3.4776,-3.4474,-3.4248,-3.4098,-3.4048,-5.2861,-5.2861,-5.2861,-5.2861,-5.2861,-5.2861,-5.2861,-5.2861,-5.2861,-5.2553,-5.2101,-5.1599,-5.1096,-5.0544,-5.0142,-4.9891,-4.9916,-4.9916,-5.0017,-4.9816,-4.9816,-4.9715,-4.964,-4.959,-4.959,-4.959,-4.959,-4.959,-4.959,-4.959,-4.959,-4.959,-4.959,-4.9565,-4.9565,-4.9565,-4.9339,-4.8937,-4.8686,-4.8309,-4.7606,-4.7355,-4.6979,-4.6451,-4.5899,-4.5522,-4.5271,-4.4945,-4.4493,-4.3966,-4.394,-4.3639,-4.3237,-4.2986,-4.2986,-4.2986,-4.2986,-4.2986,-4.2986,-4.2986,-4.2986,-4.2986,-4.2986,-4.2986,-4.2936,-4.2886,-4.274,-4.2514,-4.2288,-4.2057,-4.1505,-4.1178,-4.0852,-4.0576,-4.0149,-3.9873,-3.9798,-3.9772,-3.9697,-3.9697,-3.9697,-3.9697,-3.9697,-3.9697,-3.9697,-3.9697,-3.9697,-3.9697,-3.9697,-3.9697,-3.9697,-3.9697,-3.9697,-3.9697,-3.9572,-3.917,-3.8266,-3.7739,-3.7036,-3.6757,-3.6581,-3.6455,-3.6455,-3.643,-3.6405,-3.6355,-3.6257,-3.6031,-3.5805,-3.5558,-3.5282,-3.4906,-3.4781,-3.4731,-3.47,-5.2861,-5.2861,-5.2861,-5.2861,-5.2861,-5.2861,-5.2861,-5.2861,-5.2861,-5.2628,-5.2151,-5.2,-5.1624,-5.1197,-5.1071,-5.0971,-5.0845,-5.0795,-5.0645,-5.0343,-5.0268,-5.0142,-4.9816,-4.9816,-4.9715,-4.959,-4.9665,-4.9741,-4.9615,-4.959,-4.959,-4.959,-4.959,-4.959,-4.959,-4.959,-4.9565,-4.9339,-4.9038,-4.8661,-4.8335,-4.7908,-4.7456,-4.6928,-4.6401,-4.5999,-4.5598,-4.5397,-4.5095,-4.4568,-4.4493,-4.4192,-4.374,-4.3288,-4.3087,-4.2986,-4.2986,-4.2986,-4.2986,-4.2986,-4.2986,-4.2986,-4.2986,-4.2986,-4.2986,-4.2986,-4.2886,-4.2861,-4.2791,-4.264,-4.2082,-4.1861,-4.1605,-4.1254,-4.0752,-4.0453,-4.0377,-4.0101,-3.9901,-3.9978,-3.9876,-3.9697,-3.9697,-3.9697,-3.9697,-3.9697,-3.9697,-3.9697,-3.9697,-3.9697,-3.9697,-3.9697,-3.9697,-3.9697,-3.9672,-3.922,-3.8668,-3.8341,-3.7764,-3.7211,-3.6983,-3.6631,-3.6505,-3.6581,-3.6505,-3.6405,-3.6329,-3.6182,-3.6157,-3.6006,-3.5705,-3.5357,-3.5353,-3.5303,-3.5027,-5.2861,-5.2861,-5.2861,-5.2861,-5.2861,-5.2861,-5.2861,-5.2861,-5.2861,-5.2779,-5.2503,-5.2226,-5.1975,-5.1674,-5.1373,-5.1272,-5.1297,-5.1272,-5.1122,-5.087,-5.0845,-5.077,-5.0444,-5.0444,-5.0469,-5.0494,-5.0469,-5.0092,-4.964,-4.959,-4.9665,-4.959,-4.959,-4.959,-4.959,-4.959,-4.959,-4.9515,-4.9314,-4.9038,-4.8761,-4.8234,-4.7682,-4.7205,-4.6878,-4.6476,-4.6024,-4.5924,-4.5648,-4.5196,-4.507,-4.4744,-4.4317,-4.3966,-4.3564,-4.3137,-4.3037,-4.2986,-4.2986,-4.2986,-4.2986,-4.2986,-4.2986,-4.2986,-4.2986,-4.2986,-4.2986,-4.2986,-4.2986,-4.2942,-4.2585,-4.2414,-4.2167,-4.1919,-4.1493,-4.1269,-4.1197,-4.0844,-4.0641,-4.0437,-4.008,-3.9876,-3.9697,-3.9697,-3.9697,-3.9697,-3.9697,-3.9697,-3.9697,-3.9697,-3.9697,-3.9697,-3.9697,-3.9697,-3.9672,-3.932,-3.907,-3.8818,-3.8441,-3.7814,-3.7437,-3.7159,-3.6958,-3.6933,-3.6782,-3.6531,-3.6405,-3.6329,-3.638,-3.6405,-3.6107,-3.5881,-3.5881,-3.578,-3.5529,-5.2861,-5.2861,-5.2861,-5.2861,-5.2861,-5.2861,-5.2861,-5.2861,-5.2861,-5.2861,-5.2785,-5.2503,-5.2302,-5.2176,-5.19,-5.1649,-5.1599,-5.1674,-5.1599,-5.1448,-5.1423,-5.1398,-5.1272,-5.1272,-5.1172,-5.1071,-5.1122,-5.082,-5.0243,-5.0092,-4.9992,-5.0067,-4.9992,-4.9841,-4.9841,-4.9841,-4.9741,-4.9615,-4.959,-4.9339,-4.8912,-4.8385,-4.7908,-4.7431,-4.7255,-4.6842,-4.6527,-4.6301,-4.6075,-4.5773,-4.5598,-4.5397,-4.492,-4.4794,-4.4317,-4.3514,-4.3313,-4.3263,-4.3162,-4.3187,-4.3162,-4.3011,-4.2986,-4.2986,-4.2986,-4.2986,-4.2986,-4.2986,-4.2986,-4.2986,-4.2916,-4.2695,-4.2604,-4.2562,-4.237,-4.207,-4.2102,-4.1874,-4.1489,-4.1103,-4.0463,-4.0157,-4.0029,-3.9852,-3.9852,-3.9697,-3.9697,-3.9697,-3.9697,-3.9697,-3.9697,-3.9697,-3.9697,-3.9697,-3.9622,-3.9446,-3.927,-3.917,-3.8768,-3.8266,-3.799,-3.7713,-3.7538,-3.7337,-3.6983,-3.6757,-3.6581,-3.643,-3.6405,-3.6405,-3.6405,-3.6355,-3.6229,-3.6204,-3.6078,-5.2861,-5.2861,-5.2861,-5.2861,-5.2861,-5.2861,-5.2861,-5.2929,-5.2904,-5.2861,-5.2785,-5.2804,-5.2678,-5.2628,-5.2653,-5.2653,-5.2628,-5.2553,-5.2327,-5.2051,-5.2,-5.18,-5.1423,-5.1272,-5.1473,-5.1523,-5.1423,-5.1247,-5.1046,-5.1021,-5.0996,-5.0946,-5.0845,-5.082,-5.0343,-5.0218,-5.0042,-4.969,-4.9615,-4.954,-4.9389,-4.8937,-4.8661,-4.8284,-4.7732,-4.7179,-4.7029,-4.6728,-4.6376,-4.6276,-4.62,-4.5949,-4.5497,-4.5397,-4.507,-4.4644,-4.4392,-4.4217,-4.3815,-4.3689,-4.3539,-4.3263,-4.3087,-4.3011,-4.2986,-4.2986,-4.2986,-4.2986,-4.2986,-4.3042,-4.3098,-4.3164,-4.3224,-4.3212,-4.3099,-4.2977,-4.2931,-4.2916,-4.2579,-4.2215,-4.1724,-4.0926,-4.0491,-4.021,-3.9981,-3.9852,-3.9697,-3.9697,-3.9697,-3.9697,-3.9697,-3.9697,-3.9697,-3.9697,-3.9697,-3.9496,-3.9471,-3.9471,-3.9145,-3.8743,-3.8567,-3.8341,-3.8065,-3.7789,-3.7362,-3.7059,-3.6883,-3.6732,-3.6505,-3.6405,-3.6405,-3.6405,-3.6405,-3.6405,-3.6405,-5.2861,-5.2861,-5.2861,-5.2861,-5.2861,-5.2861,-5.2861,-5.2854,-5.2578,-5.2452,-5.2377,-5.2126,-5.2,-5.2076,-5.2302,-5.2452,-5.2528,-5.2754,-5.2804,-5.2603,-5.2528,-5.2427,-5.2302,-5.2226,-5.2201,-5.2126,-5.2201,-5.2277,-5.2076,-5.1574,-5.1272,-5.1322,-5.1297,-5.1172,-5.087,-5.0569,-5.0318,-5.0042,-4.9791,-4.9615,-4.954,-4.9339,-4.9088,-4.8786,-4.8284,-4.7908,-4.7556,-4.7405,-4.7029,-4.6878,-4.6778,-4.6527,-4.61,-4.5949,-4.5799,-4.5648,-4.5573,-4.5171,-4.4443,-4.4292,-4.4091,-4.389,-4.3614,-4.3338,-4.3087,-4.3037,-4.3037,-4.2986,-4.2986,-4.3098,-4.3235,-4.3351,-4.3572,-4.3746,-4.3839,-4.4084,-4.4012,-4.3834,-4.3651,-4.3311,-4.2866,-4.2138,-4.1338,-4.0644,-4.0363,-4.003,-3.9851,-3.9697,-3.9697,-3.9697,-3.9697,-3.9697,-3.9697,-3.9697,-3.9697,-3.9622,-3.9597,-3.9597,-3.9597,-3.927,-3.9195,-3.8994,-3.8668,-3.8341,-3.7965,-3.7613,-3.7262,-3.6835,-3.6556,-3.648,-3.6405,-3.6405,-3.6405,-3.6405,-3.6405,-5.2528,-5.2528,-5.2804,-5.2854,-5.2729,-5.2729,-5.2628,-5.2452,-5.2076,-5.19,-5.18,-5.1498,-5.1322,-5.1348,-5.1749,-5.2,-5.2151,-5.2528,-5.2779,-5.2879,-5.2861,-5.281,-5.2804,-5.2854,-5.2854,-5.2861,-5.2779,-5.2779,-5.2603,-5.2226,-5.18,-5.1699,-5.1875,-5.1674,-5.1373,-5.0971,-5.0544,-5.0042,-4.9766,-4.9615,-4.959,-4.959,-4.9339,-4.9088,-4.8812,-4.8586,-4.8184,-4.7908,-4.7606,-4.7431,-4.733,-4.7079,-4.6627,-4.6502,-4.6376,-4.6225,-4.6125,-4.5874,-4.5271,-4.497,-4.4794,-4.4543,-4.4317,-4.3865,-4.3564,-4.3388,-4.3413,-4.3514,-4.3627,-4.3695,-4.366,-4.3746,-4.4057,-4.439,-4.4587,-4.4938,-4.5154,-4.4838,-4.4652,-4.4388,-4.394,-4.3468,-4.2554,-4.144,-4.0771,-4.0362,-4.0081,-3.9774,-3.9722,-3.9722,-3.9697,-3.9697,-3.9697,-3.9697,-3.9697,-3.9697,-3.9697,-3.9697,-3.9697,-3.9647,-3.9496,-3.9396,-3.9145,-3.8843,-3.8542,-3.8316,-3.8015,-3.731,-3.6631,-3.6681,-3.6681,-3.648,-3.6405,-3.6405,-3.6405,-5.1398,-5.1498,-5.2477,-5.2603,-5.2151,-5.2151,-5.1875,-5.1548,-5.1398,-5.1297,-5.1247,-5.1247,-5.1122,-5.1222,-5.1272,-5.1574,-5.2051,-5.2151,-5.2452,-5.2729,-5.2861,-5.281,-5.2836,-5.2861,-5.2861,-5.2861,-5.2929,-5.2929,-5.2904,-5.2822,-5.2747,-5.2804,-5.2596,-5.2377,-5.2,-5.1398,-5.0569,-5.0017,-4.964,-4.9615,-4.959,-4.959,-4.954,-4.9414,-4.9063,-4.8736,-4.8686,-4.8335,-4.8033,-4.7883,-4.7857,-4.7606,-4.7179,-4.6943,-4.6717,-4.6552,-4.6351,-4.6175,-4.5899,-4.5573,-4.5171,-4.4819,-4.4593,-4.4493,-4.4242,-4.4392,-4.4468,-4.4317,-4.4364,-4.4491,-4.4571,-4.4673,-4.4963,-4.5138,-4.536,-4.5553,-4.5715,-4.5635,-4.5422,-4.5316,-4.4944,-4.4362,-4.3624,-4.2446,-4.1514,-4.1102,-4.0256,-3.9948,-3.9823,-3.9823,-3.9722,-3.9697,-3.9697,-3.9697,-3.9697,-3.9697,-3.9697,-3.9697,-3.9697,-3.9697,-3.9647,-3.9546,-3.9446,-3.9346,-3.9069,-3.8919,-3.8743,-3.8039,-3.7436,-3.7134,-3.6933,-3.6681,-3.648,-3.6405,-3.6405,-5.1272,-5.1322,-5.1749,-5.18,-5.1599,-5.1599,-5.1473,-5.1247,-5.0921,-5.0544,-5.0268,-5.0243,-5.0243,-5.0343,-5.0645,-5.0845,-5.1122,-5.1473,-5.1925,-5.2277,-5.2427,-5.2628,-5.2754,-5.281,-5.2861,-5.2904,-5.2904,-5.3067,-5.3273,-5.3273,-5.341,-5.3384,-5.3136,-5.2829,-5.2427,-5.1699,-5.0695,-4.9916,-4.959,-4.959,-4.959,-4.959,-4.959,-4.9565,-4.9464,-4.9289,-4.9238,-4.9088,-4.8786,-4.8535,-4.846,-4.8109,-4.7682,-4.7405,-4.7018,-4.6778,-4.6552,-4.6376,-4.6301,-4.6075,-4.5748,-4.5321,-4.5146,-4.5045,-4.4794,-4.4669,-4.4618,-4.4651,-4.4984,-4.517,-4.5278,-4.5628,-4.5973,-4.6044,-4.6136,-4.6249,-4.6277,-4.6303,-4.6009,-4.5795,-4.5449,-4.497,-4.4226,-4.3379,-4.2545,-4.1768,-4.0917,-4.0174,-4.0124,-3.9948,-3.9873,-3.9772,-3.9747,-3.9697,-3.9697,-3.9697,-3.9697,-3.9697,-3.9697,-3.9697,-3.9697,-3.9697,-3.9597,-3.9572,-3.9572,-3.9371,-3.9069,-3.8642,-3.8191,-3.7764,-3.7287,-3.6857,-3.6656,-3.648,-3.6455,-5.077,-5.077,-5.077,-5.087,-5.1021,-5.1021,-5.0921,-5.072,-5.0343,-4.9992,-4.959,-4.959,-4.959,-4.9715,-4.9967,-5.0343,-5.0544,-5.0896,-5.1348,-5.1674,-5.1925,-5.2101,-5.2377,-5.2553,-5.2671,-5.2772,-5.3085,-5.3273,-5.3614,-5.3682,-5.3751,-5.3725,-5.3521,-5.3247,-5.279,-5.1892,-5.072,-4.9866,-4.959,-4.959,-4.959,-4.959,-4.959,-4.959,-4.9565,-4.954,-4.9515,-4.9439,-4.9314,-4.9113,-4.8962,-4.8711,-4.8259,-4.7832,-4.7481,-4.7129,-4.6803,-4.6502,-4.6376,-4.6276,-4.615,-4.5799,-4.5723,-4.5522,-4.5246,-4.5121,-4.5296,-4.5422,-4.5664,-4.5802,-4.6013,-4.6482,-4.6807,-4.6851,-4.6995,-4.7054,-4.7217,-4.7163,-4.6679,-4.6277,-4.5929,-4.558,-4.4753,-4.3901,-4.2767,-4.2042,-4.1266,-4.0727,-4.0676,-4.045,-4.0124,-3.9973,-3.9848,-3.9772,-3.9697,-3.9697,-3.9697,-3.9697,-3.9697,-3.9697,-3.9697,-3.9697,-3.9697,-3.9647,-3.9647,-3.9697,-3.9471,-3.912,-3.8743,-3.8366,-3.7839,-3.7312,-3.6935,-3.6807,-3.6581,-4.969,-4.9615,-4.969,-4.9967,-5.0419,-5.0444,-5.0167,-4.9841,-4.9715,-4.9665,-4.959,-4.959,-4.959,-4.9615,-4.9715,-4.9941,-5.0218,-5.0393,-5.0745,-5.1172,-5.1297,-5.1322,-5.1641,-5.1942,-5.2379,-5.2725,-5.3047,-5.3462,-5.3997,-5.3997,-5.4064,-5.391,-5.374,-5.347,-5.33,-5.2026,-5.0695,-4.9766,-4.9615,-4.959,-4.959,-4.959,-4.959,-4.959,-4.959,-4.959,-4.959,-4.959,-4.9515,-4.9439,-4.9439,-4.9188,-4.8786,-4.8611,-4.8134,-4.738,-4.723,-4.6878,-4.6451,-4.6376,-4.6351,-4.6225,-4.61,-4.6075,-4.6175,-4.6175,-4.6169,-4.6171,-4.6628,-4.6828,-4.7114,-4.7341,-4.7476,-4.7684,-4.7775,-4.7836,-4.7892,-4.7703,-4.719,-4.6623,-4.6462,-4.6166,-4.5227,-4.4292,-4.3045,-4.2153,-4.1534,-4.125,-4.1175,-4.0849,-4.0526,-4.0224,-4.0049,-3.9848,-3.9772,-3.9722,-3.9697,-3.9697,-3.9697,-3.9697,-3.9697,-3.9697,-3.9697,-3.9697,-3.9697,-3.9697,-3.9697,-3.9647,-3.9245,-3.8843,-3.8366,-3.7864,-3.7437,-3.7061,-3.6835,-4.959,-4.959,-4.959,-4.9715,-4.9866,-4.9891,-4.9741,-4.9615,-4.959,-4.959,-4.959,-4.959,-4.959,-4.959,-4.9615,-4.9715,-4.9841,-4.9891,-5.0193,-5.067,-5.072,-5.0996,-5.1289,-5.1665,-5.2101,-5.2632,-5.3071,-5.3663,-5.4309,-5.4247,-5.42,-5.4086,-5.3498,-5.2869,-5.2225,-5.122,-5.0268,-4.9715,-4.959,-4.959,-4.959,-4.959,-4.959,-4.959,-4.959,-4.959,-4.959,-4.959,-4.959,-4.959,-4.959,-4.9464,-4.9213,-4.9063,-4.8611,-4.8109,-4.7958,-4.7581,-4.7405,-4.733,-4.6979,-4.6652,-4.6401,-4.6426,-4.6326,-4.6326,-4.6506,-4.6857,-4.7206,-4.7324,-4.7445,-4.8027,-4.833,-4.8509,-4.8605,-4.8452,-4.8403,-4.7971,-4.7538,-4.7045,-4.6745,-4.596,-4.5152,-4.4406,-4.3288,-4.2629,-4.2057,-4.1907,-4.1831,-4.1379,-4.0953,-4.0576,-4.0325,-4.0049,-3.9848,-3.9772,-3.9722,-3.9697,-3.9697,-3.9697,-3.9697,-3.9697,-3.9697,-3.9697,-3.9697,-3.9697,-3.9697,-3.9697,-3.9647,-3.932,-3.8868,-3.8366,-3.7914,-3.7462,-3.7111,-4.959,-4.959,-4.959,-4.959,-4.959,-4.959,-4.959,-4.959,-4.959,-4.959,-4.959,-4.959,-4.959,-4.959,-4.959,-4.959,-4.959,-4.9615,-4.9665,-5.0117,-5.0117,-5.0383,-5.0832,-5.1383,-5.1758,-5.2363,-5.295,-5.3579,-5.4183,-5.4327,-5.4276,-5.3818,-5.3023,-5.2387,-5.166,-5.1028,-5.0298,-4.9805,-4.959,-4.959,-4.959,-4.959,-4.959,-4.959,-4.959,-4.959,-4.959,-4.959,-4.959,-4.959,-4.959,-4.959,-4.9464,-4.9314,-4.8962,-4.8711,-4.8259,-4.7933,-4.7832,-4.7832,-4.7431,-4.7054,-4.6878,-4.6853,-4.6853,-4.6979,-4.7162,-4.7379,-4.7589,-4.7889,-4.8247,-4.8813,-4.8901,-4.9143,-4.9022,-4.8873,-4.8715,-4.834,-4.8014,-4.7486,-4.6994,-4.6096,-4.5068,-4.4377,-4.3554,-4.3134,-4.266,-4.259,-4.2414,-4.1932,-4.148,-4.1128,-4.0701,-4.0375,-4.0074,-3.9823,-3.9772,-3.9697,-3.9697,-3.9697,-3.9697,-3.9697,-3.9697,-3.9697,-3.9697,-3.9697,-3.9697,-3.9672,-3.9647,-3.9597,-3.9371,-3.8894,-3.8391,-3.8015,-3.7638,-4.9565,-4.954,-4.9565,-4.954,-4.9629,-4.9629,-4.9654,-4.959,-4.959,-4.959,-4.959,-4.959,-4.959,-4.959,-4.959,-4.959,-4.959,-4.959,-4.964,-4.973,-4.9805,-5.0049,-5.0305,-5.0803,-5.1562,-5.2169,-5.2841,-5.34,-5.3825,-5.4032,-5.4043,-5.3576,-5.2682,-5.1962,-5.1383,-5.0918,-5.0316,-4.9819,-4.959,-4.959,-4.959,-4.959,-4.959,-4.959,-4.959,-4.959,-4.959,-4.959,-4.959,-4.959,-4.959,-4.959,-4.959,-4.959,-4.9238,-4.8837,-4.8309,-4.8234,-4.8184,-4.8234,-4.8184,-4.7983,-4.7983,-4.7958,-4.7757,-4.7606,-4.7741,-4.8013,-4.8294,-4.8753,-4.9256,-4.9315,-4.9364,-4.9303,-4.9244,-4.909,-4.8988,-4.8775,-4.8448,-4.8034,-4.7543,-4.6669,-4.5314,-4.4458,-4.3771,-4.3406,-4.2986,-4.2836,-4.2715,-4.2539,-4.2082,-4.1806,-4.1329,-4.0752,-4.0425,-4.0174,-3.9998,-3.9998,-3.9747,-3.9697,-3.9697,-3.9697,-3.9697,-3.9697,-3.9697,-3.9697,-3.9697,-3.9697,-3.9697,-3.9622,-3.9546,-3.9396,-3.8894,-3.8693,-3.8366,-4.8761,-4.8435,-4.8837,-4.914,-4.9444,-5.0054,-5.004,-4.9654,-4.959,-4.959,-4.959,-4.959,-4.959,-4.959,-4.959,-4.959,-4.959,-4.959,-4.959,-4.9654,-4.9847,-5.0001,-5.0308,-5.0781,-5.1548,-5.219,-5.2859,-5.3387,-5.388,-5.4,-5.3545,-5.3087,-5.2413,-5.1673,-5.1087,-5.0742,-5.0231,-4.9769,-4.959,-4.959,-4.959,-4.959,-4.959,-4.959,-4.959,-4.959,-4.959,-4.959,-4.959,-4.959,-4.959,-4.959,-4.959,-4.959,-4.9439,-4.9389,-4.9188,-4.9138,-4.9113,-4.9088,-4.9038,-4.8962,-4.9012,-4.8535,-4.8234,-4.807,-4.8158,-4.8508,-4.8745,-4.9106,-4.9451,-4.9533,-4.9617,-4.9568,-4.9402,-4.9144,-4.9017,-4.8779,-4.8479,-4.8058,-4.7649,-4.6823,-4.5521,-4.4542,-4.3878,-4.357,-4.3288,-4.3087,-4.2936,-4.2791,-4.2615,-4.2338,-4.1961,-4.1329,-4.0978,-4.0701,-4.0475,-4.0275,-4.0023,-3.9772,-3.9697,-3.9697,-3.9697,-3.9697,-3.9697,-3.9697,-3.9697,-3.9697,-3.9697,-3.9697,-3.9647,-3.9572,-3.9471,-3.9195,-3.8969,-4.8234,-4.7983,-4.841,-4.8938,-4.9532,-5.0027,-5.013,-5.0014,-4.9847,-4.9719,-4.959,-4.959,-4.959,-4.959,-4.959,-4.959,-4.959,-4.959,-4.9654,-4.9847,-5.004,-5.0295,-5.0614,-5.102,-5.1643,-5.2318,-5.28,-5.3281,-5.3673,-5.3414,-5.3023,-5.2783,-5.2226,-5.146,-5.0867,-5.0601,-5.0257,-4.9847,-4.959,-4.959,-4.959,-4.959,-4.959,-4.959,-4.959,-4.959,-4.959,-4.959,-4.959,-4.959,-4.959,-4.959,-4.959,-4.959,-4.959,-4.954,-4.9515,-4.949,-4.9464,-4.9515,-4.9565,-4.959,-4.959,-4.9238,-4.8937,-4.8736,-4.8838,-4.8989,-4.9128,-4.924,-4.9512,-4.9693,-4.9776,-4.9827,-4.9527,-4.9199,-4.891,-4.8647,-4.8341,-4.7945,-4.7386,-4.6667,-4.5723,-4.4717,-4.3966,-4.3664,-4.3363,-4.3062,-4.2986,-4.2911,-4.2811,-4.2635,-4.2363,-4.1961,-4.158,-4.1204,-4.0877,-4.0601,-4.0325,-4.0074,-3.9848,-3.9697,-3.9697,-3.9697,-3.9697,-3.9697,-3.9697,-3.9697,-3.9697,-3.9697,-3.9697,-3.9647,-3.9597,-3.9496,-3.932,-4.7807,-4.7819,-4.8266,-4.8931,-4.9691,-4.9856,-5.0164,-5.0537,-5.027,-4.9976,-4.9719,-4.9654,-4.9654,-4.959,-4.959,-4.959,-4.9654,-4.9654,-4.9847,-5.0129,-5.0295,-5.055,-5.1057,-5.1497,-5.1951,-5.2333,-5.273,-5.3225,-5.309,-5.2968,-5.2837,-5.2553,-5.2059,-5.1346,-5.0715,-5.0588,-5.027,-4.9719,-4.959,-4.959,-4.959,-4.959,-4.959,-4.959,-4.959,-4.959,-4.959,-4.959,-4.959,-4.959,-4.959,-4.959,-4.959,-4.959,-4.959,-4.959,-4.959,-4.959,-4.959,-4.959,-4.959,-4.959,-4.959,-4.9515,-4.9314,-4.9238,-4.9252,-4.9316,-4.9393,-4.9584,-4.9849,-4.9948,-5.0002,-4.9949,-4.9802,-4.9374,-4.9022,-4.8655,-4.814,-4.7795,-4.7365,-4.6696,-4.6054,-4.5104,-4.4493,-4.4016,-4.3539,-4.3212,-4.2986,-4.2986,-4.2936,-4.2886,-4.266,-4.2414,-4.2158,-4.1781,-4.1304,-4.0953,-4.0676,-4.035,-4.0074,-3.9873,-3.9697,-3.9697,-3.9697,-3.9697,-3.9697,-3.9697,-3.9697,-3.9697,-3.9697,-3.9697,-3.9672,-3.9622,-3.9572,-4.7201,-4.7177,-4.8102,-4.8919,-4.9548,-5.0234,-5.0468,-5.04,-5.075,-5.055,-5.0065,-4.9976,-4.9783,-4.959,-4.959,-4.959,-4.959,-4.9783,-5.0001,-5.0321,-5.055,-5.0994,-5.1471,-5.1872,-5.2306,-5.2738,-5.3071,-5.3254,-5.3227,-5.3105,-5.2799,-5.2553,-5.2032,-5.1408,-5.0652,-5.0588,-5.0232,-4.9654,-4.9654,-4.9654,-4.9654,-4.959,-4.959,-4.959,-4.9654,-4.9654,-4.9654,-4.9654,-4.959,-4.959,-4.959,-4.959,-4.959,-4.959,-4.959,-4.959,-4.9654,-4.9719,-4.9719,-4.9719,-4.9719,-4.9654,-4.9654,-4.959,-4.959,-4.959,-4.959,-4.9654,-4.9719,-4.9873,-5.0014,-5.0092,-5.0166,-5.012,-5.0078,-4.9637,-4.9191,-4.8603,-4.7957,-4.7619,-4.7324,-4.6781,-4.6188,-4.5632,-4.507,-4.4518,-4.3966,-4.3539,-4.3162,-4.3037,-4.2986,-4.2936,-4.2961,-4.2735,-4.2585,-4.2333,-4.1856,-4.143,-4.1128,-4.0752,-4.0325,-4.0099,-3.9873,-3.9747,-3.9697,-3.9697,-3.9697,-3.9697,-3.9697,-3.9697,-3.9697,-3.9697,-3.9697,-3.9672,-3.9672,-4.7034,-4.713,-4.7888,-4.8651,-4.9317,-4.9837,-5.0228,-5.0539,-5.0815,-5.0824,-5.0487,-5.0257,-4.9912,-4.9654,-4.959,-4.959,-4.9654,-4.9912,-5.0168,-5.0487,-5.0994,-5.1408,-5.1846,-5.2306,-5.2677,-5.3071,-5.3254,-5.3349,-5.3349,-5.3044,-5.2677,-5.2368,-5.1934,-5.1372,-5.0652,-5.0487,-5.0168,-4.959,-4.9719,-4.9783,-4.9873,-4.9873,-4.9912,-4.9976,-5.004,-5.004,-5.004,-5.004,-5.004,-5.004,-5.0104,-4.9976,-4.9976,-4.9976,-5.004,-5.0104,-5.0104,-5.004,-5.004,-5.004,-4.9976,-4.9976,-5.004,-5.0104,-5.0104,-5.0104,-4.9847,-4.9847,-4.9654,-4.9744,-4.9847,-4.9938,-5.0206,-5.0355,-5.0178,-4.9854,-4.9325,-4.8726,-4.8047,-4.7383,-4.7087,-4.6815,-4.6229,-4.5783,-4.5246,-4.4995,-4.4443,-4.389,-4.3489,-4.3162,-4.3087,-4.3011,-4.3011,-4.2986,-4.2836,-4.2715,-4.2464,-4.2037,-4.158,-4.1103,-4.0651,-4.0325,-4.0074,-3.9898,-3.9747,-3.9697,-3.9697,-3.9697,-3.9697,-3.9697,-3.9697,-3.9697,-3.9697,-3.9697,-3.9697,-4.7205,-4.7324,-4.7645,-4.8224,-4.8956,-4.9087,-4.9636,-5.0446,-5.076,-5.0825,-5.0776,-5.0308,-4.9976,-4.9719,-4.959,-4.959,-4.9719,-5.0104,-5.0359,-5.0741,-5.1346,-5.1783,-5.2245,-5.2738,-5.301,-5.3193,-5.3349,-5.3254,-5.3193,-5.2738,-5.2368,-5.1934,-5.1434,-5.0931,-5.055,-5.0295,-5.0001,-4.9873,-4.9937,-5.0104,-5.0193,-5.0193,-5.0295,-5.0461,-5.0588,-5.0588,-5.0588,-5.0588,-5.0588,-5.0525,-5.0487,-5.0359,-5.0295,-5.0359,-5.0397,-5.0461,-5.0461,-5.0461,-5.0461,-5.0461,-5.0461,-5.0525,-5.0588,-5.0588,-5.0588,-5.0461,-5.0232,-5.004,-4.9847,-4.9654,-4.9783,-4.9912,-5.027,-5.0549,-5.0348,-5.0114,-4.9499,-4.8875,-4.8076,-4.7367,-4.6934,-4.6686,-4.6305,-4.5858,-4.5547,-4.5296,-4.492,-4.4342,-4.3865,-4.3539,-4.3338,-4.3187,-4.3112,-4.3062,-4.2986,-4.2886,-4.274,-4.2514,-4.2062,-4.148,-4.0978,-4.0576,-4.0249,-3.9973,-3.9873,-3.9772,-3.9697,-3.9697,-3.9697,-3.9697,-3.9697,-3.9697,-3.9697,-3.9697,-3.9697,-4.7383,-4.7619,-4.7938,-4.8192,-4.8433,-4.8878,-4.9218,-4.9557,-5.042,-5.0555,-5.0238,-5.0434,-5.0359,-4.9976,-4.9719,-4.9654,-4.9783,-5.0168,-5.0487,-5.0715,-5.1596,-5.2094,-5.2553,-5.2922,-5.3227,-5.3288,-5.3315,-5.3132,-5.2861,-5.243,-5.2059,-5.1659,-5.1309,-5.0804,-5.0257,-5.0065,-5.0001,-4.9937,-5.0104,-5.0295,-5.0677,-5.0677,-5.055,-5.0588,-5.0588,-5.0588,-5.0588,-5.0588,-5.0588,-5.0588,-5.0652,-5.0588,-5.0652,-5.0715,-5.0778,-5.0905,-5.0905,-5.0905,-5.0905,-5.0905,-5.0968,-5.0905,-5.0905,-5.0778,-5.0778,-5.0715,-5.0525,-5.0487,-5.0232,-4.9912,-4.9912,-5.004,-5.027,-5.0587,-5.0602,-5.0218,-4.9776,-4.8989,-4.8197,-4.7513,-4.69,-4.6601,-4.6336,-4.605,-4.5899,-4.5648,-4.5397,-4.4869,-4.4443,-4.4066,-4.3639,-4.3489,-4.3338,-4.3087,-4.2986,-4.2986,-4.2836,-4.2715,-4.2489,-4.1907,-4.1379,-4.0802,-4.0475,-4.0375,-4.0023,-3.9798,-3.9772,-3.9798,-3.9697,-3.9697,-3.9697,-3.9697,-3.9697,-3.9697,-3.9697]},{"header":{"parameterUnit":"m.s-1","parameterCategory":1,"la1":31.0,"la2":29.5877,"lo1":-88.7671,"lo2":-86.6584,"dy":0.0162,"dx":0.0185,"nx":115,"ny":88,"refTime":"2023-06-13T12:00:00:Z","depth":0,"parameterNumber":3,"parameterNumberName":"V-component_of_WINDS"},"data":[0.0,0.0,0.0,0.0,0.0,0.0,0.0,0.0,0.0,0.0,0.0,0.0,0.0,0.0,0.0,0.0,0.0,0.0,0.0,0.0,0.0,0.0,0.0,0.0,0.0,0.0,0.0,0.0,0.0,0.0,0.0,0.0,0.0,0.0,0.0,0.0,0.0,0.0,0.0,0.0,0.0,0.0,0.0,0.0,0.0,0.0,0.0,0.0,0.0,0.0,0.0,0.0,0.0,0.0,0.0,0.0,0.0,0.0,0.0,0.0,0.0,0.0,0.0,0.0,0.0,0.0,0.0,0.0,0.0,0.0,0.0,0.0,0.0,0.0,0.0,0.0,0.0,0.0,0.0,0.0,0.0,0.0,0.0,0.0,0.0,0.0,0.0,0.0,0.0,0.0,0.0,0.0,0.0,0.0,0.0,0.0,0.0,0.0,0.0,0.0,0.0,0.0,0.0,0.0,0.0,0.0,0.0,0.0,0.0,0.0,0.0,0.0,0.0,0.0,0.0,0.0,0.0,0.0,0.0,0.0,0.0,0.0,0.0,0.0,0.0,0.0,0.0,0.0,0.0,0.0,0.0,0.0,0.0,0.0,0.0,0.0,0.0,0.0,0.0,0.0,0.0,0.0,0.0,0.0,0.0,0.0,0.0,0.0,0.0,0.0,0.0,0.0,0.0,0.0,0.0,0.0,0.0,0.0,0.0,0.0,0.0,0.0,0.0,0.0,0.0,0.0,0.0,0.0,0.0,0.0,0.0,0.0,0.0,0.0,0.0,0.0,0.0,0.0,0.0,0.0,0.0,0.0,0.0,0.0,0.0,0.0,0.0,0.0,0.0,0.0,0.0,0.0,0.0,0.0,0.0,0.0,0.0,0.0,0.0,0.0,0.0,0.0,0.0,0.0,0.0,0.0,0.0,0.0,0.0,0.0,0.0,0.0,0.0,0.0,0.0,0.0,0.0,0.0,0.0,0.0,0.0,0.0,0.0,0.0,0.0,0.0,0.0,0.0,0.0,0.0,0.0,0.0,0.0,0.0,0.0,0.0,0.0,0.0,0.0,0.0,0.0,0.0,0.0,0.0,0.0,0.0,0.0,0.0,0.0,0.0,0.0,0.0,0.0,0.0,0.0,0.0,0.0,0.0,0.0,0.0,0.0,0.0,0.0,0.0,0.0,0.0,0.0,0.0,0.0,0.0,0.0,0.0,0.0,0.0,0.0,0.0,0.0,0.0,0.0,0.0,0.0,0.0,0.0,0.0,0.0,0.0,0.0,0.0,0.0,0.0,0.0,0.0,0.0,0.0,0.0,0.0,0.0,0.0,0.0,0.0,0.0,0.0,0.0,0.0,0.0,0.0,0.0,0.0,0.0,0.0,0.0,0.0,0.0,0.0,0.0,0.0,0.0,0.0,0.0,0.0,0.0,0.0,0.0,0.0,0.0,0.0,0.0,0.0,0.0,0.0,0.0,0.0,0.0,0.0,0.0,0.0,0.0,0.0,0.0,0.0,0.0,0.0,0.0,0.0,0.0,0.0,0.0,0.0,0.0,0.0,0.0,0.0,0.0,0.0,0.0,0.0,0.0,0.0,0.0,0.0,0.0,0.0,0.0,0.0,0.0,0.0,0.0,0.0,0.0,0.0,0.0,0.0,0.0,0.0,0.0,0.0,0.0,0.0,0.0,0.0,0.0,0.0,0.0,0.0,0.0,0.0,0.0,0.0,0.0,0.0,0.0,0.0,0.0,0.0,0.0,0.0,0.0,0.0,0.0,0.0,0.0,0.0,0.0,0.0,0.0,0.0,0.0,0.0,0.0,0.0,0.0,0.0,0.0,0.0,0.0,0.0,0.0,0.0,0.0,0.0,0.0,0.0,0.0,0.0,0.0,0.0,0.0,0.0,0.0,0.0,0.0,0.0,0.0,0.0,0.0,0.0,0.0,0.0,0.0,0.0,0.0,0.0,0.0,0.0,0.0,0.0,0.0,0.0,0.0,0.0,0.0,0.0,0.0,0.0,0.0,0.0,0.0,0.0,0.0,0.0,0.0,0.0,0.0,0.0,0.0,0.0,0.0,0.0,0.0,0.0,0.0,0.0,0.0,0.0,0.0,0.0,0.0,0.0,0.0,0.0,0.0,0.0,0.0,0.0,0.0,0.0,0.0,0.0,0.0,0.0,0.0,0.0,0.0,0.0,0.0,0.0,0.0,0.0,0.0,0.0,0.0,0.0,0.0,0.0,0.0,0.0,0.0,0.0,0.0,0.0,0.0,0.0,0.0,0.0,0.0,0.0,0.0,0.0,0.0,0.0,0.0,0.0,0.0,0.0,0.0,0.0,0.0,0.0,0.0,0.0,0.0,0.0,0.0,0.0,0.0,0.0,0.0,0.0,0.0,0.0,0.0,0.0,0.0,0.0,0.0,0.0,0.0,0.0,0.0,0.0,0.0,0.0,0.0,0.0,0.0,0.0,0.0,0.0,0.0,0.0,0.0,0.0,0.0,0.0,0.0,0.0,0.0,0.0,0.0,0.0,0.0,0.0,0.0,0.0,0.0,0.0,0.0,0.0,0.0,0.0,0.0,0.0,0.0,0.0,0.0,0.0,0.0,0.0,0.0,0.0,0.0,0.0,0.0,0.0,0.0,0.0,0.0,0.0,0.0,0.0,0.0,0.0,0.0,0.0,0.0,0.0,0.0,0.0,0.0,0.0,0.0,0.0,0.0,0.0,0.0,0.0,0.0,0.0,0.0,0.0,0.0,0.0,0.0,0.0,0.0,0.0,0.0,0.0,0.0,0.0,0.0,0.0,0.0,0.0,0.0,0.0,0.0,0.0,0.0,0.0,0.0,0.0,0.0,0.0,0.0,0.0,0.0,0.0,0.0,0.0,0.0,0.0,0.0,0.0,0.0,0.0,0.0,0.0,0.0,0.0,0.0,0.0,0.0,0.0,0.0,0.0,0.0,0.0,0.0,0.0,0.0,0.0,0.0,0.0,0.0,0.0,0.0,0.0,0.0,0.0,0.0,0.0,0.0,0.0,0.0,0.0,0.0,0.0,0.0,0.0,0.0,0.0,0.0,0.0,0.0,0.0,0.0,0.0,0.0,0.0,0.0,0.0,0.0,0.0,0.0,0.0,0.0,0.0,0.0,0.0,0.0,0.0,0.0,0.0,0.0,0.0,0.0,0.0,0.0,0.0,0.0,0.0,0.0,0.0,0.0,0.0,0.0,0.0,0.0,0.0,0.0,0.0,0.0,0.0,0.0,0.0,0.0,0.0,0.0,0.0,0.0,0.0,0.0,0.0,0.0,0.0,0.0,0.0,0.0,0.0,0.0,0.0,0.0,0.0,0.0,0.0,0.0,0.0,0.0,0.0,0.0,0.0,0.0,0.0,0.0,0.0,0.0,0.0,0.0,0.0,0.0,0.0,0.0,0.0,0.0,0.0,0.0,0.0,0.0,0.0,0.0,0.0,0.0,0.0,0.0,0.0,0.0,0.0,0.0,0.0,0.0,0.0,0.0,0.0,0.0,0.0,0.0,0.0,0.0,0.0,0.0,0.0,0.0,0.0,0.0,0.0,0.0,0.0,0.0,0.0,0.0,0.0,0.0,0.0,0.0,0.0,0.0,0.0,0.0,0.0,0.0,0.0,0.0,0.0,0.0,0.0,0.0,0.0,0.0,0.0,0.0,0.0,0.0,0.0,0.0,0.0,0.0,0.0,0.0,0.0,0.0,0.0,0.0,0.0,0.0,0.0,0.0,0.0,0.0,0.0,0.0,0.0,0.0,0.0,0.0,0.0,0.0,0.0,0.0,0.0,0.0,0.0,0.0,0.0,0.0,0.0,0.0,0.0,0.0,0.0,0.0,0.0,0.0,0.0,0.0,0.0,0.0,0.0,0.0,0.0,0.0,0.0,0.0,0.0,0.0,0.0,0.0,0.0,0.0,0.0,0.0,0.0,0.0,0.0,0.0,0.0,0.0,0.0,0.0,0.0,0.0,0.0,0.0,0.0,0.0,0.0,0.0,0.0,0.0,0.0,0.0,0.0,0.0,0.0,0.0,0.0,0.0,0.0,0.0,0.0,0.0,0.0,0.0,0.0,0.0,0.0,0.0,0.0,0.0,0.0,0.0,0.0,0.0,0.0,0.0,0.0,0.0,0.0,0.0,0.0,0.0,0.0,0.0,0.0,0.0,0.0,0.0,0.0,0.0,0.0,0.0,0.0,0.0,0.0,0.0,0.0,0.0,0.0,0.0,0.0,0.0,0.0,0.0,0.0,0.0,0.0,-2.5091,0.0,0.0,0.0,0.0,0.0,0.0,0.0,0.0,0.0,0.0,0.0,0.0,0.0,0.0,0.0,0.0,0.0,0.0,0.0,0.0,0.0,0.0,0.0,0.0,0.0,0.0,0.0,0.0,0.0,0.0,0.0,0.0,0.0,0.0,0.0,0.0,0.0,0.0,0.0,0.0,0.0,0.0,0.0,0.0,0.0,0.0,0.0,0.0,0.0,0.0,0.0,0.0,0.0,0.0,0.0,0.0,0.0,0.0,0.0,0.0,0.0,0.0,0.0,0.0,0.0,0.0,0.0,0.0,0.0,0.0,0.0,0.0,0.0,0.0,0.0,0.0,0.0,0.0,0.0,0.0,0.0,0.0,0.0,0.0,0.0,0.0,0.0,0.0,0.0,0.0,0.0,0.0,0.0,0.0,0.0,0.0,0.0,0.0,0.0,0.0,0.0,0.0,0.0,0.0,0.0,0.0,0.0,0.0,0.0,0.0,-2.9029,-2.8455,-2.8139,-2.7598,-2.6776,0.0,0.0,0.0,0.0,0.0,0.0,0.0,0.0,0.0,0.0,0.0,0.0,0.0,0.0,0.0,0.0,0.0,0.0,0.0,0.0,0.0,0.0,0.0,0.0,0.0,0.0,0.0,0.0,0.0,0.0,0.0,0.0,0.0,0.0,0.0,0.0,0.0,0.0,0.0,0.0,0.0,0.0,0.0,0.0,0.0,0.0,0.0,0.0,0.0,0.0,0.0,0.0,0.0,0.0,0.0,0.0,0.0,0.0,0.0,0.0,0.0,0.0,0.0,0.0,0.0,0.0,0.0,0.0,0.0,0.0,0.0,0.0,0.0,0.0,0.0,0.0,0.0,0.0,0.0,0.0,0.0,0.0,0.0,0.0,0.0,0.0,0.0,0.0,0.0,0.0,0.0,0.0,0.0,0.0,0.0,0.0,0.0,0.0,0.0,0.0,0.0,0.0,0.0,0.0,0.0,0.0,0.0,0.0,0.0,0.0,0.0,0.0,-2.9316,-2.897,-2.8626,0.0,0.0,0.0,0.0,0.0,0.0,0.0,0.0,0.0,0.0,0.0,0.0,0.0,0.0,0.0,0.0,0.0,0.0,0.0,0.0,0.0,0.0,0.0,0.0,0.0,0.0,0.0,0.0,0.0,0.0,0.0,0.0,0.0,0.0,0.0,0.0,0.0,0.0,0.0,0.0,0.0,0.0,0.0,0.0,0.0,0.0,0.0,0.0,0.0,0.0,0.0,0.0,0.0,0.0,0.0,0.0,0.0,0.0,0.0,0.0,0.0,0.0,0.0,0.0,0.0,0.0,0.0,0.0,0.0,0.0,0.0,0.0,0.0,0.0,0.0,0.0,0.0,0.0,0.0,0.0,0.0,0.0,0.0,0.0,0.0,0.0,0.0,0.0,0.0,0.0,0.0,0.0,0.0,0.0,0.0,0.0,0.0,0.0,0.0,0.0,0.0,0.0,0.0,0.0,0.0,0.0,0.0,0.0,0.0,0.0,-3.1242,-3.051,-3.1399,0.0,-2.9972,0.0,0.0,0.0,0.0,0.0,0.0,0.0,0.0,0.0,0.0,0.0,0.0,0.0,0.0,0.0,0.0,0.0,0.0,0.0,0.0,0.0,0.0,0.0,0.0,0.0,0.0,0.0,0.0,0.0,0.0,0.0,0.0,0.0,0.0,0.0,0.0,0.0,0.0,0.0,0.0,0.0,0.0,0.0,0.0,0.0,0.0,0.0,0.0,0.0,0.0,0.0,0.0,0.0,0.0,0.0,0.0,0.0,0.0,0.0,0.0,0.0,0.0,0.0,0.0,0.0,0.0,0.0,0.0,0.0,0.0,0.0,0.0,0.0,0.0,0.0,0.0,0.0,0.0,0.0,0.0,0.0,0.0,0.0,0.0,0.0,0.0,0.0,0.0,0.0,0.0,0.0,0.0,0.0,0.0,0.0,0.0,0.0,0.0,0.0,0.0,0.0,0.0,0.0,0.0,0.0,0.0,0.0,0.0,0.0,0.0,-3.2348,-3.2316,-3.2125,-3.1292,0.0,0.0,0.0,0.0,0.0,0.0,0.0,0.0,0.0,0.0,0.0,0.0,0.0,0.0,0.0,0.0,0.0,0.0,0.0,0.0,0.0,0.0,0.0,0.0,0.0,0.0,0.0,0.0,0.0,0.0,0.0,0.0,0.0,0.0,0.0,0.0,0.0,0.0,0.0,0.0,0.0,0.0,0.0,0.0,0.0,0.0,0.0,0.0,0.0,0.0,0.0,0.0,0.0,0.0,0.0,0.0,0.0,0.0,0.0,0.0,0.0,0.0,0.0,0.0,0.0,0.0,0.0,0.0,0.0,0.0,0.0,0.0,0.0,0.0,0.0,0.0,0.0,0.0,0.0,0.0,0.0,0.0,0.0,0.0,0.0,0.0,0.0,0.0,0.0,0.0,0.0,0.0,0.0,0.0,0.0,0.0,0.0,0.0,0.0,0.0,0.0,0.0,0.0,0.0,0.0,0.0,0.0,0.0,0.0,0.0,-3.3201,-3.3516,-3.4027,-3.2878,-3.1657,-3.0511,0.0,0.0,0.0,0.0,0.0,0.0,0.0,0.0,0.0,0.0,0.0,0.0,0.0,0.0,0.0,0.0,0.0,0.0,0.0,0.0,0.0,0.0,0.0,0.0,0.0,0.0,0.0,0.0,0.0,0.0,0.0,0.0,0.0,0.0,0.0,0.0,0.0,0.0,0.0,0.0,0.0,0.0,0.0,0.0,0.0,0.0,0.0,0.0,0.0,0.0,0.0,0.0,0.0,0.0,0.0,0.0,0.0,0.0,0.0,0.0,0.0,0.0,0.0,0.0,0.0,0.0,0.0,0.0,0.0,0.0,0.0,0.0,0.0,0.0,0.0,0.0,0.0,0.0,0.0,0.0,0.0,0.0,0.0,0.0,0.0,0.0,0.0,0.0,0.0,0.0,0.0,0.0,0.0,0.0,0.0,0.0,0.0,0.0,0.0,0.0,0.0,0.0,0.0,0.0,0.0,0.0,0.0,0.0,-3.2912,-3.3932,-3.4848,-3.5478,-3.408,-3.3053,0.0,0.0,0.0,0.0,0.0,0.0,0.0,0.0,0.0,0.0,0.0,0.0,0.0,0.0,0.0,0.0,0.0,0.0,0.0,0.0,0.0,0.0,0.0,0.0,0.0,0.0,0.0,0.0,0.0,0.0,0.0,0.0,0.0,0.0,0.0,0.0,0.0,0.0,0.0,0.0,0.0,0.0,0.0,0.0,0.0,0.0,0.0,0.0,0.0,0.0,0.0,0.0,0.0,0.0,0.0,0.0,0.0,0.0,0.0,0.0,0.0,0.0,0.0,0.0,0.0,0.0,0.0,0.0,0.0,0.0,0.0,0.0,0.0,0.0,0.0,0.0,0.0,0.0,0.0,0.0,0.0,0.0,0.0,0.0,0.0,0.0,0.0,0.0,0.0,0.0,0.0,0.0,0.0,0.0,0.0,0.0,0.0,0.0,0.0,0.0,0.0,0.0,0.0,0.0,0.0,0.0,0.0,0.0,0.0,-3.4048,-3.4961,-3.521,-3.476,-3.4299,-3.3599,0.0,0.0,0.0,0.0,0.0,0.0,0.0,0.0,0.0,0.0,0.0,0.0,0.0,0.0,0.0,0.0,0.0,0.0,0.0,0.0,0.0,0.0,0.0,0.0,0.0,0.0,0.0,0.0,0.0,0.0,0.0,0.0,0.0,0.0,0.0,0.0,0.0,0.0,0.0,0.0,0.0,0.0,0.0,0.0,0.0,0.0,0.0,0.0,0.0,0.0,0.0,0.0,0.0,0.0,0.0,0.0,0.0,0.0,0.0,0.0,0.0,0.0,0.0,0.0,0.0,0.0,0.0,0.0,0.0,0.0,0.0,0.0,0.0,0.0,0.0,0.0,0.0,0.0,0.0,0.0,0.0,0.0,0.0,0.0,0.0,0.0,0.0,0.0,0.0,0.0,0.0,0.0,0.0,0.0,0.0,0.0,0.0,0.0,0.0,0.0,0.0,0.0,0.0,0.0,0.0,0.0,0.0,0.0,0.0,-3.4697,0.0,-3.5324,-3.4724,-3.4667,-3.4056,0.0,0.0,0.0,0.0,0.0,0.0,0.0,0.0,0.0,0.0,0.0,0.0,0.0,0.0,0.0,0.0,0.0,0.0,0.0,0.0,0.0,0.0,0.0,0.0,0.0,0.0,0.0,0.0,0.0,0.0,0.0,0.0,0.0,0.0,0.0,0.0,0.0,0.0,0.0,0.0,0.0,0.0,0.0,0.0,0.0,0.0,0.0,0.0,0.0,0.0,0.0,0.0,0.0,0.0,0.0,0.0,0.0,0.0,0.0,0.0,0.0,0.0,0.0,0.0,0.0,0.0,0.0,0.0,0.0,0.0,0.0,0.0,0.0,0.0,0.0,0.0,0.0,0.0,0.0,0.0,0.0,0.0,0.0,0.0,0.0,0.0,0.0,0.0,0.0,0.0,0.0,0.0,0.0,0.0,0.0,0.0,0.0,0.0,0.0,0.0,0.0,0.0,0.0,0.0,0.0,0.0,0.0,0.0,-3.4489,-3.4697,-3.4991,-3.5344,-3.567,-3.5248,-3.4545,0.0,0.0,0.0,0.0,0.0,0.0,0.0,0.0,0.0,0.0,0.0,0.0,0.0,0.0,0.0,0.0,0.0,0.0,0.0,0.0,0.0,0.0,0.0,0.0,0.0,0.0,0.0,0.0,0.0,0.0,0.0,0.0,0.0,0.0,0.0,0.0,0.0,0.0,0.0,0.0,0.0,0.0,0.0,0.0,0.0,0.0,0.0,0.0,0.0,0.0,0.0,0.0,0.0,0.0,0.0,0.0,0.0,0.0,0.0,0.0,0.0,0.0,0.0,0.0,0.0,0.0,0.0,0.0,0.0,0.0,0.0,0.0,0.0,0.0,0.0,0.0,0.0,0.0,0.0,0.0,0.0,0.0,0.0,0.0,0.0,0.0,0.0,0.0,0.0,0.0,0.0,0.0,0.0,0.0,0.0,0.0,0.0,0.0,0.0,0.0,0.0,0.0,0.0,0.0,0.0,0.0,0.0,0.0,0.0,-3.4888,-3.5601,-3.5896,-3.5701,-3.5707,-3.5091,0.0,0.0,0.0,0.0,0.0,0.0,0.0,0.0,0.0,0.0,0.0,0.0,0.0,0.0,0.0,0.0,0.0,0.0,0.0,0.0,0.0,0.0,0.0,0.0,0.0,0.0,0.0,0.0,0.0,0.0,0.0,0.0,0.0,0.0,0.0,0.0,0.0,0.0,0.0,0.0,0.0,0.0,0.0,0.0,0.0,0.0,0.0,0.0,0.0,0.0,0.0,0.0,0.0,0.0,0.0,0.0,0.0,0.0,0.0,0.0,0.0,0.0,0.0,0.0,0.0,0.0,0.0,0.0,0.0,0.0,0.0,0.0,0.0,0.0,0.0,0.0,0.0,0.0,0.0,0.0,0.0,0.0,0.0,0.0,0.0,0.0,0.0,0.0,0.0,0.0,0.0,0.0,0.0,0.0,0.0,0.0,0.0,0.0,0.0,0.0,0.0,0.0,0.0,0.0,0.0,0.0,0.0,0.0,0.0,-3.6625,-3.6731,-3.6552,-3.6073,-3.6258,-3.582,-3.4666,0.0,0.0,0.0,0.0,0.0,0.0,0.0,0.0,0.0,0.0,0.0,0.0,0.0,0.0,0.0,0.0,0.0,0.0,0.0,0.0,0.0,0.0,0.0,0.0,0.0,0.0,0.0,0.0,0.0,0.0,0.0,0.0,0.0,0.0,0.0,0.0,0.0,0.0,0.0,0.0,0.0,0.0,0.0,0.0,0.0,0.0,0.0,0.0,0.0,0.0,0.0,0.0,0.0,0.0,0.0,0.0,0.0,0.0,0.0,0.0,0.0,0.0,0.0,0.0,0.0,0.0,0.0,0.0,0.0,0.0,0.0,0.0,0.0,0.0,0.0,0.0,0.0,0.0,0.0,0.0,0.0,0.0,0.0,0.0,0.0,0.0,0.0,0.0,0.0,0.0,0.0,0.0,0.0,0.0,0.0,0.0,0.0,0.0,0.0,0.0,0.0,0.0,0.0,0.0,0.0,0.0,0.0,0.0,-3.9451,-3.8287,-3.7463,-3.6971,-3.7084,-3.6795,0.0,0.0,0.0,0.0,0.0,0.0,0.0,0.0,0.0,0.0,0.0,0.0,0.0,0.0,0.0,0.0,0.0,0.0,0.0,0.0,0.0,0.0,0.0,0.0,0.0,0.0,0.0,0.0,0.0,0.0,0.0,0.0,0.0,0.0,0.0,0.0,0.0,0.0,0.0,0.0,0.0,0.0,0.0,0.0,0.0,0.0,0.0,0.0,0.0,0.0,0.0,0.0,0.0,0.0,0.0,0.0,0.0,0.0,0.0,0.0,0.0,0.0,0.0,0.0,0.0,0.0,0.0,0.0,0.0,0.0,0.0,0.0,0.0,0.0,0.0,0.0,0.0,0.0,0.0,0.0,0.0,0.0,0.0,0.0,0.0,0.0,0.0,0.0,0.0,0.0,0.0,0.0,0.0,0.0,0.0,0.0,0.0,0.0,0.0,0.0,0.0,0.0,0.0,0.0,0.0,0.0,0.0,0.0,0.0,-4.013,-4.0865,-4.069,-3.956,-3.8984,-3.826,0.0,0.0,0.0,0.0,0.0,0.0,0.0,0.0,0.0,0.0,0.0,0.0,0.0,0.0,0.0,0.0,0.0,0.0,0.0,0.0,0.0,0.0,0.0,0.0,0.0,0.0,0.0,0.0,0.0,0.0,0.0,0.0,0.0,0.0,0.0,0.0,0.0,0.0,0.0,0.0,0.0,0.0,0.0,0.0,0.0,0.0,0.0,0.0,0.0,0.0,0.0,0.0,0.0,0.0,0.0,0.0,0.0,0.0,0.0,0.0,0.0,0.0,0.0,0.0,0.0,0.0,0.0,0.0,0.0,0.0,0.0,0.0,0.0,0.0,0.0,0.0,0.0,0.0,0.0,0.0,0.0,0.0,0.0,0.0,0.0,0.0,0.0,0.0,0.0,0.0,0.0,0.0,0.0,0.0,0.0,0.0,0.0,0.0,0.0,0.0,0.0,0.0,0.0,0.0,0.0,0.0,0.0,0.0,-4.0394,-4.2167,-4.3315,-4.3702,-4.321,-4.151,-3.9939,0.0,0.0,0.0,0.0,0.0,0.0,0.0,0.0,0.0,0.0,0.0,0.0,0.0,0.0,0.0,0.0,0.0,0.0,0.0,0.0,0.0,0.0,0.0,0.0,0.0,0.0,0.0,0.0,0.0,0.0,0.0,0.0,0.0,0.0,0.0,0.0,0.0,0.0,0.0,0.0,0.0,0.0,0.0,0.0,0.0,0.0,0.0,0.0,0.0,0.0,0.0,0.0,0.0,0.0,0.0,0.0,0.0,0.0,0.0,0.0,0.0,0.0,0.0,0.0,0.0,0.0,0.0,0.0,0.0,0.0,0.0,0.0,0.0,0.0,0.0,0.0,0.0,0.0,0.0,0.0,0.0,0.0,0.0,0.0,0.0,0.0,0.0,0.0,0.0,0.0,0.0,0.0,0.0,0.0,0.0,0.0,0.0,0.0,0.0,0.0,0.0,0.0,0.0,0.0,0.0,0.0,0.0,0.0,-4.1734,-4.4624,-4.5511,-4.6216,-4.6764,-4.4072,-4.1809,0.0,0.0,0.0,0.0,0.0,0.0,0.0,0.0,0.0,0.0,0.0,0.0,0.0,0.0,0.0,0.0,0.0,0.0,0.0,0.0,0.0,0.0,0.0,0.0,0.0,0.0,0.0,0.0,0.0,0.0,0.0,0.0,0.0,0.0,0.0,0.0,0.0,0.0,0.0,0.0,0.0,0.0,0.0,0.0,0.0,0.0,0.0,0.0,0.0,0.0,0.0,0.0,0.0,0.0,0.0,0.0,0.0,0.0,0.0,0.0,0.0,0.0,0.0,0.0,0.0,0.0,0.0,0.0,0.0,0.0,0.0,0.0,0.0,0.0,0.0,0.0,0.0,0.0,0.0,0.0,0.0,0.0,0.0,0.0,0.0,0.0,0.0,0.0,0.0,0.0,0.0,0.0,0.0,0.0,0.0,0.0,0.0,0.0,0.0,0.0,0.0,0.0,0.0,0.0,0.0,0.0,0.0,0.0,-4.2255,-4.4624,-4.6366,-4.7119,-4.6888,-4.5079,-4.3591,0.0,0.0,0.0,0.0,0.0,0.0,0.0,0.0,0.0,0.0,0.0,0.0,0.0,0.0,0.0,0.0,0.0,0.0,0.0,0.0,0.0,0.0,0.0,0.0,0.0,0.0,0.0,0.0,0.0,0.0,0.0,0.0,0.0,0.0,0.0,0.0,0.0,0.0,0.0,0.0,0.0,0.0,0.0,0.0,0.0,0.0,0.0,0.0,-3.2049,0.0,0.0,0.0,0.0,0.0,0.0,0.0,0.0,0.0,0.0,0.0,0.0,0.0,0.0,0.0,0.0,0.0,0.0,0.0,0.0,0.0,0.0,0.0,0.0,0.0,0.0,0.0,0.0,0.0,0.0,0.0,0.0,0.0,0.0,0.0,0.0,0.0,0.0,0.0,0.0,0.0,0.0,0.0,0.0,0.0,0.0,0.0,0.0,0.0,0.0,0.0,0.0,0.0,0.0,0.0,0.0,0.0,0.0,0.0,-4.371,-4.6007,-4.7712,-4.8396,-4.8017,-4.67,-4.5141,0.0,0.0,0.0,0.0,0.0,0.0,0.0,0.0,0.0,0.0,0.0,0.0,0.0,0.0,0.0,0.0,0.0,0.0,0.0,0.0,0.0,0.0,0.0,0.0,0.0,0.0,0.0,0.0,0.0,0.0,0.0,0.0,0.0,0.0,0.0,0.0,0.0,0.0,0.0,0.0,0.0,0.0,0.0,0.0,0.0,0.0,0.0,0.0,0.0,0.0,0.0,0.0,0.0,0.0,0.0,0.0,0.0,0.0,0.0,0.0,0.0,0.0,0.0,0.0,0.0,0.0,0.0,0.0,0.0,0.0,0.0,0.0,0.0,0.0,0.0,0.0,0.0,0.0,0.0,0.0,0.0,0.0,0.0,0.0,0.0,0.0,0.0,0.0,0.0,0.0,0.0,0.0,0.0,0.0,0.0,0.0,0.0,0.0,0.0,0.0,0.0,0.0,0.0,0.0,0.0,0.0,0.0,-4.36,-4.5243,-4.7469,-4.8896,-4.9452,-4.9219,-4.8161,-4.6269,-4.354,0.0,0.0,0.0,0.0,0.0,0.0,0.0,0.0,0.0,0.0,0.0,0.0,0.0,0.0,0.0,0.0,0.0,0.0,0.0,0.0,0.0,0.0,0.0,0.0,0.0,0.0,0.0,0.0,0.0,0.0,0.0,0.0,0.0,0.0,0.0,0.0,0.0,0.0,-2.8936,-3.115,0.0,0.0,0.0,0.0,0.0,0.0,0.0,0.0,-3.3275,0.0,0.0,0.0,0.0,0.0,0.0,0.0,0.0,0.0,0.0,0.0,0.0,0.0,0.0,0.0,0.0,0.0,0.0,0.0,0.0,0.0,0.0,0.0,0.0,0.0,0.0,0.0,0.0,0.0,0.0,0.0,0.0,0.0,0.0,0.0,0.0,0.0,0.0,0.0,0.0,0.0,0.0,0.0,0.0,0.0,0.0,0.0,0.0,0.0,0.0,0.0,0.0,0.0,0.0,0.0,0.0,-4.2506,-4.4092,-4.5729,-4.7289,-4.8818,-4.9403,-4.9006,-4.7948,-4.6324,-4.4243,0.0,0.0,0.0,0.0,0.0,0.0,0.0,0.0,0.0,0.0,0.0,0.0,0.0,0.0,0.0,0.0,0.0,0.0,0.0,0.0,0.0,0.0,0.0,0.0,0.0,0.0,0.0,0.0,0.0,0.0,0.0,0.0,0.0,0.0,0.0,0.0,0.0,0.0,0.0,-3.2377,-3.3514,0.0,0.0,0.0,0.0,0.0,0.0,0.0,0.0,-3.4503,0.0,0.0,0.0,0.0,0.0,0.0,0.0,0.0,0.0,0.0,0.0,0.0,0.0,0.0,0.0,0.0,0.0,0.0,0.0,0.0,0.0,0.0,0.0,0.0,0.0,0.0,0.0,0.0,0.0,0.0,0.0,0.0,0.0,0.0,0.0,0.0,0.0,0.0,0.0,0.0,0.0,0.0,0.0,0.0,0.0,0.0,0.0,0.0,0.0,0.0,0.0,0.0,0.0,0.0,0.0,-4.2864,-4.4918,-4.6627,-4.786,-4.9237,-4.9706,-4.9128,-4.7948,-4.6305,0.0,0.0,0.0,0.0,0.0,0.0,0.0,0.0,0.0,0.0,0.0,0.0,0.0,0.0,0.0,0.0,0.0,0.0,0.0,0.0,0.0,0.0,0.0,0.0,0.0,0.0,0.0,0.0,0.0,0.0,0.0,0.0,0.0,0.0,0.0,0.0,0.0,0.0,0.0,0.0,-3.3395,-3.4144,-3.4474,0.0,0.0,0.0,0.0,0.0,0.0,-3.4803,-3.513,0.0,0.0,0.0,0.0,0.0,0.0,0.0,0.0,0.0,0.0,0.0,0.0,0.0,0.0,0.0,0.0,0.0,0.0,0.0,0.0,0.0,0.0,0.0,0.0,0.0,0.0,0.0,0.0,0.0,0.0,0.0,0.0,0.0,0.0,0.0,0.0,0.0,0.0,0.0,0.0,0.0,0.0,0.0,0.0,0.0,0.0,0.0,0.0,0.0,0.0,0.0,0.0,0.0,0.0,0.0,-4.3469,-4.5829,-4.7552,-4.8563,-4.9647,-4.9965,-4.9437,-4.7937,-4.6152,0.0,0.0,0.0,0.0,0.0,0.0,0.0,0.0,0.0,0.0,0.0,0.0,0.0,0.0,0.0,0.0,0.0,0.0,0.0,0.0,0.0,0.0,0.0,0.0,0.0,0.0,0.0,0.0,0.0,0.0,0.0,0.0,0.0,0.0,0.0,0.0,0.0,0.0,0.0,0.0,0.0,-3.4923,-3.4923,-3.534,0.0,0.0,0.0,0.0,-3.504,-3.5519,0.0,0.0,0.0,0.0,0.0,0.0,0.0,0.0,0.0,0.0,0.0,0.0,0.0,0.0,0.0,0.0,0.0,0.0,0.0,0.0,0.0,0.0,0.0,0.0,0.0,0.0,0.0,0.0,0.0,0.0,0.0,0.0,0.0,0.0,0.0,0.0,0.0,0.0,0.0,0.0,0.0,0.0,0.0,0.0,0.0,0.0,0.0,0.0,0.0,0.0,0.0,0.0,0.0,0.0,0.0,0.0,-4.4563,-4.6846,-4.844,-4.9239,-4.9701,-4.9918,-4.9885,-4.7802,-4.5852,0.0,0.0,0.0,0.0,0.0,0.0,0.0,0.0,0.0,0.0,0.0,0.0,0.0,0.0,0.0,0.0,0.0,0.0,0.0,0.0,0.0,0.0,0.0,0.0,0.0,0.0,0.0,0.0,0.0,0.0,0.0,0.0,0.0,0.0,0.0,0.0,0.0,0.0,0.0,0.0,0.0,-3.6267,-3.6267,-3.6327,-3.6357,0.0,0.0,-3.6447,-3.6985,-3.7135,0.0,0.0,0.0,0.0,0.0,0.0,0.0,0.0,0.0,0.0,0.0,0.0,0.0,0.0,0.0,0.0,0.0,0.0,0.0,0.0,0.0,0.0,0.0,0.0,0.0,0.0,0.0,0.0,0.0,0.0,0.0,0.0,0.0,0.0,0.0,0.0,0.0,0.0,0.0,0.0,0.0,0.0,0.0,0.0,0.0,0.0,0.0,0.0,0.0,0.0,0.0,0.0,0.0,0.0,0.0,-4.4077,-4.4757,-4.721,-4.8893,-4.9774,-4.9981,-5.0247,-5.0536,-4.7973,-4.5878,0.0,0.0,0.0,0.0,0.0,0.0,0.0,0.0,0.0,0.0,0.0,0.0,0.0,0.0,0.0,0.0,0.0,0.0,0.0,0.0,0.0,0.0,0.0,0.0,0.0,0.0,0.0,0.0,0.0,0.0,0.0,0.0,0.0,0.0,0.0,0.0,0.0,0.0,0.0,0.0,0.0,0.0,-3.6956,-3.7015,0.0,0.0,0.0,-3.7105,-3.7375,0.0,0.0,0.0,0.0,0.0,0.0,0.0,0.0,0.0,0.0,0.0,0.0,0.0,0.0,0.0,0.0,0.0,0.0,0.0,0.0,0.0,0.0,0.0,0.0,0.0,0.0,0.0,0.0,0.0,0.0,0.0,0.0,0.0,0.0,0.0,0.0,0.0,0.0,0.0,0.0,0.0,0.0,0.0,0.0,0.0,0.0,0.0,0.0,0.0,0.0,0.0,0.0,0.0,0.0,0.0,0.0,0.0,-4.5172,-4.7737,-4.9475,-5.0249,-5.0402,-5.0611,-5.1032,-4.8372,0.0,0.0,0.0,0.0,0.0,0.0,0.0,0.0,0.0,0.0,0.0,0.0,0.0,0.0,0.0,0.0,0.0,0.0,0.0,0.0,0.0,0.0,0.0,0.0,0.0,0.0,0.0,-2.8846,0.0,0.0,0.0,0.0,0.0,0.0,0.0,0.0,0.0,0.0,0.0,0.0,0.0,0.0,-3.6956,-3.7584,-3.7644,-3.7644,0.0,0.0,-3.7704,-3.7883,-3.8332,-3.8631,0.0,0.0,0.0,0.0,0.0,0.0,0.0,0.0,0.0,0.0,0.0,0.0,0.0,0.0,0.0,0.0,0.0,0.0,0.0,0.0,0.0,0.0,0.0,0.0,0.0,0.0,0.0,0.0,0.0,0.0,0.0,0.0,0.0,0.0,0.0,0.0,0.0,0.0,0.0,0.0,0.0,0.0,0.0,0.0,0.0,0.0,0.0,0.0,0.0,0.0,0.0,0.0,0.0,0.0,-4.5677,-4.6455,-4.8761,-5.0279,-5.0824,-5.1034,-5.118,-5.1232,-4.9029,-4.6881,0.0,0.0,0.0,0.0,0.0,0.0,0.0,0.0,0.0,0.0,0.0,0.0,0.0,0.0,0.0,0.0,0.0,0.0,0.0,0.0,0.0,0.0,0.0,0.0,0.0,0.0,0.0,0.0,0.0,0.0,0.0,0.0,0.0,0.0,0.0,0.0,0.0,0.0,0.0,0.0,0.0,-3.7584,-3.8242,-3.8332,-3.8332,0.0,-3.8332,-3.8542,-3.917,-3.932,-3.9313,-3.9313,0.0,0.0,0.0,0.0,0.0,0.0,0.0,0.0,0.0,0.0,0.0,0.0,0.0,0.0,0.0,0.0,0.0,0.0,0.0,0.0,0.0,0.0,0.0,0.0,0.0,0.0,0.0,0.0,0.0,0.0,0.0,0.0,0.0,0.0,0.0,0.0,0.0,0.0,0.0,0.0,0.0,0.0,0.0,0.0,0.0,0.0,0.0,0.0,0.0,0.0,0.0,0.0,0.0,-4.6186,-4.6401,-4.8959,-5.0485,-5.0897,-5.1218,-5.1523,-5.1855,-4.9413,-4.7294,0.0,0.0,0.0,0.0,0.0,0.0,0.0,0.0,0.0,0.0,0.0,0.0,0.0,0.0,0.0,0.0,0.0,0.0,0.0,0.0,0.0,0.0,0.0,0.0,0.0,0.0,0.0,0.0,-3.1958,-3.2646,-3.3366,0.0,0.0,0.0,0.0,0.0,0.0,0.0,0.0,0.0,0.0,-3.7793,-3.8871,-3.902,0.0,0.0,-3.902,-3.911,-3.9379,-3.9403,-3.9403,-3.9403,-3.9164,0.0,0.0,0.0,0.0,0.0,0.0,0.0,0.0,0.0,0.0,0.0,0.0,0.0,0.0,0.0,0.0,0.0,0.0,0.0,0.0,0.0,0.0,0.0,0.0,0.0,0.0,0.0,0.0,0.0,0.0,0.0,0.0,0.0,0.0,0.0,0.0,0.0,0.0,0.0,0.0,0.0,0.0,0.0,0.0,0.0,0.0,0.0,0.0,0.0,0.0,0.0,0.0,-4.6559,-4.6645,-4.9125,-5.0622,-5.1074,-5.1401,-5.1727,-5.1891,-4.9625,-4.7659,0.0,0.0,0.0,0.0,0.0,0.0,0.0,0.0,0.0,0.0,0.0,0.0,0.0,0.0,0.0,0.0,0.0,0.0,0.0,0.0,0.0,0.0,0.0,0.0,0.0,0.0,0.0,0.0,-3.3456,-3.4208,-3.4997,0.0,0.0,0.0,0.0,0.0,0.0,0.0,0.0,0.0,0.0,-3.7913,-3.9194,-3.9403,-3.9403,-3.9403,-3.9403,-3.9403,-3.9403,-3.9403,-3.9403,-3.9403,0.0,0.0,0.0,0.0,0.0,0.0,0.0,0.0,0.0,0.0,0.0,0.0,0.0,0.0,0.0,0.0,0.0,0.0,0.0,0.0,0.0,0.0,0.0,0.0,0.0,0.0,0.0,-3.8871,0.0,0.0,-4.0398,0.0,0.0,0.0,0.0,0.0,0.0,0.0,0.0,0.0,0.0,0.0,0.0,0.0,0.0,0.0,0.0,0.0,0.0,0.0,0.0,0.0,0.0,-4.676,-4.7378,-4.9359,-5.0758,-5.1422,-5.1691,-5.1684,-5.1462,-4.9766,-4.7914,-4.6152,0.0,0.0,0.0,0.0,0.0,0.0,0.0,0.0,0.0,0.0,0.0,0.0,0.0,0.0,0.0,0.0,0.0,0.0,0.0,0.0,0.0,0.0,0.0,0.0,0.0,0.0,-3.3849,-3.4331,-3.5058,0.0,0.0,0.0,0.0,0.0,0.0,0.0,0.0,0.0,-3.7255,-3.7404,-3.7913,-3.9194,-3.9403,-3.9403,-3.9403,-3.9403,-3.9403,-3.9403,-3.9403,-3.9403,0.0,0.0,0.0,0.0,0.0,0.0,0.0,0.0,0.0,0.0,0.0,0.0,0.0,0.0,0.0,0.0,0.0,0.0,0.0,0.0,0.0,0.0,0.0,0.0,0.0,0.0,0.0,-4.1702,-4.2075,0.0,0.0,0.0,0.0,0.0,0.0,0.0,0.0,0.0,0.0,0.0,-4.6853,-4.78,0.0,0.0,0.0,0.0,0.0,0.0,0.0,0.0,0.0,0.0,0.0,0.0,-4.6486,-4.7258,-4.9227,-5.0553,-5.1175,-5.1583,-5.1614,-5.128,-4.966,-4.7501,-4.4814,0.0,0.0,0.0,0.0,0.0,0.0,0.0,0.0,0.0,0.0,0.0,0.0,0.0,0.0,0.0,0.0,0.0,0.0,0.0,0.0,0.0,0.0,0.0,0.0,0.0,-3.5675,0.0,0.0,0.0,0.0,0.0,0.0,0.0,0.0,0.0,0.0,-3.6656,-3.6926,-3.7345,-3.7793,-3.8392,-3.929,-3.9403,-3.9403,0.0,0.0,0.0,0.0,0.0,0.0,0.0,0.0,0.0,0.0,0.0,0.0,0.0,0.0,-4.0457,-3.9553,-3.923,-3.914,-3.9343,0.0,0.0,0.0,0.0,0.0,0.0,0.0,0.0,0.0,0.0,0.0,0.0,0.0,0.0,-4.5198,-4.5477,-4.4863,0.0,0.0,0.0,0.0,0.0,0.0,0.0,0.0,-4.7496,-4.8342,-4.9055,-5.0101,-5.0033,-4.9055,-4.8815,-4.7635,0.0,0.0,0.0,0.0,0.0,0.0,0.0,0.0,-4.6597,-4.7798,-4.9292,-5.0476,-5.1221,-5.1459,-5.1424,-5.0946,-4.8957,-4.6775,-4.4464,-4.3482,-4.2753,0.0,0.0,0.0,0.0,0.0,0.0,0.0,0.0,0.0,0.0,0.0,0.0,0.0,0.0,0.0,0.0,0.0,0.0,0.0,0.0,0.0,0.0,0.0,-3.6838,0.0,0.0,0.0,0.0,0.0,0.0,0.0,0.0,0.0,-3.7094,-3.7169,-3.7494,-3.7734,-3.8123,-3.8631,-3.9284,0.0,0.0,0.0,0.0,0.0,0.0,0.0,-4.0247,-4.0666,-4.0726,-4.0876,-4.1324,-4.1422,-4.1422,-4.1422,0.0,0.0,-3.9978,-3.9589,-3.9463,-3.9709,-3.9589,-3.9559,-4.0008,-4.0098,-3.9978,0.0,0.0,0.0,0.0,-4.7757,0.0,0.0,0.0,-4.9086,-4.9021,0.0,-4.8277,0.0,0.0,0.0,0.0,-4.5771,-4.5805,0.0,0.0,-4.9492,-5.0574,-5.1354,-5.2808,-5.274,-5.1286,-5.0543,-4.9364,-4.7695,-4.6249,0.0,0.0,0.0,0.0,0.0,0.0,-4.7067,-4.8994,-4.9651,-5.053,-5.1762,-5.1387,-5.094,-5.039,-4.775,-4.5884,-4.5067,-4.3821,-4.3136,-4.3074,-4.3712,0.0,0.0,0.0,0.0,0.0,0.0,0.0,0.0,0.0,0.0,0.0,0.0,0.0,0.0,0.0,0.0,0.0,0.0,0.0,0.0,-3.7437,0.0,0.0,0.0,0.0,0.0,0.0,0.0,0.0,0.0,-3.9106,-3.7926,-3.7661,-3.7704,-3.8332,0.0,0.0,0.0,0.0,-4.0427,-4.0427,-4.0965,-4.1392,-4.1392,-4.1354,-4.1392,-4.1422,0.0,0.0,-4.1444,-4.1482,-4.1512,-4.1482,-4.1504,-4.1235,-4.0606,-4.0008,-3.9738,-4.0307,-3.9978,-3.9948,-4.1025,-4.1235,-4.1265,-5.4897,0.0,0.0,0.0,0.0,-5.0207,-5.0612,-5.1352,-5.1352,-5.1352,-5.1319,-5.0574,0.0,0.0,0.0,0.0,0.0,0.0,-4.8342,-5.0238,-5.1251,-5.2267,-5.3449,-5.4426,-5.4289,-5.3209,-5.2437,-5.1296,-4.9821,-4.8721,-4.735,-4.5768,0.0,0.0,0.0,0.0,-4.7902,-4.8892,-4.9939,-5.1001,-5.2064,-5.1198,-5.0115,-4.8899,-4.7632,-4.6195,-4.4526,-4.4058,-4.3444,-4.2529,-4.3074,0.0,0.0,0.0,0.0,0.0,0.0,0.0,0.0,0.0,0.0,0.0,0.0,0.0,0.0,0.0,0.0,0.0,0.0,0.0,-3.8529,-3.8541,-3.8635,0.0,0.0,0.0,0.0,0.0,0.0,0.0,0.0,0.0,-3.9395,-3.9129,-3.9043,0.0,0.0,-4.0606,-4.0786,-4.0995,-4.1085,-4.1153,-4.1265,0.0,-4.1422,-4.1422,-4.1534,-4.2051,-4.2462,-4.2791,-4.2761,-4.2722,-4.2791,-4.2722,-4.2761,-4.2581,-4.1923,-4.1265,-4.0905,-4.1055,-4.0935,-4.0905,-4.1294,-4.1422,-4.1452,-6.0723,-5.6968,-5.4499,-5.3416,-5.3416,-5.3416,-5.3856,-5.4499,-5.4532,-5.4532,-5.4431,-5.345,-5.2334,-5.115,-4.983,0.0,0.0,0.0,-5.0879,-5.301,-5.3687,-5.4697,-5.6039,-5.6704,-5.656,-5.5713,-5.4711,-5.3571,-5.2296,-5.1159,-4.9993,-4.8726,0.0,-4.6967,-4.7234,-4.8033,-4.8993,-5.0008,-5.0648,-5.1424,-5.232,-5.0898,-4.9564,-4.8385,-4.7497,-4.6437,-4.5181,-4.4595,-4.3988,-4.3198,-4.342,-4.3555,0.0,0.0,0.0,0.0,0.0,0.0,0.0,0.0,0.0,0.0,0.0,-4.1399,-4.1103,0.0,0.0,0.0,-4.048,-3.9909,-3.9077,-3.9459,0.0,0.0,0.0,0.0,0.0,0.0,0.0,-4.0824,-4.1255,-4.134,-4.0692,-4.0764,-4.0708,-4.0284,-4.0905,-4.1422,-4.1422,0.0,-4.1811,-4.1811,-4.1983,-4.2162,-4.2162,-4.2162,-4.2282,-4.2671,-4.306,-4.329,-4.329,-4.329,-4.329,-4.329,-4.329,-4.321,-4.2821,-4.2432,-4.2043,-4.1833,-4.1811,-4.1833,-4.2102,-4.2132,-4.2162,-6.5595,-6.4444,-5.9674,-5.7543,-5.7239,-5.7239,-5.7645,-5.8254,-5.8254,-5.8152,-5.7983,-5.6664,-5.5547,-5.4566,-5.2503,0.0,-5.1591,-5.2301,-5.3822,-5.5952,-5.6448,-5.7416,-5.8724,-5.9237,-5.9126,-5.838,-5.7014,-5.5903,-5.4985,-5.3554,-5.2784,-5.2608,-4.9889,-4.8796,-4.9359,-4.9425,-5.0316,-5.2017,-5.1712,-5.1868,-5.2452,-5.0653,-4.9362,-4.8613,-4.7357,-4.6587,-4.6478,-4.5292,-4.4599,-4.4479,-4.433,-4.4258,-4.4228,0.0,0.0,0.0,0.0,0.0,0.0,0.0,0.0,0.0,0.0,0.0,0.0,0.0,0.0,0.0,-4.0257,0.0,-3.9742,-4.0255,0.0,0.0,0.0,-4.2649,-4.2468,-4.2613,-4.2576,-4.2212,0.0,0.0,-4.1844,-4.2311,-4.2385,-4.1662,-4.1534,-4.1534,-4.1534,-4.2073,-4.247,-4.247,-4.294,-4.329,-4.317,-4.317,-4.32,-4.323,-4.329,-4.329,-4.329,-4.329,-4.329,-4.329,-4.329,-4.329,-4.329,-4.323,-4.311,-4.259,-4.247,-4.2611,-4.305,-4.32,-4.317,-6.8335,-6.7015,-6.5764,-6.3632,-6.1061,-6.1061,-6.1163,-6.1298,-6.1298,-6.0655,-5.9573,-5.9201,-5.7712,-5.5412,-5.4905,-5.4634,-5.4633,-5.5237,-5.6379,-5.7928,-5.7939,-5.8356,-5.9109,-5.9197,-5.9079,-5.8727,-5.7864,-5.7293,-5.7022,-5.5591,-5.4895,-5.4792,-5.3599,-5.2506,-5.1645,-5.2108,-5.2458,-5.2622,-5.2764,-5.2444,-5.1623,-5.0653,-4.9738,-4.8925,-4.7744,-4.6646,-4.5657,-4.5327,-4.4668,-4.3668,-4.3765,-4.3832,-4.3832,-4.3388,0.0,0.0,0.0,0.0,0.0,0.0,0.0,0.0,0.0,-4.4362,-4.4325,0.0,-4.4138,0.0,-4.2629,-4.1864,-4.1556,-4.1559,0.0,0.0,-4.19,-4.2101,-4.2034,-4.2071,-4.2071,-4.1991,-4.2296,-4.2485,-4.2401,-4.2818,-4.3069,-4.288,-4.2851,-4.288,-4.288,-4.2961,-4.309,-4.309,-4.317,-4.329,-4.329,-4.329,-4.329,-4.329,-4.329,-4.329,-4.329,-4.329,-4.329,-4.329,-4.329,-4.329,-4.329,-4.329,-4.326,-4.312,-4.309,-4.311,-4.326,-4.329,-4.329,-6.9648,-6.8604,-6.857,-6.7223,-6.4967,-6.4228,-6.3666,-6.3362,-6.3362,-6.2888,-6.2076,-6.1283,-5.9452,-5.6982,-5.7251,-5.7217,-5.6982,-5.7544,-5.8614,-6.0024,-5.9822,-6.0231,-6.115,-6.0736,-6.048,-6.0324,-5.9264,-5.8767,-5.8701,-5.7641,-5.7077,-5.7077,-5.6349,-5.5714,-5.5142,-5.4212,-5.3766,-5.3793,-5.3776,-5.3118,-5.1829,-5.0919,-4.9983,-4.9009,-4.7985,-4.6886,-4.5783,-4.5454,-4.4825,-4.3798,-4.3858,-4.3938,-4.3938,-4.3997,-4.4055,0.0,0.0,0.0,0.0,0.0,0.0,0.0,0.0,0.0,0.0,0.0,-4.439,-4.3746,-4.3047,-4.2468,-4.2028,-4.2227,-4.2334,-4.2138,-4.2569,-4.2826,-4.2712,-4.2712,-4.2674,-4.253,-4.2745,-4.2908,-4.2908,-4.3129,-4.329,-4.329,-4.329,-4.329,-4.329,-4.329,-4.329,-4.329,-4.329,-4.329,-4.329,-4.329,-4.329,-4.329,-4.329,-4.329,-4.329,-4.329,-4.329,-4.329,-4.329,-4.329,-4.329,-4.329,-4.329,-4.329,-4.329,-4.329,-4.329,-4.329,-4.329,-7.0214,-6.9544,-6.9544,-6.9142,-6.8305,-6.6727,-6.5613,-6.4937,-6.4836,-6.4735,-6.4566,-6.2939,-6.0958,-5.8891,-5.9695,-5.9594,-5.8891,-5.9695,-6.0732,-6.1896,-6.1724,-6.2299,-6.3506,-6.2638,-6.2221,-6.2155,-6.0788,-6.0084,-6.0084,-5.9315,-5.8951,-5.8918,-5.8224,-5.8078,-5.8404,-5.5922,-5.482,-5.5149,-5.4659,-5.3798,-5.2547,-5.1432,-5.0279,-4.9205,-4.8235,-4.7284,-4.6394,-4.5753,-4.5125,-4.4496,-4.4436,-4.4436,-4.4466,-4.4975,-4.5274,0.0,-4.4888,0.0,0.0,0.0,0.0,0.0,0.0,0.0,0.0,-4.453,-4.4053,-4.3195,-4.2811,-4.245,-4.1995,-4.2622,-4.2954,-4.2831,-4.343,-4.3832,-4.3675,-4.3636,-4.3557,-4.3329,-4.329,-4.329,-4.326,-4.329,-4.329,-4.329,-4.329,-4.329,-4.329,-4.329,-4.329,-4.329,-4.329,-4.329,-4.329,-4.329,-4.329,-4.329,-4.329,-4.329,-4.329,-4.329,-4.329,-4.329,-4.329,-4.329,-4.329,-4.329,-4.329,-4.329,-4.329,-4.329,-4.329,-4.329,-4.329,-7.0937,-7.0314,-7.0314,-6.9879,-6.9109,-6.8194,-6.7399,-6.6695,-6.6091,-6.5487,-6.4883,-6.3961,-6.2613,-6.12,-6.2472,-6.2338,-6.1133,-6.2307,-6.2957,-6.3224,-6.3012,-6.3093,-6.3292,-6.2553,-6.2221,-6.2113,-6.1117,-6.0562,-6.0529,-5.967,-5.9225,-5.9192,-5.8462,-5.8167,-5.8215,0.0,0.0,0.0,-5.4931,-5.4008,-5.3234,-5.2069,-5.1072,-5.0062,-4.8988,0.0,-4.6605,-4.6256,-4.5813,-4.5155,-4.5125,0.0,0.0,0.0,0.0,0.0,0.0,0.0,0.0,0.0,0.0,0.0,-4.5861,-4.6191,-4.6987,-4.6147,-4.5384,-4.4887,-4.4004,-4.343,-4.3352,-4.3286,-4.3229,-4.3189,-4.3349,-4.3409,-4.3369,-4.3399,-4.3359,-4.329,-4.329,-4.329,-4.329,-4.329,-4.329,-4.329,-4.329,-4.329,-4.329,-4.329,-4.329,-4.329,-4.329,-4.329,-4.329,-4.329,-4.329,-4.329,-4.329,-4.329,-4.329,-4.329,-4.329,-4.329,-4.329,-4.329,-4.329,-4.329,-4.329,-4.329,-4.329,-4.329,-4.329,-4.329,-4.329,-7.0842,-7.0176,-7.0176,-6.9943,0.0,-6.8811,-6.8078,-6.7345,-6.6477,-6.5651,-6.4853,-6.4452,-6.36,-6.2516,-6.3282,-6.3215,-6.2516,-6.3197,-6.36,-6.3802,-6.3671,-6.3782,-6.3946,-6.2903,-6.2408,-6.2375,-6.1159,-6.0548,-6.0515,-6.006,-5.9821,-5.9821,-5.9007,-5.8684,-5.8916,-5.8001,-5.6904,-5.5665,-5.5069,-5.4246,-5.3246,-5.2242,-5.1243,-5.0188,-4.9125,0.0,0.0,0.0,0.0,0.0,0.0,0.0,0.0,-4.6112,0.0,-4.6292,-4.6292,-4.6292,-4.6292,-4.6473,-4.6641,-4.6724,-4.6974,-4.7068,-4.7029,-4.6304,-4.5611,-4.5029,-4.4458,-4.3997,-4.3548,-4.3399,-4.329,-4.329,-4.329,-4.329,-4.329,-4.329,-4.329,-4.329,-4.329,-4.329,-4.329,-4.329,-4.329,-4.329,-4.329,-4.329,-4.329,-4.329,-4.329,-4.329,-4.329,-4.329,-4.329,-4.329,-4.329,-4.329,-4.329,-4.329,-4.329,-4.329,-4.329,-4.329,-4.329,-4.329,-4.329,-4.329,-4.329,-4.326,-4.306,-4.288,-4.288,-4.309,-4.329,-7.0593,-6.9798,-6.9798,-6.9798,-6.9732,-6.9003,-6.8208,-6.7347,-6.639,0.0,0.0,-6.4837,-6.4308,-6.3514,-6.3603,-6.357,-6.3428,-6.356,-6.3793,-6.412,-6.412,-6.4326,-6.4604,-6.3228,-6.2617,-6.2551,-6.1055,-6.0368,-6.0335,-6.0249,-6.0206,-6.013,-5.9361,-5.9101,-5.9311,-5.8186,-5.6802,-5.5291,-5.5065,-5.4361,-5.3042,-5.2188,-5.1203,-5.0042,-4.9202,-4.8079,-4.6604,-4.6501,-4.6232,-4.5693,-4.6202,-4.6459,-4.6531,-4.701,-4.7309,-4.7309,-4.7309,-4.7309,-4.7309,-4.7482,-4.7538,-4.7538,-4.7752,-4.7467,-4.6508,-4.6204,-4.5636,-4.481,-4.4589,-4.4178,-4.3349,-4.329,-4.329,-4.329,-4.329,-4.329,-4.329,-4.329,-4.329,-4.329,-4.329,-4.329,-4.329,-4.329,-4.329,-4.329,-4.329,-4.329,-4.329,-4.329,-4.323,-4.315,-4.306,-4.308,-4.311,-4.312,-4.317,-4.326,-4.329,-4.329,-4.329,-4.329,-4.329,-4.329,-4.329,-4.329,-4.329,-4.317,-4.311,-4.311,-4.2641,-4.2231,-4.2261,-4.2611,-4.291,-7.1024,-6.9798,-6.9798,-6.9798,-6.9732,-6.9003,-6.791,-6.6618,-6.5801,-6.5448,-6.5304,-6.5304,-6.4906,-6.4266,-6.4862,-6.4663,-6.3957,-6.4551,-6.4745,-6.4584,-6.4584,-6.4649,-6.4604,-6.3273,-6.2617,-6.2474,-6.0925,-6.0152,-6.0109,-5.9684,-5.9464,-5.9419,-5.9145,-5.8786,-5.8441,-5.8056,-5.7105,-5.5642,-5.4864,-5.3961,-5.2774,-5.2426,-5.1483,-5.0059,-4.9656,-4.8815,-4.7478,-4.7246,-4.713,-4.704,-4.713,-4.716,-4.716,-4.7249,-4.7309,-4.7309,-4.7309,-4.7309,-4.7309,-4.7352,-4.7352,-4.7352,-4.7396,-4.7392,-4.7395,-4.6852,-4.6135,-4.5297,-4.4717,-4.4047,-4.3409,-4.3319,-4.329,-4.329,-4.329,-4.329,-4.329,-4.329,-4.329,-4.329,-4.329,-4.329,-4.329,-4.329,-4.329,-4.329,-4.329,-4.329,-4.329,-4.329,-4.309,-4.2641,-4.253,-4.256,-4.2641,-4.256,-4.2791,-4.323,-4.329,-4.329,-4.329,-4.329,-4.329,-4.329,-4.326,-4.323,-4.323,-4.2851,-4.2581,-4.25,-4.2021,-4.1572,-4.1534,-4.1624,-4.1683,-7.1123,-6.9864,-6.9798,-6.9798,-6.9699,-6.8572,-6.7744,-6.697,-6.5787,-6.5291,-6.5425,-6.5425,-6.5227,-6.4995,-6.5159,-6.5024,-6.4605,-6.4799,-6.4748,-6.4518,-6.4379,-6.424,-6.4002,-6.289,-6.2164,-6.1744,-6.0606,-5.9851,-5.9528,-5.9241,-5.9152,-5.9107,-5.8746,-5.8303,-5.7793,-5.7417,-5.6696,-5.5731,-5.4962,-5.399,-5.2872,-5.2246,-5.1213,-4.9807,-4.9568,-4.8803,-4.7469,-4.7352,-4.7309,-4.7309,-4.7309,-4.7309,-4.7309,-4.7309,-4.7309,-4.7309,-4.7309,-4.7309,-4.7309,-4.7309,-4.7309,-4.7309,-4.7309,-4.7352,-4.7409,-4.7182,-4.6689,-4.5903,-4.5244,-4.4586,-4.3888,-4.3499,-4.329,-4.329,-4.329,-4.329,-4.329,-4.329,-4.329,-4.329,-4.329,-4.329,-4.329,-4.329,-4.329,-4.329,-4.329,-4.329,-4.329,-4.329,-4.32,-4.294,-4.288,-4.288,-4.288,-4.288,-4.303,-4.329,-4.329,-4.329,-4.329,-4.329,-4.329,-4.326,-4.306,-4.2851,-4.2821,-4.2282,-4.1961,-4.1811,-4.1294,-4.0905,-4.0816,-4.0576,-4.0576,-7.1123,-6.9798,-6.9751,-6.9703,-6.949,-6.8055,-6.7427,-6.7295,-6.5725,-6.5066,-6.5213,-6.5246,-6.5246,-6.5246,-6.5099,-6.4963,-6.4918,-6.4656,-6.4379,-6.4146,-6.3912,-6.3675,-6.342,-6.2555,-6.182,-6.1308,-6.0544,-5.9859,-5.9425,-5.9302,-5.9083,-5.8864,-5.826,-5.7746,-5.7353,-5.6844,-5.6309,-5.5691,-5.5017,-5.4124,-5.2957,-5.1981,-5.0938,-4.9855,-4.9479,-4.876,-4.7608,-4.7399,-4.7309,-4.7309,-4.7309,-4.7309,-4.7309,-4.7309,-4.7309,-4.7309,-4.7309,-4.7309,-4.7309,-4.7309,-4.7309,-4.7309,-4.7309,-4.7309,-4.7309,-4.7309,-4.704,-4.6381,-4.5813,-4.5274,-4.4616,-4.4107,-4.3678,-4.3559,-4.3499,-4.3469,-4.3319,-4.329,-4.329,-4.329,-4.329,-4.329,-4.329,-4.329,-4.329,-4.329,-4.329,-4.329,-4.329,-4.329,-4.329,-4.326,-4.317,-4.306,-4.312,-4.309,-4.312,-4.323,-4.329,-4.329,-4.329,-4.329,-4.329,-4.323,-4.2791,-4.253,-4.2351,-4.1683,-4.1265,-4.1115,-4.0636,-4.0187,-4.0157,-3.9858,-3.9738,-7.1156,-6.985,-6.9559,-6.9285,-6.8927,-6.7582,-6.6992,-6.6795,-6.5371,-6.4748,-6.4793,-6.4793,-6.4793,-6.4761,-6.4748,-6.461,-6.4347,-6.4146,-6.3944,-6.3675,-6.3389,-6.3276,-6.3164,-6.246,-6.2076,-6.1822,-6.1026,-6.0534,-6.0328,-5.998,-5.941,-5.8544,-5.7633,-5.7115,-5.6748,-5.6537,-5.6115,-5.561,-5.4926,-5.399,-5.2657,-5.17,-5.087,-5.0182,-4.9553,-4.897,-4.8177,-4.7608,-4.7309,-4.7309,-4.7309,-4.7309,-4.7309,-4.7309,-4.7309,-4.7309,-4.7309,-4.7309,-4.7309,-4.7309,-4.7309,-4.7309,-4.7309,-4.7309,-4.7309,-4.7309,-4.704,-4.6501,-4.6249,-4.5873,-4.5304,-4.5095,-4.4766,-4.4287,-4.4227,-4.3947,-4.3499,-4.329,-4.329,-4.329,-4.3319,-4.329,-4.329,-4.329,-4.329,-4.329,-4.329,-4.329,-4.329,-4.329,-4.329,-4.32,-4.288,-4.262,-4.262,-4.25,-4.2821,-4.32,-4.329,-4.329,-4.329,-4.329,-4.329,-4.323,-4.2731,-4.2351,-4.2051,-4.1452,-4.0516,-4.0427,-4.0038,-3.9523,-3.9493,-3.9433,-3.9589,-7.0684,-6.9318,-6.9188,-6.9091,-6.8863,-6.7912,-6.7257,-6.6766,-6.5643,-6.4864,-6.4426,-6.4193,-6.4286,-6.4702,-6.4564,-6.4333,-6.41,-6.3865,-6.3628,-6.3373,-6.2954,-6.2759,-6.2646,-6.2098,-6.1603,-6.1225,-6.0795,-6.0432,-6.0007,-5.9767,-5.9131,-5.8151,-5.7682,-5.7131,-5.6323,-5.6077,-5.583,-5.5601,-5.4799,-5.389,-5.299,-5.2174,-5.1289,-5.0255,-4.9613,-4.9,-4.8297,-4.7668,-4.7309,-4.7309,-4.7309,-4.7309,-4.7309,-4.7309,-4.7309,-4.7309,-4.7309,-4.7309,-4.7309,-4.7309,-4.7309,-4.7309,-4.7309,-4.7309,-4.7309,-4.7309,-4.7189,-4.692,-4.6561,-4.6202,-4.5933,-4.5544,-4.5185,-4.4945,-4.4885,-4.4766,-4.4526,-4.4137,-4.3928,-4.3858,-4.3529,-4.3319,-4.329,-4.329,-4.329,-4.329,-4.329,-4.329,-4.329,-4.329,-4.329,-4.326,-4.309,-4.297,-4.291,-4.294,-4.306,-4.32,-4.329,-4.329,-4.329,-4.329,-4.329,-4.329,-4.2491,-4.1931,-4.1782,-4.0756,-3.9828,-3.9768,-3.9738,-3.9403,-3.9403,-3.9403,-3.9403,-7.0337,-6.9092,-6.8945,-6.8797,-6.8634,-6.79,-6.7183,-6.637,-6.5463,-6.4654,-6.3991,-6.3628,-6.377,-6.424,-6.41,-6.3912,-6.3723,-6.3437,-6.3148,-6.2954,-6.2432,-6.2184,-6.2135,-6.1784,-6.1333,-6.0958,-6.0796,-6.0415,-5.9768,-5.9421,-5.885,-5.7967,-5.7641,-5.6965,-5.599,-5.5681,-5.5581,-5.5451,-5.48,-5.4072,-5.3234,-5.2725,-5.1828,-5.0554,-4.9883,-4.9224,-4.8566,-4.7908,-4.7489,-4.7309,-4.7309,-4.7309,-4.7309,-4.7309,-4.7309,-4.7309,-4.7309,-4.7309,-4.7309,-4.7309,-4.7309,-4.7309,-4.7309,-4.7309,-4.7309,-4.7309,-4.7309,-4.7249,-4.6817,-4.6578,-4.6488,-4.6142,-4.5813,-4.5633,-4.5574,-4.5514,-4.5274,-4.4825,-4.4586,-4.4526,-4.4047,-4.3469,-4.3349,-4.329,-4.329,-4.329,-4.329,-4.329,-4.329,-4.329,-4.329,-4.329,-4.329,-4.329,-4.329,-4.326,-4.329,-4.329,-4.329,-4.329,-4.329,-4.329,-4.329,-4.317,-4.2132,-4.1444,-4.1422,-4.0457,-3.9403,-3.9403,-3.9403,-3.9403,-3.9403,-3.9403,-3.9403,-7.0337,-6.901,-6.8699,-6.8351,-6.7783,-6.7222,-6.6331,-6.5393,-6.4671,-6.3917,-6.3308,-6.3228,-6.3228,-6.3276,-6.3228,-6.3228,-6.318,-6.2678,-6.2481,-6.2383,-6.1885,-6.1633,-6.1633,-6.1582,-6.1582,-6.1305,-6.1082,-6.0743,-6.0267,-5.9405,-5.8611,-5.7993,-5.7335,-5.6516,-5.5721,-5.5581,-5.5481,-5.528,-5.517,-5.4491,-5.3354,-5.3144,-5.2456,-5.1199,-5.0465,-4.9853,-4.9254,-4.8596,-4.7967,-4.7339,-4.7339,-4.7339,-4.7309,-4.7309,-4.7309,-4.7309,-4.7309,-4.7309,-4.7309,-4.7309,-4.7309,-4.7309,-4.7309,-4.7309,-4.7309,-4.7309,-4.7309,-4.7309,-4.7219,-4.7189,-4.7189,-4.704,-4.68,-4.6352,-4.6292,-4.5992,-4.5454,-4.5364,-4.5244,-4.5155,-4.4616,-4.4018,-4.3409,-4.329,-4.329,-4.329,-4.329,-4.329,-4.329,-4.329,-4.329,-4.329,-4.329,-4.329,-4.329,-4.329,-4.329,-4.329,-4.329,-4.329,-4.329,-4.329,-4.329,-4.305,-4.2102,-4.1444,-4.1175,-4.0576,-3.9672,-3.9403,-3.9403,-3.9403,-3.9403,-3.9403,-3.9403,-6.8904,-6.7981,-6.7848,-6.7695,-6.7542,-6.7285,-6.6396,-6.5058,-6.4771,-6.3907,-6.2788,-6.2513,-6.2414,-6.2414,-6.2266,-6.2333,-6.2661,-6.2315,-6.2035,-6.1834,-6.1512,-6.1257,-6.1103,-6.0949,-6.0742,-6.0617,-6.0512,-6.0355,-6.0197,-5.9713,-5.894,-5.7898,-5.7535,-5.6717,-5.5591,-5.533,-5.528,-5.5179,-5.5209,-5.4551,-5.3294,-5.3174,-5.2546,-5.1289,-5.0554,-5.0076,-4.9912,-4.9254,-4.864,-4.7967,-4.7938,-4.7758,-4.7369,-4.7309,-4.7309,-4.7309,-4.7309,-4.7309,-4.7309,-4.7309,-4.7309,-4.7309,-4.7309,-4.7309,-4.7309,-4.7309,-4.7309,-4.7309,-4.7309,-4.7309,-4.7309,-4.7309,-4.7219,-4.701,-4.695,-4.683,-4.6561,-4.6232,-4.5963,-4.5783,-4.5035,-4.4227,-4.3947,-4.3559,-4.3319,-4.329,-4.329,-4.329,-4.329,-4.329,-4.329,-4.329,-4.329,-4.329,-4.329,-4.329,-4.329,-4.329,-4.329,-4.329,-4.329,-4.329,-4.329,-4.314,-4.2252,-4.1474,-4.1175,-4.0337,-3.9589,-3.9403,-3.9403,-3.9403,-3.9403,-3.9403,-3.9403,-6.7732,-6.7297,-6.7161,-6.7078,-6.6974,-6.6974,-6.6024,-6.4563,-6.45,-6.3609,-6.2323,-6.1935,-6.1866,-6.1784,-6.1512,-6.1563,-6.1834,-6.1765,-6.1613,-6.1359,-6.1052,-6.0794,-6.0534,-6.0324,-6.0197,-5.9986,-5.988,-5.9827,-5.9827,-5.9773,-5.901,-5.7828,-5.7557,-5.6792,-5.5709,-5.5329,-5.5209,-5.5209,-5.5209,-5.4521,-5.3354,-5.3174,-5.2546,-5.1379,-5.0734,-5.0375,-5.0226,-4.9823,-4.9284,-4.8716,-4.8626,-4.8297,-4.7698,-4.7638,-4.7519,-4.7339,-4.7309,-4.7309,-4.7309,-4.7309,-4.7309,-4.7309,-4.7309,-4.7309,-4.7309,-4.7309,-4.7309,-4.7309,-4.7309,-4.7309,-4.7309,-4.7309,-4.7309,-4.7309,-4.7309,-4.7309,-4.7279,-4.689,-4.6561,-4.6232,-4.5603,-4.4975,-4.4616,-4.4007,-4.3708,-4.3618,-4.3439,-4.3319,-4.329,-4.329,-4.329,-4.329,-4.329,-4.329,-4.329,-4.329,-4.329,-4.329,-4.329,-4.329,-4.329,-4.329,-4.326,-4.308,-4.2581,-4.1743,-4.0935,-4.0098,-3.9679,-3.9433,-3.9403,-3.9403,-3.9403,-3.9403,-3.9403,-6.6953,-6.6901,-6.6691,-6.6396,-6.6205,-6.6205,-6.5186,-6.3943,-6.3756,-6.2924,-6.1699,-6.1563,-6.143,-6.143,-6.1,-6.0794,-6.0897,-6.1052,-6.1,-6.0794,-6.0534,-6.0302,-6.0039,-5.9986,-5.9933,-5.988,-5.9636,-5.9529,-5.9476,-5.9315,-5.8794,-5.8082,-5.7446,-5.6817,-5.6188,-5.5508,-5.5209,-5.5209,-5.5209,-5.4521,-5.3354,-5.3174,-5.2546,-5.1379,-5.1169,-5.0823,-5.0285,-5.0226,-4.9942,-4.9374,-4.9284,-4.9,-4.8386,-4.8297,-4.8027,-4.7578,-4.7399,-4.7339,-4.7369,-4.7339,-4.7309,-4.7309,-4.7309,-4.7309,-4.7309,-4.7309,-4.7309,-4.7309,-4.7309,-4.7309,-4.7309,-4.7309,-4.7309,-4.7309,-4.7309,-4.7309,-4.7279,-4.7279,-4.707,-4.6531,-4.613,-4.5992,-4.5394,-4.4736,-4.4347,-4.4227,-4.3798,-4.3439,-4.3439,-4.3379,-4.329,-4.329,-4.329,-4.329,-4.329,-4.329,-4.329,-4.329,-4.329,-4.329,-4.329,-4.329,-4.329,-4.311,-4.2462,-4.1654,-4.0756,-3.9978,-3.9619,-3.9403,-3.9403,-3.9403,-3.9403,-3.9403,-3.9403,-6.6076,-6.6076,-6.6023,-6.5915,-6.583,-6.583,-6.5062,-6.3772,-6.3277,-6.2355,-6.1239,-6.0696,-6.0512,-6.0512,-6.0302,-6.025,-6.025,-6.0302,-6.0302,-6.025,-6.0144,-5.9986,-5.972,-5.9636,-5.9529,-5.9369,-5.9261,-5.9207,-5.9207,-5.9153,-5.877,-5.8112,-5.7453,-5.6795,-5.6248,-5.5538,-5.5209,-5.5209,-5.5209,-5.4521,-5.3324,-5.3174,-5.2546,-5.1379,-5.1229,-5.1109,-5.0883,-5.0853,-5.0571,-4.9972,-4.9912,-4.9643,-4.9105,-4.9,-4.891,-4.8626,-4.8207,-4.7967,-4.7938,-4.7578,-4.7369,-4.7309,-4.7309,-4.7309,-4.7309,-4.7309,-4.7309,-4.7309,-4.7309,-4.7309,-4.7309,-4.7309,-4.7309,-4.7309,-4.7309,-4.7309,-4.7309,-4.7309,-4.7219,-4.701,-4.6591,-4.6232,-4.5963,-4.5424,-4.5005,-4.4945,-4.4407,-4.4018,-4.3958,-4.3688,-4.3319,-4.329,-4.329,-4.3409,-4.3439,-4.3469,-4.3439,-4.3349,-4.329,-4.329,-4.329,-4.329,-4.329,-4.305,-4.2372,-4.1594,-4.0696,-4.0068,-3.9709,-3.9403,-3.9403,-3.9403,-3.9403,-3.9403,-3.9403,-6.5211,-6.5211,-6.5101,-6.5046,-6.5046,-6.5046,-6.4457,-6.3452,-6.2778,-6.1889,-6.0897,-6.0289,-5.9986,-6.0016,-5.988,-5.9827,-5.9827,-5.972,-5.9667,-5.9667,-5.9773,-5.9667,-5.9369,-5.9369,-5.9261,-5.9153,-5.9099,-5.9099,-5.9099,-5.9099,-5.889,-5.8441,-5.7573,-5.6915,-5.6436,-5.5628,-5.5209,-5.5209,-5.5179,-5.467,-5.3743,-5.3324,-5.2665,-5.1738,-5.1349,-5.1229,-5.1229,-5.1229,-5.0973,-5.0644,-5.0554,-5.0272,-4.9703,-4.9613,-4.9569,-4.9269,-4.897,-4.8656,-4.8626,-4.8297,-4.7908,-4.7728,-4.7668,-4.7549,-4.7399,-4.7309,-4.7309,-4.7309,-4.7309,-4.7309,-4.7309,-4.7309,-4.7309,-4.7309,-4.7309,-4.7309,-4.7309,-4.7309,-4.7309,-4.7189,-4.695,-4.6741,-4.6561,-4.6112,-4.5723,-4.5603,-4.5095,-4.4676,-4.4616,-4.4347,-4.4137,-4.4047,-4.4197,-4.4137,-4.3738,-4.3648,-4.3559,-4.3439,-4.329,-4.329,-4.329,-4.329,-4.329,-4.312,-4.2581,-4.1923,-4.1055,-4.0367,-3.9918,-3.9709,-3.9403,-3.9403,-3.9403,-3.9403,-3.9403,-6.4382,-6.4326,-6.4132,-6.4106,-6.4106,-6.4075,-6.3685,-6.2936,-6.2263,-6.1601,-6.091,-6.016,-5.988,-5.9827,-5.9583,-5.9476,-5.9422,-5.9261,-5.9207,-5.9261,-5.9369,-5.9369,-5.9153,-5.9153,-5.9153,-5.9099,-5.9099,-5.9099,-5.9099,-5.9099,-5.9099,-5.8919,-5.7842,-5.7124,-5.6825,-5.5837,-5.5269,-5.5209,-5.5209,-5.482,-5.4162,-5.3593,-5.2905,-5.2187,-5.1648,-5.1319,-5.1229,-5.1229,-5.1229,-5.1199,-5.1139,-5.084,-5.0375,-5.0255,-5.0032,-4.9553,-4.9419,-4.9314,-4.9359,-4.9179,-4.894,-4.8416,-4.8297,-4.8057,-4.7578,-4.7489,-4.7429,-4.7339,-4.7309,-4.7309,-4.7309,-4.7309,-4.7309,-4.7309,-4.7309,-4.7309,-4.7309,-4.7309,-4.7309,-4.7309,-4.7309,-4.7279,-4.7189,-4.6681,-4.6429,-4.6219,-4.5783,-4.5424,-4.5304,-4.5185,-4.5214,-4.5125,-4.4915,-4.4766,-4.4377,-4.4018,-4.3928,-4.3708,-4.3469,-4.329,-4.329,-4.329,-4.329,-4.312,-4.2791,-4.2132,-4.1414,-4.0696,-4.0008,-3.9553,-3.9403,-3.9403,-3.9403,-3.9403,-3.9403,-6.4075,-6.4075,-6.4049,-6.3993,-6.3993,-6.3993,-6.3702,-6.3199,-6.2112,-6.1459,-6.0872,-5.9825,-5.9399,-5.9345,-5.9261,-5.9207,-5.9207,-5.9153,-5.9099,-5.9099,-5.9153,-5.9153,-5.9099,-5.9099,-5.9099,-5.9099,-5.9099,-5.9099,-5.9099,-5.9099,-5.9099,-5.9069,-5.8261,-5.7573,-5.7034,-5.6316,-5.5658,-5.5269,-5.5209,-5.491,-5.4311,-5.4042,-5.3354,-5.2276,-5.2037,-5.1678,-5.1289,-5.1229,-5.1229,-5.1229,-5.1229,-5.1169,-5.093,-5.093,-5.081,-5.0601,-5.0212,-4.9972,-4.9912,-4.9583,-4.9269,-4.909,-4.9015,-4.8716,-4.8087,-4.8027,-4.7788,-4.7489,-4.7309,-4.7309,-4.7309,-4.7309,-4.7309,-4.7309,-4.7309,-4.7309,-4.7309,-4.7309,-4.7309,-4.7309,-4.7309,-4.7309,-4.7249,-4.716,-4.698,-4.689,-4.6501,-4.6052,-4.5992,-4.5723,-4.5633,-4.5394,-4.5214,-4.5155,-4.4945,-4.4526,-4.4257,-4.4077,-4.3708,-4.329,-4.329,-4.329,-4.329,-4.323,-4.291,-4.2342,-4.1564,-4.0816,-4.0217,-3.9642,-3.9403,-3.9403,-3.9403,-3.9403,-3.9403,-6.3652,-6.3595,-6.3595,-6.3652,-6.3595,-6.3652,-6.3538,-6.3156,-6.2198,-6.1511,-6.0924,-5.9997,-5.9368,-5.9129,-5.9099,-5.9099,-5.9099,-5.9099,-5.9099,-5.9099,-5.9099,-5.9099,-5.9099,-5.9099,-5.9099,-5.9099,-5.9099,-5.9099,-5.9099,-5.9099,-5.9099,-5.8979,-5.8441,-5.7932,-5.7543,-5.6885,-5.6226,-5.5718,-5.5598,-5.5299,-5.467,-5.4341,-5.3862,-5.3054,-5.2785,-5.2306,-5.1708,-5.1379,-5.1229,-5.1229,-5.1229,-5.1229,-5.1229,-5.1229,-5.1229,-5.1199,-5.0794,-5.0614,-5.0554,-5.0272,-4.9972,-4.9733,-4.9673,-4.9344,-4.891,-4.873,-4.8416,-4.7848,-4.7728,-4.7578,-4.7369,-4.7309,-4.7309,-4.7309,-4.7309,-4.7309,-4.7309,-4.7309,-4.7309,-4.7309,-4.7309,-4.7309,-4.7309,-4.7309,-4.7309,-4.7249,-4.701,-4.68,-4.6711,-4.6322,-4.6052,-4.5963,-4.5933,-4.5963,-4.5663,-4.5185,-4.4526,-4.4317,-4.3738,-4.3319,-4.329,-4.329,-4.329,-4.323,-4.294,-4.2551,-4.1833,-4.1175,-4.0666,-4.0187,-3.9768,-3.9469,-3.9433,-3.9403,-3.9403,-6.3137,-6.3137,-6.3137,-6.3137,-6.3137,-6.3137,-6.3137,-6.3017,-6.2388,-6.1702,-6.1044,-6.0386,-5.9668,-5.9129,-5.9099,-5.9099,-5.9099,-5.9099,-5.9099,-5.9099,-5.9099,-5.9099,-5.9099,-5.9099,-5.9099,-5.9099,-5.9099,-5.9099,-5.9099,-5.9099,-5.9099,-5.9009,-5.8501,-5.8201,-5.7932,-5.7453,-5.6885,-5.6346,-5.6107,-5.5807,-5.5269,-5.476,-5.4281,-5.3952,-5.3324,-5.2755,-5.2157,-5.1678,-5.1349,-5.1229,-5.1229,-5.1229,-5.1229,-5.1229,-5.1229,-5.1229,-5.1169,-5.1139,-5.1199,-5.105,-5.093,-5.0405,-5.0285,-5.0016,-4.9553,-4.9344,-4.9075,-4.8446,-4.8386,-4.8087,-4.7608,-4.7459,-4.7399,-4.7369,-4.7309,-4.7309,-4.7309,-4.7309,-4.7309,-4.7309,-4.7309,-4.7309,-4.7309,-4.7309,-4.7309,-4.7309,-4.716,-4.713,-4.707,-4.689,-4.683,-4.692,-4.692,-4.692,-4.6411,-4.5843,-4.5065,-4.4466,-4.3738,-4.329,-4.329,-4.329,-4.329,-4.32,-4.309,-4.2791,-4.2351,-4.1752,-4.1242,-4.0666,-4.0217,-3.9828,-3.9559,-3.9433,-3.9403,-6.3137,-6.3137,-6.3137,-6.3137,-6.3137,-6.3137,-6.3137,-6.3077,-6.2391,-6.1792,-6.1074,-6.0416,-5.9757,-5.9129,-5.9129,-5.9099,-5.9099,-5.9099,-5.9099,-5.9099,-5.9099,-5.9099,-5.9099,-5.9099,-5.9099,-5.9099,-5.9099,-5.9099,-5.9099,-5.9099,-5.9099,-5.9069,-5.8919,-5.862,-5.8171,-5.8022,-5.7573,-5.6944,-5.6466,-5.6166,-5.5867,-5.5299,-5.473,-5.4281,-5.3593,-5.2905,-5.2336,-5.2067,-5.1738,-5.1379,-5.1259,-5.1289,-5.1229,-5.1229,-5.1229,-5.1229,-5.1229,-5.1229,-5.1229,-5.1229,-5.1122,-5.099,-5.09,-5.0704,-5.0076,-5.0032,-4.9703,-4.9224,-4.909,-4.8745,-4.8177,-4.8087,-4.7818,-4.7519,-4.7339,-4.7309,-4.7309,-4.7309,-4.7309,-4.7309,-4.7309,-4.7309,-4.7309,-4.7309,-4.7309,-4.7309,-4.7309,-4.7309,-4.7309,-4.7309,-4.7309,-4.7309,-4.7279,-4.716,-4.683,-4.6142,-4.5244,-4.4496,-4.3738,-4.329,-4.329,-4.329,-4.329,-4.329,-4.329,-4.297,-4.265,-4.2351,-4.1841,-4.1235,-4.0696,-4.0397,-4.0098,-3.9828,-3.9642,-6.3137,-6.3137,-6.3137,-6.3137,-6.3137,-6.3137,-6.3137,-6.3019,-6.272,-6.2181,-6.1523,-6.0864,-6.0206,-5.9548,-5.9249,-5.9099,-5.9099,-5.9099,-5.9099,-5.9099,-5.9099,-5.9099,-5.9099,-5.9099,-5.9099,-5.9099,-5.9099,-5.9099,-5.9099,-5.9099,-5.9099,-5.9099,-5.9099,-5.8919,-5.865,-5.856,-5.8231,-5.7693,-5.7274,-5.6855,-5.6196,-5.5837,-5.5329,-5.467,-5.4042,-5.3473,-5.3204,-5.2815,-5.2336,-5.1858,-5.1678,-5.1528,-5.1289,-5.1229,-5.1229,-5.1229,-5.1229,-5.1229,-5.1229,-5.1229,-5.1229,-5.1229,-5.1229,-5.105,-5.0734,-5.0644,-5.0361,-4.9912,-4.9673,-4.9464,-4.885,-4.8386,-4.8087,-4.7848,-4.7489,-4.7339,-4.7309,-4.7309,-4.7309,-4.7309,-4.7309,-4.7309,-4.7309,-4.7309,-4.7309,-4.7309,-4.7309,-4.7309,-4.7309,-4.7309,-4.7309,-4.7309,-4.7309,-4.7219,-4.704,-4.6352,-4.5274,-4.4526,-4.3738,-4.3409,-4.329,-4.329,-4.329,-4.329,-4.329,-4.323,-4.294,-4.271,-4.241,-4.1931,-4.1444,-4.1085,-4.0816,-4.0636,-4.0576,-6.3137,-6.3137,-6.3137,-6.3137,-6.3137,-6.3137,-6.3137,-6.3137,-6.3137,-6.263,-6.2091,-6.1493,-6.0894,-6.0236,-5.9757,-5.9458,-5.9488,-5.9488,-5.9608,-5.9368,-5.9368,-5.9249,-5.9159,-5.9099,-5.9099,-5.9099,-5.9099,-5.9099,-5.9099,-5.9099,-5.9099,-5.9099,-5.9099,-5.9069,-5.9069,-5.9069,-5.88,-5.8321,-5.8022,-5.7573,-5.6735,-5.6436,-5.5987,-5.5359,-5.47,-5.4251,-5.3952,-5.3563,-5.3025,-5.2396,-5.2366,-5.2007,-5.1528,-5.1229,-5.1229,-5.1229,-5.1229,-5.1229,-5.1229,-5.1229,-5.1229,-5.1229,-5.1229,-5.1229,-5.1169,-5.1109,-5.0823,-5.0554,-5.0285,-5.0122,-4.9464,-4.9075,-4.8686,-4.8356,-4.7848,-4.7519,-4.7429,-4.7399,-4.7309,-4.7309,-4.7309,-4.7309,-4.7309,-4.7309,-4.7309,-4.7309,-4.7309,-4.7309,-4.7309,-4.7309,-4.7309,-4.7309,-4.7309,-4.7309,-4.716,-4.6681,-4.5603,-4.4975,-4.4137,-4.3708,-4.3499,-4.3349,-4.3349,-4.3319,-4.329,-4.323,-4.321,-4.294,-4.2671,-4.247,-4.2141,-4.1692,-4.1542,-4.1482,-4.1354,-6.3137,-6.3137,-6.3137,-6.3137,-6.3137,-6.3137,-6.3137,-6.3137,-6.3137,-6.272,-6.2151,-6.1972,-6.1523,-6.1014,-6.0864,-6.0745,-6.0595,-6.0535,-6.0356,-5.9997,-5.9907,-5.9757,-5.9368,-5.9368,-5.9249,-5.9099,-5.9189,-5.9279,-5.9129,-5.9099,-5.9099,-5.9099,-5.9099,-5.9099,-5.9099,-5.9099,-5.9069,-5.88,-5.8441,-5.7992,-5.7603,-5.7094,-5.6555,-5.5927,-5.5299,-5.482,-5.4341,-5.4102,-5.3743,-5.3114,-5.3025,-5.2665,-5.2127,-5.1588,-5.1349,-5.1229,-5.1229,-5.1229,-5.1229,-5.1229,-5.1229,-5.1229,-5.1229,-5.1229,-5.1229,-5.1229,-5.1109,-5.1079,-5.0883,-5.0704,-5.0152,-4.9777,-4.9583,-4.9164,-4.8566,-4.8103,-4.8013,-4.7684,-4.7342,-4.7328,-4.7312,-4.7309,-4.7309,-4.7309,-4.7309,-4.7309,-4.7309,-4.7309,-4.7309,-4.7309,-4.7309,-4.7309,-4.7309,-4.7309,-4.7279,-4.6741,-4.598,-4.5693,-4.5005,-4.4347,-4.3977,-4.3559,-4.3409,-4.3499,-4.3409,-4.329,-4.32,-4.312,-4.309,-4.291,-4.2551,-4.2231,-4.2132,-4.2073,-4.1743,-6.3137,-6.3137,-6.3137,-6.3137,-6.3137,-6.3137,-6.3137,-6.3137,-6.3137,-6.2899,-6.257,-6.2241,-6.1942,-6.1583,-6.1224,-6.1104,-6.1134,-6.1104,-6.0924,-6.0625,-6.0595,-6.0505,-6.0116,-6.0116,-6.0146,-6.0176,-6.0146,-5.9697,-5.9159,-5.9099,-5.9189,-5.9099,-5.9099,-5.9099,-5.9099,-5.9099,-5.9099,-5.9009,-5.877,-5.8441,-5.8112,-5.7483,-5.6825,-5.6256,-5.5867,-5.5388,-5.485,-5.473,-5.4401,-5.3862,-5.3713,-5.3324,-5.2815,-5.2396,-5.1917,-5.1409,-5.1289,-5.1229,-5.1229,-5.1229,-5.1229,-5.1229,-5.1229,-5.1229,-5.1229,-5.1229,-5.1229,-5.1229,-5.1229,-5.1063,-5.075,-5.0435,-5.003,-4.9626,-4.9014,-4.8641,-4.8343,-4.7822,-4.7585,-4.7451,-4.7344,-4.7312,-4.7309,-4.7309,-4.7309,-4.7309,-4.7309,-4.7309,-4.7309,-4.7309,-4.7309,-4.7309,-4.7309,-4.7309,-4.7279,-4.686,-4.6459,-4.616,-4.5711,-4.5065,-4.4616,-4.4186,-4.3947,-4.3917,-4.3738,-4.3439,-4.329,-4.32,-4.326,-4.329,-4.303,-4.2761,-4.2761,-4.2641,-4.2342,-6.3137,-6.3137,-6.3137,-6.3137,-6.3137,-6.3137,-6.3137,-6.3137,-6.3137,-6.3137,-6.3047,-6.257,-6.2331,-6.2181,-6.1852,-6.1553,-6.1493,-6.1583,-6.1493,-6.1313,-6.1283,-6.1253,-6.1104,-6.1104,-6.0984,-6.0864,-6.0924,-6.0565,-5.9877,-5.9697,-5.9578,-5.9668,-5.9578,-5.9398,-5.9398,-5.9398,-5.9279,-5.9129,-5.9099,-5.88,-5.8291,-5.7663,-5.7094,-5.6526,-5.6316,-5.5948,-5.5448,-5.5179,-5.491,-5.4551,-5.4341,-5.4102,-5.3533,-5.3384,-5.2815,-5.1858,-5.1618,-5.1558,-5.1439,-5.1468,-5.1439,-5.1259,-5.1229,-5.1229,-5.1229,-5.1229,-5.1229,-5.1229,-5.1229,-5.1229,-5.1033,-5.0657,-5.0326,-5.0054,-4.9499,-4.8932,-4.8647,-4.8276,-4.7938,-4.7703,-4.748,-4.733,-4.7285,-4.7179,-4.7179,-4.7309,-4.7309,-4.7309,-4.7309,-4.7309,-4.7309,-4.7309,-4.7309,-4.7309,-4.7219,-4.701,-4.68,-4.6681,-4.6202,-4.5603,-4.5274,-4.4945,-4.4736,-4.4496,-4.3977,-4.3708,-4.3499,-4.3319,-4.329,-4.329,-4.329,-4.323,-4.308,-4.305,-4.2901,-6.3137,-6.3137,-6.3137,-6.3137,-6.3137,-6.3137,-6.3137,-6.3079,-6.3049,-6.3137,-6.3047,-6.2929,-6.278,-6.272,-6.275,-6.275,-6.272,-6.263,-6.2361,-6.2032,-6.1972,-6.1732,-6.1283,-6.1104,-6.1343,-6.1403,-6.1283,-6.1074,-6.0835,-6.0805,-6.0775,-6.0715,-6.0595,-6.0565,-5.9997,-5.9847,-5.9638,-5.9219,-5.9129,-5.9039,-5.886,-5.8321,-5.7992,-5.7543,-5.6885,-5.6226,-5.6047,-5.5688,-5.5269,-5.5149,-5.5059,-5.476,-5.4221,-5.4102,-5.3713,-5.3204,-5.2905,-5.2695,-5.2217,-5.2067,-5.1887,-5.1558,-5.1349,-5.1259,-5.1229,-5.1229,-5.1229,-5.1229,-5.1229,-5.1182,-5.1135,-5.0875,-5.0721,-5.0372,-4.9799,-4.9439,-4.9169,-4.8401,-4.8021,-4.7926,-4.7682,-4.7392,-4.7199,-4.708,-4.7019,-4.7179,-4.7309,-4.7309,-4.7309,-4.7309,-4.7309,-4.7309,-4.7309,-4.7309,-4.7309,-4.707,-4.704,-4.704,-4.6651,-4.6172,-4.5963,-4.5693,-4.5364,-4.5035,-4.4526,-4.4067,-4.3858,-4.3678,-4.3409,-4.329,-4.329,-4.329,-4.329,-4.329,-4.329,-6.3137,-6.3137,-6.3137,-6.3137,-6.3137,-6.3137,-6.3137,-6.2989,-6.266,-6.251,-6.2421,-6.2121,-6.1972,-6.2061,-6.2331,-6.251,-6.26,-6.2869,-6.2929,-6.269,-6.26,-6.248,-6.2331,-6.2241,-6.2211,-6.2121,-6.2211,-6.2301,-6.2061,-6.1463,-6.1104,-6.1164,-6.1134,-6.0984,-6.0625,-6.0266,-5.9967,-5.9638,-5.9338,-5.9129,-5.9039,-5.88,-5.8501,-5.8141,-5.7543,-5.7094,-5.6675,-5.6496,-5.6047,-5.5867,-5.5748,-5.5448,-5.494,-5.476,-5.4581,-5.4401,-5.4311,-5.3832,-5.2965,-5.2785,-5.2546,-5.2306,-5.1977,-5.1648,-5.1349,-5.1289,-5.1289,-5.1229,-5.1229,-5.1135,-5.1071,-5.087,-5.068,-5.0324,-4.9879,-4.961,-4.9203,-4.8576,-4.8056,-4.7996,-4.7922,-4.7629,-4.7344,-4.7274,-4.7155,-4.7181,-4.7282,-4.7309,-4.7309,-4.7309,-4.7309,-4.7309,-4.7309,-4.7309,-4.7309,-4.7219,-4.7189,-4.7189,-4.7189,-4.68,-4.6711,-4.6471,-4.6082,-4.5693,-4.5244,-4.4825,-4.4407,-4.3898,-4.3469,-4.3379,-4.329,-4.329,-4.329,-4.329,-4.329,-6.26,-6.26,-6.2929,-6.2989,-6.2839,-6.2839,-6.272,-6.251,-6.2061,-6.1852,-6.1732,-6.1373,-6.1164,-6.1194,-6.1672,-6.1972,-6.2151,-6.26,-6.2899,-6.3019,-6.3137,-6.3077,-6.2929,-6.2989,-6.2989,-6.3137,-6.2899,-6.2899,-6.269,-6.2241,-6.1732,-6.1613,-6.1822,-6.1583,-6.1224,-6.0745,-6.0236,-5.9638,-5.9308,-5.9129,-5.9099,-5.9099,-5.88,-5.8501,-5.8171,-5.7902,-5.7423,-5.7094,-5.6735,-5.6526,-5.6406,-5.6107,-5.5568,-5.5418,-5.5269,-5.5089,-5.497,-5.467,-5.3952,-5.3593,-5.3384,-5.3084,-5.2815,-5.2276,-5.1917,-5.1708,-5.1738,-5.1858,-5.1762,-5.15,-5.1119,-5.0994,-5.057,-5.0174,-4.9737,-4.9473,-4.917,-4.8612,-4.8305,-4.8335,-4.8269,-4.8064,-4.7782,-4.7566,-4.7422,-4.7258,-4.7241,-4.7296,-4.7339,-4.7339,-4.7309,-4.7309,-4.7309,-4.7309,-4.7309,-4.7309,-4.7309,-4.7309,-4.7309,-4.7249,-4.707,-4.695,-4.6651,-4.6292,-4.5933,-4.5663,-4.5304,-4.4366,-4.3559,-4.3618,-4.3618,-4.3379,-4.329,-4.329,-4.329,-6.1253,-6.1373,-6.254,-6.269,-6.2151,-6.2151,-6.1822,-6.1433,-6.1253,-6.1134,-6.1074,-6.1074,-6.0924,-6.1044,-6.1104,-6.1463,-6.2032,-6.2151,-6.251,-6.2839,-6.3137,-6.3077,-6.3107,-6.3137,-6.3137,-6.3137,-6.3079,-6.3079,-6.3049,-6.2812,-6.2722,-6.2929,-6.2543,-6.2421,-6.1972,-6.1253,-6.0266,-5.9608,-5.9159,-5.9129,-5.9099,-5.9099,-5.9039,-5.889,-5.8471,-5.8082,-5.8022,-5.7603,-5.7244,-5.7064,-5.7034,-5.6735,-5.6226,-5.6068,-5.5799,-5.5478,-5.5239,-5.5029,-5.47,-5.4311,-5.3832,-5.3414,-5.3144,-5.3025,-5.2725,-5.2905,-5.2995,-5.2815,-5.2521,-5.2208,-5.1727,-5.1277,-5.071,-5.024,-4.9828,-4.9387,-4.913,-4.8831,-4.8603,-4.8702,-4.862,-4.8413,-4.8449,-4.8295,-4.7967,-4.7807,-4.7553,-4.7608,-4.7459,-4.7459,-4.7339,-4.7309,-4.7309,-4.7309,-4.7309,-4.7309,-4.7309,-4.7309,-4.7309,-4.7309,-4.7249,-4.713,-4.701,-4.689,-4.6561,-4.6381,-4.607,-4.5233,-4.4515,-4.4157,-4.3917,-4.3618,-4.3379,-4.329,-4.329,-6.1104,-6.1164,-6.1672,-6.1732,-6.1493,-6.1493,-6.1343,-6.1074,-6.0685,-6.0236,-5.9907,-5.9877,-5.9877,-5.9997,-6.0356,-6.0595,-6.0924,-6.1343,-6.1882,-6.2301,-6.248,-6.272,-6.2869,-6.3077,-6.3137,-6.3049,-6.3049,-6.2963,-6.2789,-6.2789,-6.2673,-6.2643,-6.2905,-6.2959,-6.248,-6.1613,-6.0416,-5.9488,-5.9099,-5.9099,-5.9099,-5.9099,-5.9099,-5.9069,-5.8949,-5.874,-5.868,-5.8501,-5.8141,-5.7842,-5.7752,-5.7334,-5.6825,-5.6496,-5.6158,-5.5748,-5.5478,-5.5269,-5.5179,-5.491,-5.4521,-5.4012,-5.3803,-5.3683,-5.3384,-5.3234,-5.3174,-5.3096,-5.3019,-5.2655,-5.2201,-5.1687,-5.117,-5.0579,-5.0019,-4.9487,-4.9193,-4.9007,-4.8802,-4.8895,-4.8951,-4.8862,-4.9011,-4.9139,-4.8727,-4.8367,-4.812,-4.7878,-4.7818,-4.7608,-4.7519,-4.7399,-4.7369,-4.7309,-4.7309,-4.7309,-4.7309,-4.7309,-4.7309,-4.7309,-4.7309,-4.7309,-4.7189,-4.716,-4.716,-4.692,-4.6561,-4.6052,-4.5514,-4.5005,-4.4436,-4.3828,-4.3589,-4.3379,-4.3349,-6.0505,-6.0505,-6.0505,-6.0625,-6.0805,-6.0805,-6.0685,-6.0446,-5.9997,-5.9578,-5.9099,-5.9099,-5.9099,-5.9249,-5.9548,-5.9997,-6.0236,-6.0655,-6.1194,-6.1583,-6.1882,-6.2091,-6.2421,-6.263,-6.2632,-6.2752,-6.2846,-6.2789,-6.2498,-6.2439,-6.2381,-6.2351,-6.2526,-6.2759,-6.2635,-6.1706,-6.0446,-5.9428,-5.9099,-5.9099,-5.9099,-5.9099,-5.9099,-5.9099,-5.9069,-5.9039,-5.9009,-5.8919,-5.877,-5.853,-5.8351,-5.8052,-5.7513,-5.7004,-5.6585,-5.6166,-5.5777,-5.5418,-5.5269,-5.5149,-5.4999,-5.4581,-5.4491,-5.4251,-5.3922,-5.3773,-5.3982,-5.3774,-5.3466,-5.3039,-5.27,-5.2078,-5.1417,-5.0794,-5.0286,-4.9802,-4.954,-4.9375,-4.9189,-4.9086,-4.9145,-4.9308,-4.9377,-4.9512,-4.9415,-4.9008,-4.8745,-4.8536,-4.8476,-4.8207,-4.7818,-4.7638,-4.7489,-4.7399,-4.7309,-4.7309,-4.7309,-4.7309,-4.7309,-4.7309,-4.7309,-4.7309,-4.7309,-4.7249,-4.7249,-4.7309,-4.704,-4.6621,-4.6172,-4.5723,-4.5095,-4.4466,-4.4018,-4.3768,-4.3499,-5.9219,-5.9129,-5.9219,-5.9548,-6.0086,-6.0116,-5.9787,-5.9398,-5.9249,-5.9189,-5.9099,-5.9099,-5.9099,-5.9129,-5.9249,-5.9518,-5.9847,-6.0057,-6.0475,-6.0984,-6.1134,-6.1164,-6.1407,-6.1765,-6.201,-6.187,-6.211,-6.232,-6.2116,-6.2116,-6.2057,-6.188,-6.1821,-6.2055,-6.2407,-6.1592,-6.0416,-5.9308,-5.9129,-5.9099,-5.9099,-5.9099,-5.9099,-5.9099,-5.9099,-5.9099,-5.9099,-5.9099,-5.9009,-5.8919,-5.8919,-5.862,-5.8141,-5.7932,-5.7363,-5.6466,-5.6286,-5.5867,-5.5359,-5.5269,-5.5239,-5.5089,-5.494,-5.491,-5.5029,-5.5029,-5.4779,-5.4419,-5.4234,-5.3751,-5.3136,-5.2462,-5.1811,-5.1247,-5.0787,-5.0299,-5.0138,-4.9832,-4.962,-4.9779,-4.9716,-4.9724,-4.9791,-4.9844,-4.9846,-4.9683,-4.9388,-4.9269,-4.9179,-4.879,-4.8297,-4.7938,-4.7728,-4.7489,-4.7399,-4.7339,-4.7309,-4.7309,-4.7309,-4.7309,-4.7309,-4.7309,-4.7309,-4.7309,-4.7309,-4.7309,-4.7309,-4.7249,-4.677,-4.6292,-4.5723,-4.5125,-4.4616,-4.4167,-4.3898,-5.9099,-5.9099,-5.9099,-5.9249,-5.9428,-5.9458,-5.9279,-5.9129,-5.9099,-5.9099,-5.9099,-5.9099,-5.9099,-5.9099,-5.9129,-5.9249,-5.9398,-5.9458,-5.9817,-6.0386,-6.0446,-6.0775,-6.0988,-6.1029,-6.1273,-6.1488,-6.1728,-6.1733,-6.1791,-6.1585,-6.1262,-6.0998,-6.0735,-6.0819,-6.1013,-6.0637,-5.9907,-5.9249,-5.9099,-5.9099,-5.9099,-5.9099,-5.9099,-5.9099,-5.9099,-5.9099,-5.9099,-5.9099,-5.9099,-5.9099,-5.9099,-5.8949,-5.865,-5.8471,-5.7932,-5.7334,-5.7154,-5.6705,-5.6496,-5.6406,-5.5987,-5.5598,-5.5299,-5.5329,-5.5209,-5.5209,-5.5057,-5.4862,-5.4665,-5.42,-5.3626,-5.3106,-5.2512,-5.2133,-5.1669,-5.1169,-5.0784,-5.044,-5.0205,-5.056,-5.0679,-5.0709,-5.0699,-5.0524,-5.0461,-5.0355,-5.0122,-4.9942,-4.9853,-4.9314,-4.8805,-4.8356,-4.8057,-4.7728,-4.7489,-4.7399,-4.7339,-4.7309,-4.7309,-4.7309,-4.7309,-4.7309,-4.7309,-4.7309,-4.7309,-4.7309,-4.7309,-4.7309,-4.7249,-4.686,-4.6322,-4.5723,-4.5185,-4.4646,-4.4227,-5.9099,-5.9099,-5.9099,-5.9099,-5.9099,-5.9099,-5.9099,-5.9099,-5.9099,-5.9099,-5.9099,-5.9099,-5.9099,-5.9099,-5.9099,-5.9099,-5.9099,-5.9129,-5.9189,-5.9727,-5.9727,-5.9912,-6.0045,-6.0294,-6.0333,-6.0637,-6.0644,-6.056,-6.0441,-6.0469,-6.0147,-5.9771,-5.9538,-5.9736,-5.9954,-5.9878,-5.9678,-5.9224,-5.9099,-5.9099,-5.9099,-5.9099,-5.9099,-5.9099,-5.9099,-5.9099,-5.9099,-5.9099,-5.9099,-5.9099,-5.9099,-5.9099,-5.8949,-5.877,-5.8351,-5.8052,-5.7513,-5.7124,-5.7004,-5.7004,-5.6526,-5.6077,-5.5867,-5.5837,-5.5837,-5.5987,-5.5833,-5.5597,-5.5108,-5.4848,-5.4533,-5.3975,-5.3366,-5.293,-5.2455,-5.1953,-5.1672,-5.1275,-5.1152,-5.1483,-5.151,-5.1532,-5.1503,-5.1276,-5.1107,-5.0952,-5.084,-5.0644,-5.0435,-4.9972,-4.9434,-4.9015,-4.8506,-4.8117,-4.7758,-4.7459,-4.7399,-4.7309,-4.7309,-4.7309,-4.7309,-4.7309,-4.7309,-4.7309,-4.7309,-4.7309,-4.7309,-4.7279,-4.7249,-4.7189,-4.692,-4.6352,-4.5753,-4.5304,-4.4855,-5.9069,-5.9039,-5.9069,-5.9039,-5.9015,-5.9015,-5.9045,-5.9099,-5.9099,-5.9099,-5.9099,-5.9099,-5.9099,-5.9099,-5.9099,-5.9099,-5.9099,-5.9099,-5.9159,-5.9135,-5.9224,-5.9121,-5.916,-5.9351,-5.9315,-5.9096,-5.9073,-5.9306,-5.8868,-5.8837,-5.872,-5.8725,-5.8638,-5.8861,-5.9109,-5.9355,-5.9304,-5.911,-5.9099,-5.9099,-5.9099,-5.9099,-5.9099,-5.9099,-5.9099,-5.9099,-5.9099,-5.9099,-5.9099,-5.9099,-5.9099,-5.9099,-5.9099,-5.9099,-5.868,-5.8201,-5.7573,-5.7483,-5.7423,-5.7483,-5.7423,-5.7184,-5.7184,-5.7154,-5.6915,-5.6735,-5.6519,-5.634,-5.6048,-5.596,-5.5674,-5.489,-5.4108,-5.3687,-5.3156,-5.2873,-5.2648,-5.2419,-5.2296,-5.2306,-5.2226,-5.2173,-5.2014,-5.1824,-5.159,-5.1387,-5.1229,-5.105,-5.0794,-5.0584,-5.0152,-4.9823,-4.9254,-4.8566,-4.8177,-4.7878,-4.7668,-4.7668,-4.7369,-4.7309,-4.7309,-4.7309,-4.7309,-4.7309,-4.7309,-4.7309,-4.7309,-4.7309,-4.7309,-4.7219,-4.713,-4.695,-4.6352,-4.6112,-4.5723,-5.8112,-5.7723,-5.8201,-5.8304,-5.8148,-5.8347,-5.8719,-5.9045,-5.9099,-5.9099,-5.9099,-5.9099,-5.9099,-5.9099,-5.9099,-5.9099,-5.9099,-5.9099,-5.9099,-5.9045,-5.8882,-5.8803,-5.8643,-5.8545,-5.8393,-5.8345,-5.8321,-5.8262,-5.8287,-5.7908,-5.7798,-5.8061,-5.7829,-5.8021,-5.8382,-5.863,-5.8813,-5.905,-5.9099,-5.9099,-5.9099,-5.9099,-5.9099,-5.9099,-5.9099,-5.9099,-5.9099,-5.9099,-5.9099,-5.9099,-5.9099,-5.9099,-5.9099,-5.9099,-5.8919,-5.886,-5.862,-5.856,-5.853,-5.8501,-5.8441,-5.8351,-5.8411,-5.7842,-5.7483,-5.7161,-5.7139,-5.7047,-5.6947,-5.674,-5.6388,-5.5742,-5.4985,-5.445,-5.3913,-5.3514,-5.3259,-5.3001,-5.2905,-5.3024,-5.292,-5.2924,-5.2713,-5.2267,-5.2061,-5.181,-5.1588,-5.1349,-5.1169,-5.0883,-5.0674,-5.0345,-4.9897,-4.9254,-4.8835,-4.8506,-4.8237,-4.7997,-4.7698,-4.7399,-4.7309,-4.7309,-4.7309,-4.7309,-4.7309,-4.7309,-4.7309,-4.7309,-4.7309,-4.7309,-4.7249,-4.716,-4.704,-4.6711,-4.6441,-5.7483,-5.7184,-5.7437,-5.7553,-5.7611,-5.7803,-5.8178,-5.8689,-5.8882,-5.8991,-5.9099,-5.9099,-5.9099,-5.9099,-5.9099,-5.9099,-5.9099,-5.9099,-5.9045,-5.8882,-5.8719,-5.85,-5.8225,-5.7921,-5.7734,-5.7598,-5.7369,-5.7137,-5.7306,-5.728,-5.711,-5.7226,-5.6995,-5.753,-5.8003,-5.8339,-5.8584,-5.8882,-5.9099,-5.9099,-5.9099,-5.9099,-5.9099,-5.9099,-5.9099,-5.9099,-5.9099,-5.9099,-5.9099,-5.9099,-5.9099,-5.9099,-5.9099,-5.9099,-5.9099,-5.9039,-5.9009,-5.8979,-5.8949,-5.9009,-5.9069,-5.9099,-5.9099,-5.868,-5.8321,-5.8082,-5.7945,-5.7868,-5.7648,-5.7398,-5.6957,-5.6539,-5.5892,-5.5217,-5.4645,-5.4046,-5.3728,-5.3439,-5.3453,-5.36,-5.3678,-5.3684,-5.3416,-5.2938,-5.2396,-5.2037,-5.1678,-5.1319,-5.1229,-5.1139,-5.102,-5.081,-5.0375,-4.9897,-4.9553,-4.9105,-4.8716,-4.8386,-4.8057,-4.7758,-4.7489,-4.7309,-4.7309,-4.7309,-4.7309,-4.7309,-4.7309,-4.7309,-4.7309,-4.7309,-4.7309,-4.7249,-4.7189,-4.707,-4.686,-5.6974,-5.6862,-5.6637,-5.6788,-5.7163,-5.7227,-5.758,-5.8136,-5.847,-5.8773,-5.8991,-5.9045,-5.9045,-5.9099,-5.9099,-5.9099,-5.9045,-5.9045,-5.8882,-5.8694,-5.85,-5.828,-5.7836,-5.7445,-5.7193,-5.6738,-5.6422,-5.6333,-5.6191,-5.6306,-5.6536,-5.648,-5.6936,-5.7528,-5.8085,-5.8195,-5.847,-5.8991,-5.9099,-5.9099,-5.9099,-5.9099,-5.9099,-5.9099,-5.9099,-5.9099,-5.9099,-5.9099,-5.9099,-5.9099,-5.9099,-5.9099,-5.9099,-5.9099,-5.9099,-5.9099,-5.9099,-5.9099,-5.9099,-5.9099,-5.9099,-5.9099,-5.9099,-5.9009,-5.877,-5.868,-5.8567,-5.8513,-5.8345,-5.8183,-5.7853,-5.7458,-5.6891,-5.6209,-5.5554,-5.4836,-5.4206,-5.3801,-5.3582,-5.3785,-5.4009,-5.4073,-5.4161,-5.3634,-5.3025,-5.2456,-5.1887,-5.1498,-5.1229,-5.1229,-5.1169,-5.1109,-5.084,-5.0435,-5.0242,-4.9793,-4.9224,-4.8805,-4.8476,-4.8087,-4.7758,-4.7519,-4.7309,-4.7309,-4.7309,-4.7309,-4.7309,-4.7309,-4.7309,-4.7309,-4.7309,-4.7309,-4.7279,-4.7219,-4.716,-5.6004,-5.5359,-5.5335,-5.5659,-5.6251,-5.653,-5.6793,-5.7218,-5.7742,-5.828,-5.8748,-5.8773,-5.8936,-5.9099,-5.9099,-5.9099,-5.9099,-5.8936,-5.8803,-5.8529,-5.828,-5.7892,-5.7416,-5.7107,-5.6709,-5.6308,-5.6048,-5.5874,-5.5845,-5.5961,-5.625,-5.648,-5.6908,-5.7472,-5.814,-5.8195,-5.8555,-5.9045,-5.9045,-5.9045,-5.9045,-5.9099,-5.9099,-5.9099,-5.9045,-5.9045,-5.9045,-5.9045,-5.9099,-5.9099,-5.9099,-5.9099,-5.9099,-5.9099,-5.9099,-5.9099,-5.9045,-5.8991,-5.8991,-5.8991,-5.8991,-5.9045,-5.9045,-5.9099,-5.9099,-5.9099,-5.9099,-5.9045,-5.8991,-5.8912,-5.8689,-5.8263,-5.7837,-5.7151,-5.6355,-5.5492,-5.4633,-5.4216,-5.385,-5.3942,-5.42,-5.4412,-5.4559,-5.4261,-5.3713,-5.3054,-5.2396,-5.1887,-5.1439,-5.1289,-5.1229,-5.1169,-5.1199,-5.093,-5.075,-5.0451,-4.9883,-4.9374,-4.9015,-4.8566,-4.8057,-4.7788,-4.7519,-4.7369,-4.7309,-4.7309,-4.7309,-4.7309,-4.7309,-4.7309,-4.7309,-4.7309,-4.7309,-4.7279,-4.7279,-5.507,-5.4576,-5.4485,-5.4749,-5.5255,-5.5471,-5.5907,-5.6624,-5.7059,-5.7573,-5.8335,-5.8584,-5.8828,-5.9045,-5.9099,-5.9099,-5.9045,-5.8828,-5.8609,-5.8335,-5.7892,-5.7472,-5.7078,-5.6709,-5.6365,-5.6048,-5.5874,-5.5729,-5.5729,-5.6019,-5.6365,-5.6652,-5.705,-5.7557,-5.814,-5.8335,-5.8609,-5.9099,-5.8991,-5.8936,-5.8912,-5.8912,-5.8828,-5.8773,-5.8719,-5.8719,-5.8719,-5.8719,-5.8719,-5.8719,-5.8664,-5.8773,-5.8773,-5.8773,-5.8719,-5.8664,-5.8664,-5.8719,-5.8719,-5.8719,-5.8773,-5.8773,-5.8719,-5.8664,-5.8664,-5.8664,-5.8882,-5.8882,-5.9045,-5.9021,-5.8882,-5.86,-5.8267,-5.7673,-5.6841,-5.5979,-5.5143,-5.4473,-5.4188,-5.4149,-5.4406,-5.4692,-5.4729,-5.4441,-5.3922,-5.3623,-5.2965,-5.2306,-5.1828,-5.1439,-5.1349,-5.1259,-5.1259,-5.1229,-5.105,-5.0794,-5.0495,-4.9986,-4.9553,-4.8985,-4.8446,-4.8057,-4.7758,-4.7549,-4.7369,-4.7309,-4.7309,-4.7309,-4.7309,-4.7309,-4.7309,-4.7309,-4.7309,-4.7309,-4.7309,-5.4304,-5.42,-5.3971,-5.4031,-5.4371,-5.4517,-5.5126,-5.6026,-5.6374,-5.6945,-5.7772,-5.8386,-5.8773,-5.8991,-5.9099,-5.9099,-5.8991,-5.8664,-5.8445,-5.8114,-5.7528,-5.7134,-5.6766,-5.6308,-5.6105,-5.5932,-5.5729,-5.5874,-5.5932,-5.6308,-5.6652,-5.705,-5.7501,-5.7948,-5.828,-5.85,-5.8803,-5.8912,-5.8857,-5.8664,-5.8639,-5.8639,-5.85,-5.8305,-5.8195,-5.8195,-5.8195,-5.8195,-5.8195,-5.825,-5.8335,-5.8445,-5.85,-5.8445,-5.836,-5.8305,-5.8305,-5.8305,-5.8305,-5.8305,-5.8305,-5.825,-5.8195,-5.8195,-5.8195,-5.8305,-5.8555,-5.8719,-5.8882,-5.9045,-5.8936,-5.8828,-5.847,-5.8022,-5.7159,-5.6271,-5.5459,-5.4759,-5.458,-5.437,-5.459,-5.4905,-5.4818,-5.4531,-5.4281,-5.3982,-5.3533,-5.2845,-5.2276,-5.1887,-5.1648,-5.1468,-5.1379,-5.1319,-5.1229,-5.1109,-5.0823,-5.0554,-5.0016,-4.9434,-4.8835,-4.8356,-4.7967,-4.7638,-4.7519,-4.7399,-4.7309,-4.7309,-4.7309,-4.7309,-4.7309,-4.7309,-4.7309,-4.7309,-4.7309,-5.4149,-5.3942,-5.371,-5.364,-5.3791,-5.4284,-5.4662,-5.5039,-5.5997,-5.6767,-5.7412,-5.8018,-5.8445,-5.8773,-5.8991,-5.9045,-5.8936,-5.8609,-5.8335,-5.8085,-5.7303,-5.6851,-5.648,-5.6135,-5.5845,-5.5787,-5.5816,-5.599,-5.6193,-5.6595,-5.6936,-5.7247,-5.7613,-5.8059,-5.8584,-5.8748,-5.8803,-5.8857,-5.8664,-5.85,-5.8169,-5.8169,-5.828,-5.8195,-5.8195,-5.8195,-5.8195,-5.8195,-5.8195,-5.8195,-5.814,-5.8195,-5.814,-5.8085,-5.8029,-5.7918,-5.7918,-5.7918,-5.7918,-5.7918,-5.7863,-5.7918,-5.7918,-5.8029,-5.8029,-5.8085,-5.825,-5.8335,-5.8555,-5.8828,-5.8828,-5.8719,-5.847,-5.7937,-5.7196,-5.6388,-5.5525,-5.5129,-5.4838,-5.4657,-5.4671,-5.4926,-5.5099,-5.488,-5.47,-5.4401,-5.4102,-5.3473,-5.2965,-5.2516,-5.2007,-5.1828,-5.1648,-5.1349,-5.1229,-5.1229,-5.105,-5.0794,-5.0524,-4.9942,-4.9314,-4.8626,-4.8237,-4.8117,-4.7698,-4.7429,-4.7399,-4.7429,-4.7309,-4.7309,-4.7309,-4.7309,-4.7309,-4.7309,-4.7309]}]]